Darstellungsparameter: Aktuell verwendete Einstellungen:
Skalierung der Graphiken ... ?
xyx+y,   Skalierungsfaktor:      Skalierung: Modus: x, Faktor: 1
Darstellungszeitraum ... ?
Vom - - bis: - -   Zeitraum: 30.05.2014 - 29.06.2014
Min/Max/Avg-Anzeige ... ?
Zeige MMA aktuell
Zeige MMA Monat
Zeige MMA alles
Zeige --A aktuell
Zeige --A Monat
Zeige --A alles
Keine MMA-Anzeige
MMA:
Keine MMA-Graphiken
MMA-Basis: 30.05.2014 - 29.06.2014
Quicknavigation für Darstellung... ?
Tage:      1T, 2T, 3T, 5T -1T -2T -3T -5T +1T +2T +3T +5T
Wochen: 1W, 2W, 3W -1W -2W -3W +1W +2W +3W
Monate: 1M, 3M, 6M -1M -3M -6M +1M +3M +6M
Jahre:    1J, 3J, 5J, 10J -1J -3J -5J -10J +1J +3J +5J +10J
Nutze für die Darstellung ... ?
Originaldaten oder Mittelwerte auf ...
Stundenbasis Tagesbasis Wochenbasis
Monatsbasis Jahresbasis      Datenbasis: Original-Daten
Darstellen als:
Statistik (Auto) Statistik J:M      Darstellung:
Zur Graphik,    zurück zur Übersicht aller Sensoren.
 
Tabellarische Datenbersicht: ?
 
Sensor: Nr:Datum:Temp:Abs-Feuchte:Windchill:Wind:
Aussen-T/F 1 30-05-2014 00:00:00 12.1 C 9.22 g/m*3 12.1 C 8.1 km/h
2 30-05-2014 00:05:00 12.1 C 9.22 g/m*3 12.1 C 4.8 km/h
3 30-05-2014 00:10:00 12 C 9.06 g/m*3 12 C 6.4 km/h
4 30-05-2014 00:15:00 11.9 C 9 g/m*3 11.9 C 6.4 km/h
5 30-05-2014 00:20:00 11.9 C 9 g/m*3 11.9 C 8.1 km/h
6 30-05-2014 00:25:00 11.9 C 9 g/m*3 11.9 C 8.1 km/h
7 30-05-2014 00:30:00 11.8 C 8.95 g/m*3 11.8 C 8.1 km/h
8 30-05-2014 00:35:00 11.8 C 8.95 g/m*3 11.8 C 3.2 km/h
9 30-05-2014 00:40:00 11.8 C 8.95 g/m*3 11.8 C 4.8 km/h
10 30-05-2014 00:45:00 11.7 C 8.89 g/m*3 11.7 C 9.7 km/h
11 30-05-2014 00:50:00 11.7 C 8.89 g/m*3 11.7 C 9.7 km/h
12 30-05-2014 00:55:00 11.6 C 8.94 g/m*3 11.6 C 4.8 km/h
13 30-05-2014 01:00:00 11.6 C 8.94 g/m*3 11.6 C 6.4 km/h
14 30-05-2014 01:05:00 11.5 C 8.88 g/m*3 11.5 C 8.1 km/h
15 30-05-2014 01:10:00 11.5 C 8.88 g/m*3 11.5 C 6.4 km/h
16 30-05-2014 01:15:00 11.4 C 8.72 g/m*3 11.4 C 8.1 km/h
17 30-05-2014 01:20:00 11.4 C 8.72 g/m*3 11.4 C 8.1 km/h
18 30-05-2014 01:25:00 11.3 C 8.57 g/m*3 11.3 C 8.1 km/h
19 30-05-2014 01:30:00 11.3 C 8.57 g/m*3 11.3 C 4.8 km/h
20 30-05-2014 01:35:00 11.2 C 8.51 g/m*3 11.2 C 9.7 km/h
21 30-05-2014 01:40:00 11.2 C 8.51 g/m*3 11.2 C 6.4 km/h
22 30-05-2014 01:45:00 11.2 C 8.51 g/m*3 11.2 C 6.4 km/h
23 30-05-2014 01:50:00 11.2 C 8.41 g/m*3 11.2 C 14.5 km/h
24 30-05-2014 01:55:00 11.1 C 8.36 g/m*3 11.1 C 12.9 km/h
25 30-05-2014 02:00:00 11.1 C 8.46 g/m*3 11.1 C 3.2 km/h
Sensor: Nr:Datum:Temp:Abs-Feuchte:Windchill:Wind:
Aussen-T/F 26 30-05-2014 02:05:00 11.1 C 8.36 g/m*3 11.1 C 4.8 km/h
27 30-05-2014 02:10:00 11.1 C 8.36 g/m*3 11.1 C 3.2 km/h
28 30-05-2014 02:15:00 11.1 C 8.36 g/m*3 11.1 C 3.2 km/h
29 30-05-2014 02:20:00 11.1 C 8.46 g/m*3 11.1 C 1.6 km/h
30 30-05-2014 02:25:00 11.1 C 8.46 g/m*3 11.1 C 4.8 km/h
31 30-05-2014 02:30:00 11.1 C 8.46 g/m*3 11.1 C 3.2 km/h
32 30-05-2014 02:35:00 11.1 C 8.56 g/m*3 11.1 C 1.6 km/h
33 30-05-2014 02:40:00 11.1 C 8.56 g/m*3 11.1 C 3.2 km/h
34 30-05-2014 02:45:00 11.1 C 8.56 g/m*3 11.1 C 1.6 km/h
35 30-05-2014 02:50:00 11.1 C 8.56 g/m*3 11.1 C 1.6 km/h
36 30-05-2014 02:55:00 11.1 C 8.56 g/m*3 11.1 C 6.4 km/h
37 30-05-2014 03:00:00 11.1 C 8.56 g/m*3 11.1 C 0 km/h
38 30-05-2014 03:05:00 11 C 8.51 g/m*3 11 C 3.2 km/h
39 30-05-2014 03:10:00 10.9 C 8.26 g/m*3 10.41 C 6.4 km/h
40 30-05-2014 03:15:00 10.9 C 8.26 g/m*3 10.9 C 3.2 km/h
41 30-05-2014 03:20:00 10.9 C 8.26 g/m*3 10.9 C 3.2 km/h
42 30-05-2014 03:25:00 10.9 C 8.26 g/m*3 10.9 C 3.2 km/h
43 30-05-2014 03:30:00 10.9 C 8.36 g/m*3 10.9 C 1.6 km/h
44 30-05-2014 03:35:00 10.9 C 8.26 g/m*3 10.9 C 4.8 km/h
45 30-05-2014 03:40:00 10.9 C 8.26 g/m*3 10.9 C 3.2 km/h
46 30-05-2014 03:45:00 10.8 C 8.2 g/m*3 10.8 C 3.2 km/h
47 30-05-2014 03:50:00 10.8 C 8.2 g/m*3 10.8 C 4.8 km/h
48 30-05-2014 03:55:00 10.8 C 8.2 g/m*3 10.8 C 3.2 km/h
49 30-05-2014 04:00:00 10.8 C 8.11 g/m*3 10.8 C 1.6 km/h
50 30-05-2014 04:05:00 10.8 C 8.2 g/m*3 10.8 C 4.8 km/h
Sensor: Nr:Datum:Temp:Abs-Feuchte:Windchill:Wind:
Aussen-T/F 51 30-05-2014 04:10:00 10.7 C 8.05 g/m*3 10.7 C 1.6 km/h
52 30-05-2014 04:15:00 10.7 C 8.05 g/m*3 10.7 C 0 km/h
53 30-05-2014 04:20:00 10.7 C 8.15 g/m*3 10.7 C 0 km/h
54 30-05-2014 04:25:00 10.7 C 8.15 g/m*3 10.7 C 0 km/h
55 30-05-2014 04:30:00 10.7 C 8.25 g/m*3 10.7 C 0 km/h
56 30-05-2014 04:35:00 10.7 C 8.15 g/m*3 10.7 C 4.8 km/h
57 30-05-2014 04:40:00 10.6 C 8 g/m*3 10.6 C 4.8 km/h
58 30-05-2014 04:45:00 10.6 C 8.1 g/m*3 10.6 C 1.6 km/h
59 30-05-2014 04:50:00 10.6 C 8 g/m*3 10.6 C 3.2 km/h
60 30-05-2014 04:55:00 10.6 C 8 g/m*3 10.6 C 3.2 km/h
61 30-05-2014 05:00:00 10.6 C 8.1 g/m*3 10.6 C 0 km/h
62 30-05-2014 05:05:00 10.6 C 8 g/m*3 10.6 C 3.2 km/h
63 30-05-2014 05:10:00 10.6 C 8.1 g/m*3 10.6 C 0 km/h
64 30-05-2014 05:15:00 10.6 C 8.2 g/m*3 10.6 C 1.6 km/h
65 30-05-2014 05:20:00 10.5 C 8.15 g/m*3 10.5 C 0 km/h
66 30-05-2014 05:25:00 10.4 C 8.1 g/m*3 10.4 C 0 km/h
67 30-05-2014 05:30:00 10.4 C 8 g/m*3 10.4 C 1.6 km/h
68 30-05-2014 05:35:00 10.4 C 8.1 g/m*3 10.4 C 0 km/h
69 30-05-2014 05:40:00 10.4 C 7.9 g/m*3 10.4 C 3.2 km/h
70 30-05-2014 05:45:00 10.3 C 7.95 g/m*3 10.3 C 0 km/h
71 30-05-2014 05:50:00 10.3 C 8.04 g/m*3 10.3 C 0 km/h
72 30-05-2014 05:55:00 10.3 C 7.95 g/m*3 10.3 C 1.6 km/h
73 30-05-2014 06:00:00 10.3 C 7.95 g/m*3 10.3 C 1.6 km/h
74 30-05-2014 06:05:00 10.3 C 7.95 g/m*3 10.3 C 0 km/h
75 30-05-2014 06:10:00 10.3 C 7.95 g/m*3 10.3 C 1.6 km/h
Sensor: Nr:Datum:Temp:Abs-Feuchte:Windchill:Wind:
Aussen-T/F 76 30-05-2014 06:15:00 10.3 C 7.95 g/m*3 10.3 C 3.2 km/h
77 30-05-2014 06:20:00 10.3 C 7.95 g/m*3 10.3 C 3.2 km/h
78 30-05-2014 06:25:00 10.3 C 7.85 g/m*3 10.3 C 3.2 km/h
79 30-05-2014 06:30:00 10.4 C 7.9 g/m*3 10.4 C 3.2 km/h
80 30-05-2014 06:35:00 10.4 C 7.9 g/m*3 10.4 C 4.8 km/h
81 30-05-2014 06:40:00 10.4 C 7.81 g/m*3 10.4 C 4.8 km/h
82 30-05-2014 06:45:00 10.4 C 7.81 g/m*3 9.83 C 6.4 km/h
83 30-05-2014 06:50:00 10.4 C 7.71 g/m*3 9.83 C 6.4 km/h
84 30-05-2014 06:55:00 10.5 C 7.76 g/m*3 10.5 C 3.2 km/h
85 30-05-2014 07:00:00 10.5 C 7.76 g/m*3 10.5 C 1.6 km/h
86 30-05-2014 07:05:00 10.5 C 7.86 g/m*3 10.5 C 1.6 km/h
87 30-05-2014 07:10:00 10.6 C 7.81 g/m*3 10.6 C 1.6 km/h
88 30-05-2014 07:15:00 10.6 C 7.71 g/m*3 10.6 C 3.2 km/h
89 30-05-2014 07:20:00 10.6 C 7.61 g/m*3 10.6 C 4.8 km/h
90 30-05-2014 07:25:00 10.6 C 7.71 g/m*3 10.6 C 1.6 km/h
91 30-05-2014 07:30:00 10.7 C 7.66 g/m*3 10.7 C 1.6 km/h
92 30-05-2014 07:35:00 10.7 C 7.66 g/m*3 9.52 C 9.7 km/h
93 30-05-2014 07:40:00 10.8 C 7.61 g/m*3 10.29 C 6.4 km/h
94 30-05-2014 07:45:00 10.8 C 7.61 g/m*3 10.8 C 4.8 km/h
95 30-05-2014 07:50:00 10.9 C 7.66 g/m*3 10.9 C 3.2 km/h
96 30-05-2014 07:55:00 11 C 7.71 g/m*3 10.16 C 8.1 km/h
97 30-05-2014 08:00:00 11.2 C 7.7 g/m*3 11.2 C 4.8 km/h
98 30-05-2014 08:05:00 11.3 C 7.75 g/m*3 11.3 C 4.8 km/h
99 30-05-2014 08:10:00 11.4 C 7.8 g/m*3 11.4 C 4.8 km/h
100 30-05-2014 08:15:00 11.7 C 7.74 g/m*3 11.7 C 6.4 km/h
Sensor: Nr:Datum:Temp:Abs-Feuchte:Windchill:Wind:
Aussen-T/F 101 30-05-2014 08:20:00 11.9 C 7.84 g/m*3 11.9 C 9.7 km/h
102 30-05-2014 08:25:00 12 C 7.67 g/m*3 12 C 8.1 km/h
103 30-05-2014 08:30:00 12.1 C 7.72 g/m*3 12.1 C 8.1 km/h
104 30-05-2014 08:35:00 12.1 C 7.61 g/m*3 12.1 C 11.3 km/h
105 30-05-2014 08:40:00 12 C 7.46 g/m*3 12 C 4.8 km/h
106 30-05-2014 08:45:00 12.1 C 7.51 g/m*3 12.1 C 4.8 km/h
107 30-05-2014 08:50:00 12.2 C 7.45 g/m*3 12.2 C 6.4 km/h
108 30-05-2014 08:55:00 12.4 C 7.43 g/m*3 12.4 C 8.1 km/h
109 30-05-2014 09:00:00 12.5 C 7.37 g/m*3 12.5 C 8.1 km/h
110 30-05-2014 09:05:00 12.7 C 7.24 g/m*3 12.7 C 11.3 km/h
111 30-05-2014 09:10:00 12.7 C 7.35 g/m*3 12.7 C 12.9 km/h
112 30-05-2014 09:15:00 12.7 C 7.35 g/m*3 12.7 C 8.1 km/h
113 30-05-2014 09:20:00 12.7 C 7.46 g/m*3 12.7 C 11.3 km/h
114 30-05-2014 09:25:00 12.6 C 7.3 g/m*3 12.6 C 8.1 km/h
115 30-05-2014 09:30:00 12.5 C 7.26 g/m*3 12.5 C 9.7 km/h
116 30-05-2014 09:35:00 12.4 C 7.21 g/m*3 12.4 C 3.2 km/h
117 30-05-2014 09:40:00 12.3 C 7.38 g/m*3 12.3 C 6.4 km/h
118 30-05-2014 09:45:00 12.3 C 7.38 g/m*3 12.3 C 11.3 km/h
119 30-05-2014 09:50:00 12.5 C 7.37 g/m*3 12.5 C 9.7 km/h
120 30-05-2014 09:55:00 12.7 C 7.46 g/m*3 12.7 C 8.1 km/h
121 30-05-2014 10:00:00 12.9 C 7.44 g/m*3 12.9 C 9.7 km/h
122 30-05-2014 10:05:00 13.3 C 7.63 g/m*3 13.3 C 12.9 km/h
123 30-05-2014 10:10:00 13.7 C 7.82 g/m*3 13.7 C 11.3 km/h
124 30-05-2014 10:15:00 14 C 7.84 g/m*3 14 C 12.9 km/h
125 30-05-2014 10:20:00 14.3 C 7.86 g/m*3 14.3 C 12.9 km/h
Sensor: Nr:Datum:Temp:Abs-Feuchte:Windchill:Wind:
Aussen-T/F 126 30-05-2014 10:25:00 14.4 C 7.66 g/m*3 14.4 C 11.3 km/h
127 30-05-2014 10:30:00 14.6 C 8.01 g/m*3 14.6 C 9.7 km/h
128 30-05-2014 10:35:00 14.7 C 8.18 g/m*3 14.7 C 12.9 km/h
129 30-05-2014 10:40:00 14.9 C 8.03 g/m*3 14.9 C 11.3 km/h
130 30-05-2014 10:45:00 15.2 C 8.05 g/m*3 15.2 C 9.7 km/h
131 30-05-2014 10:50:00 15.2 C 8.05 g/m*3 15.2 C 11.3 km/h
132 30-05-2014 10:55:00 14.9 C 7.9 g/m*3 14.9 C 4.8 km/h
133 30-05-2014 11:00:00 14.7 C 7.81 g/m*3 14.7 C 6.4 km/h
134 30-05-2014 11:05:00 14.5 C 7.71 g/m*3 14.5 C 8.1 km/h
135 30-05-2014 11:10:00 14.5 C 8.08 g/m*3 14.5 C 8.1 km/h
136 30-05-2014 11:15:00 14.6 C 8.13 g/m*3 14.6 C 11.3 km/h
137 30-05-2014 11:20:00 14.5 C 7.84 g/m*3 14.5 C 8.1 km/h
138 30-05-2014 11:25:00 14.6 C 7.88 g/m*3 14.6 C 8.1 km/h
139 30-05-2014 11:30:00 14.6 C 7.76 g/m*3 14.6 C 9.7 km/h
140 30-05-2014 11:35:00 14.4 C 7.42 g/m*3 14.4 C 8.1 km/h
141 30-05-2014 11:40:00 14.3 C 7.74 g/m*3 14.3 C 11.3 km/h
142 30-05-2014 11:45:00 14.6 C 8.13 g/m*3 14.6 C 12.9 km/h
143 30-05-2014 11:50:00 15.2 C 8.31 g/m*3 15.2 C 9.7 km/h
144 30-05-2014 11:55:00 15.7 C 8.3 g/m*3 15.7 C 11.3 km/h
145 30-05-2014 12:00:00 16.1 C 7.81 g/m*3 16.1 C 11.3 km/h
146 30-05-2014 12:05:00 16 C 7.9 g/m*3 16 C 8.1 km/h
147 30-05-2014 12:10:00 15.6 C 7.45 g/m*3 15.6 C 11.3 km/h
148 30-05-2014 12:15:00 15.2 C 7.53 g/m*3 15.2 C 12.9 km/h
149 30-05-2014 12:20:00 15.2 C 7.53 g/m*3 15.2 C 9.7 km/h
150 30-05-2014 12:25:00 15.2 C 7.66 g/m*3 15.2 C 6.4 km/h
Sensor: Nr:Datum:Temp:Abs-Feuchte:Windchill:Wind:
Aussen-T/F 151 30-05-2014 12:30:00 15.2 C 7.79 g/m*3 15.2 C 9.7 km/h
152 30-05-2014 12:35:00 15.4 C 7.75 g/m*3 15.4 C 9.7 km/h
153 30-05-2014 12:40:00 15.9 C 8.8 g/m*3 15.9 C 12.9 km/h
154 30-05-2014 12:45:00 16.4 C 8.1 g/m*3 16.4 C 8.1 km/h
155 30-05-2014 12:50:00 16.7 C 7.67 g/m*3 16.7 C 11.3 km/h
156 30-05-2014 12:55:00 16.7 C 7.82 g/m*3 16.7 C 9.7 km/h
157 30-05-2014 13:00:00 16.8 C 8.44 g/m*3 16.8 C 11.3 km/h
158 30-05-2014 13:05:00 16.9 C 7.77 g/m*3 16.9 C 14.5 km/h
159 30-05-2014 13:10:00 17.1 C 8.44 g/m*3 17.1 C 14.5 km/h
160 30-05-2014 13:15:00 17.1 C 9.17 g/m*3 17.1 C 11.3 km/h
161 30-05-2014 13:20:00 17.3 C 7.96 g/m*3 17.3 C 17.7 km/h
162 30-05-2014 13:25:00 17.1 C 8.15 g/m*3 17.1 C 12.9 km/h
163 30-05-2014 13:30:00 17.1 C 8.3 g/m*3 17.1 C 8.1 km/h
164 30-05-2014 13:35:00 17.1 C 8.15 g/m*3 17.1 C 11.3 km/h
165 30-05-2014 13:40:00 17.2 C 8.64 g/m*3 17.2 C 12.9 km/h
166 30-05-2014 13:45:00 17.1 C 8.01 g/m*3 17.1 C 11.3 km/h
167 30-05-2014 13:50:00 17.3 C 8.54 g/m*3 17.3 C 11.3 km/h
168 30-05-2014 13:55:00 17.3 C 7.81 g/m*3 17.3 C 8.1 km/h
169 30-05-2014 14:00:00 17.6 C 8.7 g/m*3 17.6 C 8.1 km/h
170 30-05-2014 14:05:00 17.8 C 8.04 g/m*3 17.8 C 11.3 km/h
171 30-05-2014 14:10:00 18 C 8.6 g/m*3 18 C 14.5 km/h
172 30-05-2014 14:15:00 17.8 C 8.04 g/m*3 17.8 C 11.3 km/h
173 30-05-2014 14:20:00 17.3 C 7.81 g/m*3 17.3 C 8.1 km/h
174 30-05-2014 14:25:00 17 C 7.67 g/m*3 17 C 8.1 km/h
175 30-05-2014 14:30:00 17.1 C 8.3 g/m*3 17.1 C 9.7 km/h
Sensor: Nr:Datum:Temp:Abs-Feuchte:Windchill:Wind:
Aussen-T/F 176 30-05-2014 14:35:00 17.2 C 7.61 g/m*3 17.2 C 6.4 km/h
177 30-05-2014 14:40:00 17.2 C 7.47 g/m*3 17.2 C 14.5 km/h
178 30-05-2014 14:45:00 17.6 C 7.8 g/m*3 17.6 C 12.9 km/h
179 30-05-2014 14:50:00 17.2 C 7.91 g/m*3 17.2 C 14.5 km/h
180 30-05-2014 14:55:00 16.8 C 7.72 g/m*3 16.8 C 11.3 km/h
181 30-05-2014 15:00:00 16.6 C 7.63 g/m*3 16.6 C 9.7 km/h
182 30-05-2014 15:05:00 16.4 C 7.54 g/m*3 16.4 C 17.7 km/h
183 30-05-2014 15:10:00 16.1 C 7.54 g/m*3 16.1 C 8.1 km/h
184 30-05-2014 15:15:00 16 C 7.77 g/m*3 16 C 11.3 km/h
185 30-05-2014 15:20:00 16.4 C 8.23 g/m*3 16.4 C 11.3 km/h
186 30-05-2014 15:25:00 16.7 C 7.96 g/m*3 16.7 C 14.5 km/h
187 30-05-2014 15:30:00 16.7 C 7.96 g/m*3 16.7 C 9.7 km/h
188 30-05-2014 15:35:00 16.9 C 7.91 g/m*3 16.9 C 11.3 km/h
189 30-05-2014 15:40:00 17.2 C 8.05 g/m*3 17.2 C 8.1 km/h
190 30-05-2014 15:45:00 17.3 C 8.25 g/m*3 17.3 C 14.5 km/h
191 30-05-2014 15:50:00 17.9 C 8.24 g/m*3 17.9 C 14.5 km/h
192 30-05-2014 15:55:00 17.8 C 8.2 g/m*3 17.8 C 8.1 km/h
193 30-05-2014 16:00:00 17.3 C 7.96 g/m*3 17.3 C 12.9 km/h
194 30-05-2014 16:05:00 17 C 8.1 g/m*3 17 C 11.3 km/h
195 30-05-2014 16:10:00 16.8 C 8.01 g/m*3 16.8 C 8.1 km/h
196 30-05-2014 16:15:00 16.6 C 8.05 g/m*3 16.6 C 6.4 km/h
197 30-05-2014 16:20:00 16.5 C 7.72 g/m*3 16.5 C 6.4 km/h
198 30-05-2014 16:25:00 16.3 C 8.19 g/m*3 16.3 C 6.4 km/h
199 30-05-2014 16:30:00 16.6 C 8.76 g/m*3 16.6 C 8.1 km/h
200 30-05-2014 16:35:00 17.3 C 8.4 g/m*3 17.3 C 8.1 km/h
Sensor: Nr:Datum:Temp:Abs-Feuchte:Windchill:Wind:
Aussen-T/F 201 30-05-2014 16:40:00 17.9 C 8.24 g/m*3 17.9 C 11.3 km/h
202 30-05-2014 16:45:00 18 C 8.29 g/m*3 18 C 11.3 km/h
203 30-05-2014 16:50:00 17.6 C 8.1 g/m*3 17.6 C 9.7 km/h
204 30-05-2014 16:55:00 17.2 C 7.91 g/m*3 17.2 C 4.8 km/h
205 30-05-2014 17:00:00 16.7 C 7.82 g/m*3 16.7 C 9.7 km/h
206 30-05-2014 17:05:00 16.4 C 7.96 g/m*3 16.4 C 9.7 km/h
207 30-05-2014 17:10:00 16.2 C 7.86 g/m*3 16.2 C 8.1 km/h
208 30-05-2014 17:15:00 16.2 C 8 g/m*3 16.2 C 11.3 km/h
209 30-05-2014 17:20:00 16.1 C 7.95 g/m*3 16.1 C 9.7 km/h
210 30-05-2014 17:25:00 16.1 C 8.36 g/m*3 16.1 C 12.9 km/h
211 30-05-2014 17:30:00 16.1 C 8.09 g/m*3 16.1 C 8.1 km/h
212 30-05-2014 17:35:00 15.9 C 7.99 g/m*3 15.9 C 11.3 km/h
213 30-05-2014 17:40:00 15.7 C 7.76 g/m*3 15.7 C 12.9 km/h
214 30-05-2014 17:45:00 15.9 C 8.4 g/m*3 15.9 C 12.9 km/h
215 30-05-2014 17:50:00 16.3 C 7.77 g/m*3 16.3 C 12.9 km/h
216 30-05-2014 17:55:00 16.4 C 8.1 g/m*3 16.4 C 14.5 km/h
217 30-05-2014 18:00:00 16.7 C 7.96 g/m*3 16.7 C 11.3 km/h
218 30-05-2014 18:05:00 16.8 C 7.86 g/m*3 16.8 C 11.3 km/h
219 30-05-2014 18:10:00 16.9 C 8.05 g/m*3 16.9 C 9.7 km/h
220 30-05-2014 18:15:00 16.8 C 8.01 g/m*3 16.8 C 11.3 km/h
221 30-05-2014 18:20:00 16.6 C 7.77 g/m*3 16.6 C 12.9 km/h
222 30-05-2014 18:25:00 16.4 C 7.82 g/m*3 16.4 C 8.1 km/h
223 30-05-2014 18:30:00 16.1 C 7.68 g/m*3 16.1 C 4.8 km/h
224 30-05-2014 18:35:00 15.9 C 7.85 g/m*3 15.9 C 8.1 km/h
225 30-05-2014 18:40:00 16 C 8.04 g/m*3 16 C 8.1 km/h
Sensor: Nr:Datum:Temp:Abs-Feuchte:Windchill:Wind:
Aussen-T/F 226 30-05-2014 18:45:00 16.3 C 8.05 g/m*3 16.3 C 11.3 km/h
227 30-05-2014 18:50:00 16.7 C 8.24 g/m*3 16.7 C 9.7 km/h
228 30-05-2014 18:55:00 17 C 8.25 g/m*3 17 C 11.3 km/h
229 30-05-2014 19:00:00 16.7 C 7.96 g/m*3 16.7 C 14.5 km/h
230 30-05-2014 19:05:00 16.2 C 7.86 g/m*3 16.2 C 6.4 km/h
231 30-05-2014 19:10:00 15.6 C 7.58 g/m*3 15.6 C 12.9 km/h
232 30-05-2014 19:15:00 15.3 C 7.84 g/m*3 15.3 C 8.1 km/h
233 30-05-2014 19:20:00 15.1 C 7.74 g/m*3 15.1 C 9.7 km/h
234 30-05-2014 19:25:00 15 C 7.82 g/m*3 15 C 9.7 km/h
235 30-05-2014 19:30:00 15.1 C 7.87 g/m*3 15.1 C 6.4 km/h
236 30-05-2014 19:35:00 15.1 C 7.74 g/m*3 15.1 C 8.1 km/h
237 30-05-2014 19:40:00 15 C 7.69 g/m*3 15 C 8.1 km/h
238 30-05-2014 19:45:00 14.9 C 7.65 g/m*3 14.9 C 9.7 km/h
239 30-05-2014 19:50:00 14.8 C 7.73 g/m*3 14.8 C 8.1 km/h
240 30-05-2014 19:55:00 14.7 C 7.55 g/m*3 14.7 C 9.7 km/h
241 30-05-2014 20:00:00 14.6 C 7.63 g/m*3 14.6 C 3.2 km/h
242 30-05-2014 20:05:00 14.6 C 7.63 g/m*3 14.6 C 6.4 km/h
243 30-05-2014 20:10:00 14.6 C 7.51 g/m*3 14.6 C 3.2 km/h
244 30-05-2014 20:15:00 14.6 C 7.76 g/m*3 14.6 C 1.6 km/h
245 30-05-2014 20:20:00 14.4 C 7.29 g/m*3 14.4 C 3.2 km/h
246 30-05-2014 20:25:00 14.4 C 7.42 g/m*3 14.4 C 0 km/h
247 30-05-2014 20:30:00 14.3 C 7.25 g/m*3 14.3 C 1.6 km/h
248 30-05-2014 20:35:00 14.2 C 8.06 g/m*3 14.2 C 0 km/h
249 30-05-2014 20:40:00 14.1 C 7.4 g/m*3 14.1 C 0 km/h
250 30-05-2014 20:45:00 14 C 7.72 g/m*3 14 C 0 km/h
Sensor: Nr:Datum:Temp:Abs-Feuchte:Windchill:Wind:
Aussen-T/F 251 30-05-2014 20:50:00 13.8 C 8.22 g/m*3 13.8 C 0 km/h
252 30-05-2014 20:55:00 13.6 C 8.47 g/m*3 13.6 C 0 km/h
253 30-05-2014 21:00:00 13.2 C 8.5 g/m*3 13.2 C 0 km/h
254 30-05-2014 21:05:00 12.8 C 8.4 g/m*3 12.8 C 0 km/h
255 30-05-2014 21:10:00 12.4 C 8.19 g/m*3 12.4 C 0 km/h
256 30-05-2014 21:15:00 12.1 C 8.15 g/m*3 12.1 C 1.6 km/h
257 30-05-2014 21:20:00 11.7 C 8.05 g/m*3 11.7 C 0 km/h
258 30-05-2014 21:25:00 11.5 C 7.95 g/m*3 11.5 C 0 km/h
259 30-05-2014 21:30:00 11.3 C 7.85 g/m*3 11.3 C 1.6 km/h
260 30-05-2014 21:35:00 11.1 C 7.76 g/m*3 11.1 C 1.6 km/h
261 30-05-2014 21:40:00 10.9 C 7.66 g/m*3 10.9 C 0 km/h
262 30-05-2014 21:45:00 10.7 C 7.66 g/m*3 10.7 C 0 km/h
263 30-05-2014 21:50:00 10.6 C 7.52 g/m*3 10.6 C 1.6 km/h
264 30-05-2014 21:55:00 10.5 C 7.57 g/m*3 10.5 C 0 km/h
265 30-05-2014 22:00:00 10.4 C 7.52 g/m*3 10.4 C 0 km/h
266 30-05-2014 22:05:00 10.3 C 7.57 g/m*3 10.3 C 1.6 km/h
267 30-05-2014 22:10:00 10.2 C 7.61 g/m*3 10.2 C 0 km/h
268 30-05-2014 22:15:00 10.1 C 7.66 g/m*3 10.1 C 0 km/h
269 30-05-2014 22:20:00 10.1 C 7.66 g/m*3 10.1 C 0 km/h
270 30-05-2014 22:25:00 10 C 7.61 g/m*3 10 C 0 km/h
271 30-05-2014 22:30:00 9.9 C 7.56 g/m*3 9.9 C 0 km/h
272 30-05-2014 22:35:00 9.8 C 7.61 g/m*3 9.8 C 0 km/h
273 30-05-2014 22:40:00 9.7 C 7.56 g/m*3 9.7 C 0 km/h
274 30-05-2014 22:45:00 9.6 C 7.69 g/m*3 9.6 C 0 km/h
275 30-05-2014 22:50:00 9.5 C 7.65 g/m*3 9.5 C 0 km/h
Sensor: Nr:Datum:Temp:Abs-Feuchte:Windchill:Wind:
Aussen-T/F 276 30-05-2014 22:55:00 9.4 C 7.6 g/m*3 9.4 C 0 km/h
277 30-05-2014 23:00:00 9.4 C 7.6 g/m*3 9.4 C 0 km/h
278 30-05-2014 23:05:00 9.3 C 7.55 g/m*3 9.3 C 0 km/h
279 30-05-2014 23:10:00 9.2 C 7.5 g/m*3 9.2 C 0 km/h
280 30-05-2014 23:15:00 9.1 C 7.54 g/m*3 9.1 C 0 km/h
281 30-05-2014 23:20:00 8.9 C 7.45 g/m*3 8.9 C 0 km/h
282 30-05-2014 23:25:00 8.8 C 7.4 g/m*3 8.8 C 0 km/h
283 30-05-2014 23:30:00 8.7 C 7.44 g/m*3 8.7 C 0 km/h
284 30-05-2014 23:35:00 8.6 C 7.39 g/m*3 8.6 C 0 km/h
285 30-05-2014 23:40:00 8.5 C 7.34 g/m*3 8.5 C 0 km/h
286 30-05-2014 23:45:00 8.4 C 7.38 g/m*3 8.4 C 0 km/h
287 30-05-2014 23:50:00 8.4 C 7.38 g/m*3 8.4 C 0 km/h
288 30-05-2014 23:55:00 8.3 C 7.33 g/m*3 8.3 C 0 km/h
289 31-05-2014 00:00:00 8.3 C 7.33 g/m*3 8.3 C 0 km/h
290 31-05-2014 00:05:00 8.2 C 7.2 g/m*3 8.2 C 0 km/h
291 31-05-2014 00:10:00 8.2 C 7.29 g/m*3 8.2 C 0 km/h
292 31-05-2014 00:15:00 8.2 C 7.29 g/m*3 8.2 C 0 km/h
293 31-05-2014 00:20:00 8.1 C 7.24 g/m*3 8.1 C 0 km/h
294 31-05-2014 00:25:00 8 C 7.19 g/m*3 8 C 0 km/h
295 31-05-2014 00:30:00 8 C 7.28 g/m*3 8 C 0 km/h
296 31-05-2014 00:35:00 7.9 C 7.23 g/m*3 7.9 C 0 km/h
297 31-05-2014 00:40:00 7.8 C 7.18 g/m*3 7.8 C 0 km/h
298 31-05-2014 00:45:00 7.8 C 7.26 g/m*3 7.8 C 0 km/h
299 31-05-2014 00:50:00 7.7 C 7.22 g/m*3 7.7 C 0 km/h
300 31-05-2014 00:55:00 7.7 C 7.22 g/m*3 7.7 C 0 km/h
Sensor: Nr:Datum:Temp:Abs-Feuchte:Windchill:Wind:
Aussen-T/F 301 31-05-2014 01:00:00 7.7 C 7.22 g/m*3 7.7 C 0 km/h
302 31-05-2014 01:05:00 7.6 C 7.25 g/m*3 7.6 C 0 km/h
303 31-05-2014 01:10:00 7.6 C 7.25 g/m*3 7.6 C 0 km/h
304 31-05-2014 01:15:00 7.5 C 7.2 g/m*3 7.5 C 0 km/h
305 31-05-2014 01:20:00 7.5 C 7.2 g/m*3 7.5 C 0 km/h
306 31-05-2014 01:25:00 7.4 C 7.16 g/m*3 7.4 C 0 km/h
307 31-05-2014 01:30:00 7.4 C 7.16 g/m*3 7.4 C 0 km/h
308 31-05-2014 01:35:00 7.3 C 7.19 g/m*3 7.3 C 0 km/h
309 31-05-2014 01:40:00 7.3 C 7.11 g/m*3 7.3 C 0 km/h
310 31-05-2014 01:45:00 7.3 C 7.19 g/m*3 7.3 C 0 km/h
311 31-05-2014 01:50:00 7.3 C 7.19 g/m*3 7.3 C 0 km/h
312 31-05-2014 01:55:00 7.2 C 7.14 g/m*3 7.2 C 0 km/h
313 31-05-2014 02:00:00 7.2 C 7.14 g/m*3 7.2 C 0 km/h
314 31-05-2014 02:05:00 7.2 C 7.14 g/m*3 7.2 C 0 km/h
315 31-05-2014 02:10:00 7.1 C 7.18 g/m*3 7.1 C 0 km/h
316 31-05-2014 02:15:00 7.1 C 7.18 g/m*3 7.1 C 0 km/h
317 31-05-2014 02:20:00 7 C 7.13 g/m*3 7 C 0 km/h
318 31-05-2014 02:25:00 6.9 C 7.08 g/m*3 6.9 C 0 km/h
319 31-05-2014 02:30:00 6.9 C 7.08 g/m*3 6.9 C 0 km/h
320 31-05-2014 02:35:00 6.8 C 7.11 g/m*3 6.8 C 0 km/h
321 31-05-2014 02:40:00 6.8 C 7.11 g/m*3 6.8 C 0 km/h
322 31-05-2014 02:45:00 6.7 C 7.07 g/m*3 6.7 C 1.6 km/h
323 31-05-2014 02:50:00 6.7 C 7.07 g/m*3 6.7 C 1.6 km/h
324 31-05-2014 02:55:00 6.7 C 7.07 g/m*3 6.7 C 0 km/h
325 31-05-2014 03:00:00 6.7 C 7.07 g/m*3 6.7 C 0 km/h
Sensor: Nr:Datum:Temp:Abs-Feuchte:Windchill:Wind:
Aussen-T/F 326 31-05-2014 03:05:00 6.6 C 7.02 g/m*3 6.6 C 0 km/h
327 31-05-2014 03:10:00 6.6 C 7.02 g/m*3 6.6 C 0 km/h
328 31-05-2014 03:15:00 6.6 C 7.02 g/m*3 6.6 C 0 km/h
329 31-05-2014 03:20:00 6.5 C 6.97 g/m*3 6.5 C 0 km/h
330 31-05-2014 03:25:00 6.4 C 7 g/m*3 6.4 C 0 km/h
331 31-05-2014 03:30:00 6.4 C 7 g/m*3 6.4 C 0 km/h
332 31-05-2014 03:35:00 6.4 C 7 g/m*3 6.4 C 0 km/h
333 31-05-2014 03:40:00 6.3 C 6.96 g/m*3 6.3 C 0 km/h
334 31-05-2014 03:45:00 6.3 C 6.96 g/m*3 6.3 C 0 km/h
335 31-05-2014 03:50:00 6.3 C 6.96 g/m*3 6.3 C 0 km/h
336 31-05-2014 03:55:00 6.2 C 6.91 g/m*3 6.2 C 0 km/h
337 31-05-2014 04:00:00 6.2 C 6.91 g/m*3 6.2 C 1.6 km/h
338 31-05-2014 04:05:00 6.1 C 6.87 g/m*3 6.1 C 0 km/h
339 31-05-2014 04:10:00 6.1 C 6.87 g/m*3 6.1 C 0 km/h
340 31-05-2014 04:15:00 6.1 C 6.87 g/m*3 6.1 C 0 km/h
341 31-05-2014 04:20:00 6 C 6.82 g/m*3 6 C 0 km/h
342 31-05-2014 04:25:00 6 C 6.82 g/m*3 6 C 0 km/h
343 31-05-2014 04:30:00 6 C 6.9 g/m*3 6 C 0 km/h
344 31-05-2014 04:35:00 6 C 6.9 g/m*3 6 C 0 km/h
345 31-05-2014 04:40:00 5.9 C 6.85 g/m*3 5.9 C 0 km/h
346 31-05-2014 04:45:00 5.9 C 6.85 g/m*3 5.9 C 0 km/h
347 31-05-2014 04:50:00 5.8 C 6.81 g/m*3 5.8 C 0 km/h
348 31-05-2014 04:55:00 5.8 C 6.81 g/m*3 5.8 C 0 km/h
349 31-05-2014 05:00:00 5.8 C 6.81 g/m*3 5.8 C 1.6 km/h
350 31-05-2014 05:05:00 5.8 C 6.81 g/m*3 5.8 C 0 km/h
Sensor: Nr:Datum:Temp:Abs-Feuchte:Windchill:Wind:
Aussen-T/F 351 31-05-2014 05:10:00 5.7 C 6.76 g/m*3 5.7 C 0 km/h
352 31-05-2014 05:15:00 5.7 C 6.76 g/m*3 5.7 C 0 km/h
353 31-05-2014 05:20:00 5.6 C 6.72 g/m*3 5.6 C 0 km/h
354 31-05-2014 05:25:00 5.5 C 6.67 g/m*3 5.5 C 0 km/h
355 31-05-2014 05:30:00 5.4 C 6.63 g/m*3 5.4 C 0 km/h
356 31-05-2014 05:35:00 5.4 C 6.63 g/m*3 5.4 C 0 km/h
357 31-05-2014 05:40:00 5.4 C 6.63 g/m*3 5.4 C 0 km/h
358 31-05-2014 05:45:00 5.4 C 6.63 g/m*3 5.4 C 0 km/h
359 31-05-2014 05:50:00 5.4 C 6.63 g/m*3 5.4 C 0 km/h
360 31-05-2014 05:55:00 5.3 C 6.58 g/m*3 5.3 C 0 km/h
361 31-05-2014 06:00:00 5.3 C 6.58 g/m*3 5.3 C 0 km/h
362 31-05-2014 06:05:00 5.3 C 6.58 g/m*3 5.3 C 0 km/h
363 31-05-2014 06:10:00 5.4 C 6.63 g/m*3 5.4 C 0 km/h
364 31-05-2014 06:15:00 5.4 C 6.63 g/m*3 5.4 C 1.6 km/h
365 31-05-2014 06:20:00 5.5 C 6.74 g/m*3 5.5 C 3.2 km/h
366 31-05-2014 06:25:00 5.5 C 6.74 g/m*3 5.5 C 4.8 km/h
367 31-05-2014 06:30:00 5.6 C 6.79 g/m*3 5.6 C 3.2 km/h
368 31-05-2014 06:35:00 5.6 C 6.79 g/m*3 5.6 C 4.8 km/h
369 31-05-2014 06:40:00 5.7 C 6.83 g/m*3 5.7 C 3.2 km/h
370 31-05-2014 06:45:00 5.7 C 6.83 g/m*3 5.7 C 3.2 km/h
371 31-05-2014 06:50:00 5.7 C 6.83 g/m*3 5.7 C 3.2 km/h
372 31-05-2014 06:55:00 5.7 C 6.83 g/m*3 5.7 C 3.2 km/h
373 31-05-2014 07:00:00 5.8 C 6.88 g/m*3 5.8 C 4.8 km/h
374 31-05-2014 07:05:00 5.8 C 6.88 g/m*3 5.8 C 3.2 km/h
375 31-05-2014 07:10:00 5.8 C 6.88 g/m*3 5.8 C 3.2 km/h
Sensor: Nr:Datum:Temp:Abs-Feuchte:Windchill:Wind:
Aussen-T/F 376 31-05-2014 07:15:00 5.9 C 6.92 g/m*3 5.9 C 3.2 km/h
377 31-05-2014 07:20:00 6 C 6.97 g/m*3 6 C 1.6 km/h
378 31-05-2014 07:25:00 6.1 C 7.01 g/m*3 6.1 C 3.2 km/h
379 31-05-2014 07:30:00 6.1 C 7.01 g/m*3 6.1 C 3.2 km/h
380 31-05-2014 07:35:00 6.3 C 7.11 g/m*3 6.3 C 0 km/h
381 31-05-2014 07:40:00 6.4 C 7.15 g/m*3 6.4 C 1.6 km/h
382 31-05-2014 07:45:00 6.6 C 7.25 g/m*3 6.6 C 1.6 km/h
383 31-05-2014 07:50:00 6.7 C 7.29 g/m*3 6.7 C 0 km/h
384 31-05-2014 07:55:00 7 C 7.44 g/m*3 7 C 0 km/h
385 31-05-2014 08:00:00 7.3 C 7.58 g/m*3 7.3 C 0 km/h
386 31-05-2014 08:05:00 7.5 C 7.6 g/m*3 7.5 C 0 km/h
387 31-05-2014 08:10:00 7.8 C 7.67 g/m*3 7.8 C 0 km/h
388 31-05-2014 08:15:00 8.1 C 7.82 g/m*3 8.1 C 0 km/h
389 31-05-2014 08:20:00 8.4 C 7.8 g/m*3 8.4 C 0 km/h
390 31-05-2014 08:25:00 8.6 C 7.91 g/m*3 8.6 C 0 km/h
391 31-05-2014 08:30:00 8.8 C 7.83 g/m*3 8.8 C 0 km/h
392 31-05-2014 08:35:00 8.9 C 7.88 g/m*3 8.9 C 0 km/h
393 31-05-2014 08:40:00 9.1 C 7.99 g/m*3 9.1 C 0 km/h
394 31-05-2014 08:45:00 9.3 C 8.09 g/m*3 9.3 C 0 km/h
395 31-05-2014 08:50:00 9.5 C 8.19 g/m*3 9.5 C 0 km/h
396 31-05-2014 08:55:00 9.8 C 8.26 g/m*3 9.8 C 0 km/h
397 31-05-2014 09:00:00 10.1 C 8.32 g/m*3 10.1 C 0 km/h
398 31-05-2014 09:05:00 10.3 C 8.33 g/m*3 10.3 C 1.6 km/h
399 31-05-2014 09:10:00 10.5 C 8.44 g/m*3 10.5 C 0 km/h
400 31-05-2014 09:15:00 10.3 C 8.33 g/m*3 10.3 C 0 km/h
Sensor: Nr:Datum:Temp:Abs-Feuchte:Windchill:Wind:
Aussen-T/F 401 31-05-2014 09:20:00 10.2 C 8.37 g/m*3 10.2 C 0 km/h
402 31-05-2014 09:25:00 10.2 C 8.47 g/m*3 10.2 C 0 km/h
403 31-05-2014 09:30:00 10.2 C 8.56 g/m*3 10.2 C 0 km/h
404 31-05-2014 09:35:00 10.2 C 8.56 g/m*3 10.2 C 0 km/h
405 31-05-2014 09:40:00 10.3 C 8.62 g/m*3 10.3 C 0 km/h
406 31-05-2014 09:45:00 10.4 C 8.58 g/m*3 10.4 C 0 km/h
407 31-05-2014 09:50:00 10.7 C 8.74 g/m*3 10.7 C 0 km/h
408 31-05-2014 09:55:00 11.2 C 8.92 g/m*3 11.2 C 1.6 km/h
409 31-05-2014 10:00:00 11.9 C 9.11 g/m*3 11.9 C 0 km/h
410 31-05-2014 10:05:00 12.5 C 9.24 g/m*3 12.5 C 0 km/h
411 31-05-2014 10:10:00 12.9 C 9.24 g/m*3 12.9 C 0 km/h
412 31-05-2014 10:15:00 13.2 C 9.42 g/m*3 13.2 C 0 km/h
413 31-05-2014 10:20:00 13.7 C 9.59 g/m*3 13.7 C 0 km/h
414 31-05-2014 10:25:00 13.9 C 9.59 g/m*3 13.9 C 0 km/h
415 31-05-2014 10:30:00 14.1 C 9.95 g/m*3 14.1 C 0 km/h
416 31-05-2014 10:35:00 14.2 C 9.77 g/m*3 14.2 C 1.6 km/h
417 31-05-2014 10:40:00 14.5 C 9.58 g/m*3 14.5 C 0 km/h
418 31-05-2014 10:45:00 14.8 C 9.37 g/m*3 14.8 C 1.6 km/h
419 31-05-2014 10:50:00 15.3 C 9.92 g/m*3 15.3 C 0 km/h
420 31-05-2014 10:55:00 15.6 C 10.24 g/m*3 15.6 C 0 km/h
421 31-05-2014 11:00:00 15.9 C 9.34 g/m*3 15.9 C 1.6 km/h
422 31-05-2014 11:05:00 16.3 C 9.71 g/m*3 16.3 C 4.8 km/h
423 31-05-2014 11:10:00 16.9 C 10.07 g/m*3 16.9 C 6.4 km/h
424 31-05-2014 11:15:00 17.3 C 10.16 g/m*3 17.3 C 4.8 km/h
425 31-05-2014 11:20:00 17.6 C 9.9 g/m*3 17.6 C 3.2 km/h
Sensor: Nr:Datum:Temp:Abs-Feuchte:Windchill:Wind:
Aussen-T/F 426 31-05-2014 11:25:00 17.6 C 10.05 g/m*3 17.6 C 1.6 km/h
427 31-05-2014 11:30:00 17.7 C 9.66 g/m*3 17.7 C 6.4 km/h
428 31-05-2014 11:35:00 17.9 C 10.54 g/m*3 17.9 C 1.6 km/h
429 31-05-2014 11:40:00 18 C 10.44 g/m*3 18 C 3.2 km/h
430 31-05-2014 11:45:00 18.3 C 9.69 g/m*3 18.3 C 3.2 km/h
431 31-05-2014 11:50:00 18.7 C 9.45 g/m*3 18.7 C 8.1 km/h
432 31-05-2014 11:55:00 18.8 C 9.82 g/m*3 18.8 C 4.8 km/h
433 31-05-2014 12:00:00 19.2 C 9.56 g/m*3 19.2 C 8.1 km/h
434 31-05-2014 12:05:00 19.6 C 9.62 g/m*3 19.6 C 4.8 km/h
435 31-05-2014 12:10:00 19.7 C 8.83 g/m*3 19.7 C 9.7 km/h
436 31-05-2014 12:15:00 19.6 C 9.12 g/m*3 19.6 C 8.1 km/h
437 31-05-2014 12:20:00 19.3 C 8.79 g/m*3 19.3 C 3.2 km/h
438 31-05-2014 12:25:00 18.9 C 8.91 g/m*3 18.9 C 8.1 km/h
439 31-05-2014 12:30:00 18.8 C 8.54 g/m*3 18.8 C 6.4 km/h
440 31-05-2014 12:35:00 18.8 C 8.54 g/m*3 18.8 C 4.8 km/h
441 31-05-2014 12:40:00 18.9 C 8.75 g/m*3 18.9 C 9.7 km/h
442 31-05-2014 12:45:00 18.7 C 8.81 g/m*3 18.7 C 8.1 km/h
443 31-05-2014 12:50:00 18.6 C 8.59 g/m*3 18.6 C 8.1 km/h
444 31-05-2014 12:55:00 18.8 C 9.02 g/m*3 18.8 C 9.7 km/h
445 31-05-2014 13:00:00 19.2 C 9.07 g/m*3 19.2 C 6.4 km/h
446 31-05-2014 13:05:00 19.4 C 8.84 g/m*3 19.4 C 9.7 km/h
447 31-05-2014 13:10:00 19.4 C 8.51 g/m*3 19.4 C 8.1 km/h
448 31-05-2014 13:15:00 19.4 C 8.84 g/m*3 19.4 C 4.8 km/h
449 31-05-2014 13:20:00 19.7 C 8.49 g/m*3 19.7 C 4.8 km/h
450 31-05-2014 13:25:00 19.9 C 8.59 g/m*3 19.9 C 3.2 km/h
Sensor: Nr:Datum:Temp:Abs-Feuchte:Windchill:Wind:
Aussen-T/F 451 31-05-2014 13:30:00 20.2 C 9.09 g/m*3 20.2 C 4.8 km/h
452 31-05-2014 13:35:00 20.4 C 9.38 g/m*3 20.4 C 6.4 km/h
453 31-05-2014 13:40:00 20.7 C 9.36 g/m*3 20.7 C 9.7 km/h
454 31-05-2014 13:45:00 20.8 C 8.51 g/m*3 20.8 C 6.4 km/h
455 31-05-2014 13:50:00 21.1 C 9.4 g/m*3 21.1 C 6.4 km/h
456 31-05-2014 13:55:00 20.8 C 7.97 g/m*3 20.8 C 3.2 km/h
457 31-05-2014 14:00:00 20.5 C 8.19 g/m*3 20.5 C 6.4 km/h
458 31-05-2014 14:05:00 20.1 C 8.17 g/m*3 20.1 C 9.7 km/h
459 31-05-2014 14:10:00 19.8 C 8.37 g/m*3 19.8 C 6.4 km/h
460 31-05-2014 14:15:00 19.6 C 8.27 g/m*3 19.6 C 6.4 km/h
461 31-05-2014 14:20:00 19.4 C 8.34 g/m*3 19.4 C 6.4 km/h
462 31-05-2014 14:25:00 19.3 C 8.29 g/m*3 19.3 C 3.2 km/h
463 31-05-2014 14:30:00 19.3 C 8.63 g/m*3 19.3 C 3.2 km/h
464 31-05-2014 14:35:00 19.3 C 8.13 g/m*3 19.3 C 3.2 km/h
465 31-05-2014 14:40:00 19.3 C 7.8 g/m*3 19.3 C 4.8 km/h
466 31-05-2014 14:45:00 19.7 C 8.49 g/m*3 19.7 C 6.4 km/h
467 31-05-2014 14:50:00 20.4 C 8.67 g/m*3 20.4 C 4.8 km/h
468 31-05-2014 14:55:00 21 C 8.24 g/m*3 21 C 6.4 km/h
469 31-05-2014 15:00:00 21.3 C 8.02 g/m*3 21.3 C 4.8 km/h
470 31-05-2014 15:05:00 21.1 C 7.92 g/m*3 21.1 C 4.8 km/h
471 31-05-2014 15:10:00 20.8 C 8.15 g/m*3 20.8 C 3.2 km/h
472 31-05-2014 15:15:00 20.6 C 8.23 g/m*3 20.6 C 4.8 km/h
473 31-05-2014 15:20:00 20.5 C 8.19 g/m*3 20.5 C 6.4 km/h
474 31-05-2014 15:25:00 20.3 C 8.27 g/m*3 20.3 C 6.4 km/h
475 31-05-2014 15:30:00 20.2 C 9.27 g/m*3 20.2 C 4.8 km/h
Sensor: Nr:Datum:Temp:Abs-Feuchte:Windchill:Wind:
Aussen-T/F 476 31-05-2014 15:35:00 19.7 C 10.19 g/m*3 19.7 C 0 km/h
477 31-05-2014 15:40:00 19.7 C 10.02 g/m*3 19.7 C 0 km/h
478 31-05-2014 15:45:00 20.3 C 8.62 g/m*3 20.3 C 1.6 km/h
479 31-05-2014 15:50:00 20.7 C 7.56 g/m*3 20.7 C 4.8 km/h
480 31-05-2014 15:55:00 20.6 C 10.2 g/m*3 20.6 C 4.8 km/h
481 31-05-2014 16:00:00 20.3 C 8.09 g/m*3 20.3 C 8.1 km/h
482 31-05-2014 16:05:00 20.3 C 8.44 g/m*3 20.3 C 1.6 km/h
483 31-05-2014 16:10:00 20.3 C 8.62 g/m*3 20.3 C 6.4 km/h
484 31-05-2014 16:15:00 20.3 C 9.5 g/m*3 20.3 C 4.8 km/h
485 31-05-2014 16:20:00 19.7 C 9.68 g/m*3 19.7 C 1.6 km/h
486 31-05-2014 16:25:00 19.2 C 9.89 g/m*3 19.2 C 3.2 km/h
487 31-05-2014 16:30:00 18.9 C 8.42 g/m*3 18.9 C 4.8 km/h
488 31-05-2014 16:35:00 19.1 C 8.52 g/m*3 19.1 C 6.4 km/h
489 31-05-2014 16:40:00 19.3 C 9.12 g/m*3 19.3 C 4.8 km/h
490 31-05-2014 16:45:00 18.8 C 10.47 g/m*3 18.8 C 0 km/h
491 31-05-2014 16:50:00 18.4 C 9.75 g/m*3 18.4 C 1.6 km/h
492 31-05-2014 16:55:00 18.2 C 10.57 g/m*3 18.2 C 0 km/h
493 31-05-2014 17:00:00 18 C 10.75 g/m*3 18 C 0 km/h
494 31-05-2014 17:05:00 17.9 C 10.38 g/m*3 17.9 C 0 km/h
495 31-05-2014 17:10:00 18.4 C 10.54 g/m*3 18.4 C 3.2 km/h
496 31-05-2014 17:15:00 19.9 C 9.11 g/m*3 19.9 C 11.3 km/h
497 31-05-2014 17:20:00 20.9 C 9.11 g/m*3 20.9 C 8.1 km/h
498 31-05-2014 17:25:00 21.2 C 8.71 g/m*3 21.2 C 8.1 km/h
499 31-05-2014 17:30:00 20.9 C 8.38 g/m*3 20.9 C 4.8 km/h
500 31-05-2014 17:35:00 20.8 C 8.33 g/m*3 20.8 C 9.7 km/h
Sensor: Nr:Datum:Temp:Abs-Feuchte:Windchill:Wind:
Aussen-T/F 501 31-05-2014 17:40:00 20.8 C 8.51 g/m*3 20.8 C 9.7 km/h
502 31-05-2014 17:45:00 20.8 C 8.69 g/m*3 20.8 C 4.8 km/h
503 31-05-2014 17:50:00 20.7 C 8.64 g/m*3 20.7 C 4.8 km/h
504 31-05-2014 17:55:00 20.4 C 8.49 g/m*3 20.4 C 8.1 km/h
505 31-05-2014 18:00:00 20.3 C 8.97 g/m*3 20.3 C 4.8 km/h
506 31-05-2014 18:05:00 20.2 C 8.92 g/m*3 20.2 C 4.8 km/h
507 31-05-2014 18:10:00 20.2 C 8.39 g/m*3 20.2 C 6.4 km/h
508 31-05-2014 18:15:00 20.2 C 8.39 g/m*3 20.2 C 6.4 km/h
509 31-05-2014 18:20:00 20.4 C 8.67 g/m*3 20.4 C 4.8 km/h
510 31-05-2014 18:25:00 21 C 8.61 g/m*3 21 C 4.8 km/h
511 31-05-2014 18:30:00 21.6 C 8.16 g/m*3 21.6 C 4.8 km/h
512 31-05-2014 18:35:00 21.7 C 8.39 g/m*3 21.7 C 4.8 km/h
513 31-05-2014 18:40:00 21.4 C 10.31 g/m*3 21.4 C 3.2 km/h
514 31-05-2014 18:45:00 21.4 C 8.44 g/m*3 21.4 C 6.4 km/h
515 31-05-2014 18:50:00 21.7 C 8.01 g/m*3 21.7 C 6.4 km/h
516 31-05-2014 18:55:00 21.9 C 8.3 g/m*3 21.9 C 6.4 km/h
517 31-05-2014 19:00:00 22.1 C 8.59 g/m*3 22.1 C 11.3 km/h
518 31-05-2014 19:05:00 22 C 8.73 g/m*3 22 C 9.7 km/h
519 31-05-2014 19:10:00 21.8 C 8.25 g/m*3 21.8 C 9.7 km/h
520 31-05-2014 19:15:00 21.7 C 8.58 g/m*3 21.7 C 6.4 km/h
521 31-05-2014 19:20:00 21.5 C 8.3 g/m*3 21.5 C 6.4 km/h
522 31-05-2014 19:25:00 21.3 C 8.2 g/m*3 21.3 C 6.4 km/h
523 31-05-2014 19:30:00 21 C 8.24 g/m*3 21 C 4.8 km/h
524 31-05-2014 19:35:00 20.6 C 7.87 g/m*3 20.6 C 8.1 km/h
525 31-05-2014 19:40:00 20.4 C 7.96 g/m*3 20.4 C 9.7 km/h
Sensor: Nr:Datum:Temp:Abs-Feuchte:Windchill:Wind:
Aussen-T/F 526 31-05-2014 19:45:00 20.2 C 7.87 g/m*3 20.2 C 4.8 km/h
527 31-05-2014 19:50:00 20.1 C 7.82 g/m*3 20.1 C 4.8 km/h
528 31-05-2014 19:55:00 19.9 C 8.08 g/m*3 19.9 C 1.6 km/h
529 31-05-2014 20:00:00 19.7 C 9.85 g/m*3 19.7 C 0 km/h
530 31-05-2014 20:05:00 18.9 C 10.37 g/m*3 18.9 C 0 km/h
531 31-05-2014 20:10:00 18.2 C 10.41 g/m*3 18.2 C 0 km/h
532 31-05-2014 20:15:00 17.7 C 10.26 g/m*3 17.7 C 0 km/h
533 31-05-2014 20:20:00 17.3 C 10.16 g/m*3 17.3 C 0 km/h
534 31-05-2014 20:25:00 16.9 C 10.07 g/m*3 16.9 C 0 km/h
535 31-05-2014 20:30:00 16.7 C 10.37 g/m*3 16.7 C 0 km/h
536 31-05-2014 20:35:00 16.4 C 10.19 g/m*3 16.4 C 1.6 km/h
537 31-05-2014 20:40:00 16.2 C 10.07 g/m*3 16.2 C 1.6 km/h
538 31-05-2014 20:45:00 16 C 10.08 g/m*3 16 C 0 km/h
539 31-05-2014 20:50:00 15.8 C 9.96 g/m*3 15.8 C 0 km/h
540 31-05-2014 20:55:00 15.6 C 9.97 g/m*3 15.6 C 0 km/h
541 31-05-2014 21:00:00 15.3 C 9.79 g/m*3 15.3 C 0 km/h
542 31-05-2014 21:05:00 15.2 C 9.73 g/m*3 15.2 C 0 km/h
543 31-05-2014 21:10:00 15 C 9.75 g/m*3 15 C 1.6 km/h
544 31-05-2014 21:15:00 14.8 C 9.63 g/m*3 14.8 C 1.6 km/h
545 31-05-2014 21:20:00 14.7 C 9.57 g/m*3 14.7 C 1.6 km/h
546 31-05-2014 21:25:00 14.4 C 9.64 g/m*3 14.4 C 0 km/h
547 31-05-2014 21:30:00 14.3 C 9.58 g/m*3 14.3 C 1.6 km/h
548 31-05-2014 21:35:00 14.2 C 9.52 g/m*3 14.2 C 1.6 km/h
549 31-05-2014 21:40:00 14.1 C 9.59 g/m*3 14.1 C 1.6 km/h
550 31-05-2014 21:45:00 13.9 C 9.47 g/m*3 13.9 C 0 km/h
Sensor: Nr:Datum:Temp:Abs-Feuchte:Windchill:Wind:
Aussen-T/F 551 31-05-2014 21:50:00 13.8 C 9.41 g/m*3 13.8 C 0 km/h
552 31-05-2014 21:55:00 13.8 C 9.29 g/m*3 13.8 C 0 km/h
553 31-05-2014 22:00:00 13.7 C 9.35 g/m*3 13.7 C 0 km/h
554 31-05-2014 22:05:00 13.7 C 9.35 g/m*3 13.7 C 0 km/h
555 31-05-2014 22:10:00 13.6 C 9.18 g/m*3 13.6 C 0 km/h
556 31-05-2014 22:15:00 13.6 C 9.3 g/m*3 13.6 C 0 km/h
557 31-05-2014 22:20:00 13.6 C 9.3 g/m*3 13.6 C 0 km/h
558 31-05-2014 22:25:00 13.5 C 9.36 g/m*3 13.5 C 0 km/h
559 31-05-2014 22:30:00 13.5 C 9.24 g/m*3 13.5 C 0 km/h
560 31-05-2014 22:35:00 13.5 C 9.36 g/m*3 13.5 C 0 km/h
561 31-05-2014 22:40:00 13.4 C 9.42 g/m*3 13.4 C 0 km/h
562 31-05-2014 22:45:00 13.4 C 9.53 g/m*3 13.4 C 0 km/h
563 31-05-2014 22:50:00 13.4 C 9.3 g/m*3 13.4 C 0 km/h
564 31-05-2014 22:55:00 13.4 C 9.18 g/m*3 13.4 C 0 km/h
565 31-05-2014 23:00:00 13.4 C 9.18 g/m*3 13.4 C 0 km/h
566 31-05-2014 23:05:00 13.4 C 9.18 g/m*3 13.4 C 0 km/h
567 31-05-2014 23:10:00 13.3 C 9.13 g/m*3 13.3 C 0 km/h
568 31-05-2014 23:15:00 13.3 C 9.13 g/m*3 13.3 C 0 km/h
569 31-05-2014 23:20:00 13.3 C 9.24 g/m*3 13.3 C 0 km/h
570 31-05-2014 23:25:00 13.3 C 9.24 g/m*3 13.3 C 0 km/h
571 31-05-2014 23:30:00 13.2 C 9.3 g/m*3 13.2 C 0 km/h
572 31-05-2014 23:35:00 13.1 C 9.36 g/m*3 13.1 C 0 km/h
573 31-05-2014 23:40:00 13 C 9.19 g/m*3 13 C 0 km/h
574 31-05-2014 23:45:00 12.9 C 9.13 g/m*3 12.9 C 0 km/h
575 31-05-2014 23:50:00 12.8 C 9.07 g/m*3 12.8 C 0 km/h
Sensor: Nr:Datum:Temp:Abs-Feuchte:Windchill:Wind:
Aussen-T/F 576 31-05-2014 23:55:00 12.7 C 9.13 g/m*3 12.7 C 0 km/h
577 01-06-2014 00:00:00 12.6 C 8.96 g/m*3 12.6 C 0 km/h
578 01-06-2014 00:05:00 12.4 C 8.96 g/m*3 12.4 C 0 km/h
579 01-06-2014 00:10:00 12.4 C 8.96 g/m*3 12.4 C 0 km/h
580 01-06-2014 00:15:00 12.4 C 8.96 g/m*3 12.4 C 0 km/h
581 01-06-2014 00:20:00 12.4 C 9.07 g/m*3 12.4 C 0 km/h
582 01-06-2014 00:25:00 12.3 C 8.9 g/m*3 12.3 C 0 km/h
583 01-06-2014 00:30:00 12.4 C 9.07 g/m*3 12.4 C 0 km/h
584 01-06-2014 00:35:00 12.4 C 9.07 g/m*3 12.4 C 0 km/h
585 01-06-2014 00:40:00 12.4 C 9.07 g/m*3 12.4 C 0 km/h
586 01-06-2014 00:45:00 12.4 C 9.07 g/m*3 12.4 C 0 km/h
587 01-06-2014 00:50:00 12.4 C 8.96 g/m*3 12.4 C 0 km/h
588 01-06-2014 00:55:00 12.3 C 8.9 g/m*3 12.3 C 0 km/h
589 01-06-2014 01:00:00 12.3 C 8.9 g/m*3 12.3 C 3.2 km/h
590 01-06-2014 01:05:00 12.3 C 8.9 g/m*3 12.3 C 0 km/h
591 01-06-2014 01:10:00 12.2 C 8.96 g/m*3 12.2 C 0 km/h
592 01-06-2014 01:15:00 12.2 C 8.96 g/m*3 12.2 C 0 km/h
593 01-06-2014 01:20:00 12.2 C 8.96 g/m*3 12.2 C 0 km/h
594 01-06-2014 01:25:00 12.3 C 9.01 g/m*3 12.3 C 0 km/h
595 01-06-2014 01:30:00 12.3 C 9.01 g/m*3 12.3 C 0 km/h
596 01-06-2014 01:35:00 12.3 C 9.01 g/m*3 12.3 C 0 km/h
597 01-06-2014 01:40:00 12.2 C 8.96 g/m*3 12.2 C 0 km/h
598 01-06-2014 01:45:00 12.1 C 9.01 g/m*3 12.1 C 0 km/h
599 01-06-2014 01:50:00 12.1 C 9.01 g/m*3 12.1 C 0 km/h
600 01-06-2014 01:55:00 12 C 8.85 g/m*3 12 C 0 km/h
Sensor: Nr:Datum:Temp:Abs-Feuchte:Windchill:Wind:
Aussen-T/F 601 01-06-2014 02:00:00 11.9 C 8.9 g/m*3 11.9 C 1.6 km/h
602 01-06-2014 02:05:00 11.8 C 8.84 g/m*3 11.8 C 0 km/h
603 01-06-2014 02:10:00 11.8 C 8.84 g/m*3 11.8 C 0 km/h
604 01-06-2014 02:15:00 11.7 C 8.79 g/m*3 11.7 C 0 km/h
605 01-06-2014 02:20:00 11.6 C 8.83 g/m*3 11.6 C 0 km/h
606 01-06-2014 02:25:00 11.5 C 8.78 g/m*3 11.5 C 0 km/h
607 01-06-2014 02:30:00 11.4 C 8.72 g/m*3 11.4 C 0 km/h
608 01-06-2014 02:35:00 11.3 C 8.67 g/m*3 11.3 C 0 km/h
609 01-06-2014 02:40:00 11.3 C 8.67 g/m*3 11.3 C 0 km/h
610 01-06-2014 02:45:00 11.2 C 8.62 g/m*3 11.2 C 0 km/h
611 01-06-2014 02:50:00 11.1 C 8.56 g/m*3 11.1 C 0 km/h
612 01-06-2014 02:55:00 11 C 8.51 g/m*3 11 C 0 km/h
613 01-06-2014 03:00:00 10.9 C 8.45 g/m*3 10.9 C 0 km/h
614 01-06-2014 03:05:00 10.8 C 8.5 g/m*3 10.8 C 0 km/h
615 01-06-2014 03:10:00 10.6 C 8.49 g/m*3 10.6 C 0 km/h
616 01-06-2014 03:15:00 10.5 C 8.34 g/m*3 10.5 C 0 km/h
617 01-06-2014 03:20:00 10.4 C 8.38 g/m*3 10.4 C 0 km/h
618 01-06-2014 03:25:00 10.3 C 8.33 g/m*3 10.3 C 0 km/h
619 01-06-2014 03:30:00 10.3 C 8.43 g/m*3 10.3 C 0 km/h
620 01-06-2014 03:35:00 10.3 C 8.43 g/m*3 10.3 C 0 km/h
621 01-06-2014 03:40:00 10.3 C 8.43 g/m*3 10.3 C 1.6 km/h
622 01-06-2014 03:45:00 10.4 C 8.48 g/m*3 10.4 C 1.6 km/h
623 01-06-2014 03:50:00 10.4 C 8.48 g/m*3 10.4 C 0 km/h
624 01-06-2014 03:55:00 10.4 C 8.48 g/m*3 10.4 C 0 km/h
625 01-06-2014 04:00:00 10.4 C 8.48 g/m*3 10.4 C 0 km/h
Sensor: Nr:Datum:Temp:Abs-Feuchte:Windchill:Wind:
Aussen-T/F 626 01-06-2014 04:05:00 10.3 C 8.43 g/m*3 10.3 C 0 km/h
627 01-06-2014 04:10:00 10.3 C 8.52 g/m*3 10.3 C 0 km/h
628 01-06-2014 04:15:00 10.2 C 8.47 g/m*3 10.2 C 0 km/h
629 01-06-2014 04:20:00 10.2 C 8.47 g/m*3 10.2 C 0 km/h
630 01-06-2014 04:25:00 10.2 C 8.47 g/m*3 10.2 C 0 km/h
631 01-06-2014 04:30:00 10.2 C 8.47 g/m*3 10.2 C 0 km/h
632 01-06-2014 04:35:00 10.2 C 8.56 g/m*3 10.2 C 0 km/h
633 01-06-2014 04:40:00 10.2 C 8.56 g/m*3 10.2 C 0 km/h
634 01-06-2014 04:45:00 10.2 C 8.56 g/m*3 10.2 C 0 km/h
635 01-06-2014 04:50:00 10.2 C 8.56 g/m*3 10.2 C 0 km/h
636 01-06-2014 04:55:00 10.3 C 8.62 g/m*3 10.3 C 0 km/h
637 01-06-2014 05:00:00 10.3 C 8.62 g/m*3 10.3 C 0 km/h
638 01-06-2014 05:05:00 10.3 C 8.62 g/m*3 10.3 C 0 km/h
639 01-06-2014 05:10:00 10.3 C 8.62 g/m*3 10.3 C 0 km/h
640 01-06-2014 05:15:00 10.2 C 8.56 g/m*3 10.2 C 0 km/h
641 01-06-2014 05:20:00 10.2 C 8.56 g/m*3 10.2 C 0 km/h
642 01-06-2014 05:25:00 10.3 C 8.71 g/m*3 10.3 C 0 km/h
643 01-06-2014 05:30:00 10.3 C 8.71 g/m*3 10.3 C 0 km/h
644 01-06-2014 05:35:00 10.3 C 8.71 g/m*3 10.3 C 0 km/h
645 01-06-2014 05:40:00 10.6 C 8.78 g/m*3 10.6 C 1.6 km/h
646 01-06-2014 05:45:00 10.7 C 8.84 g/m*3 10.7 C 1.6 km/h
647 01-06-2014 05:50:00 10.8 C 8.8 g/m*3 10.8 C 0 km/h
648 01-06-2014 05:55:00 10.9 C 8.85 g/m*3 10.9 C 0 km/h
649 01-06-2014 06:00:00 11.1 C 8.96 g/m*3 11.1 C 1.6 km/h
650 01-06-2014 06:05:00 11.2 C 8.92 g/m*3 11.2 C 1.6 km/h
Sensor: Nr:Datum:Temp:Abs-Feuchte:Windchill:Wind:
Aussen-T/F 651 01-06-2014 06:10:00 11.2 C 8.92 g/m*3 11.2 C 0 km/h
652 01-06-2014 06:15:00 11.3 C 8.98 g/m*3 11.3 C 1.6 km/h
653 01-06-2014 06:20:00 11.4 C 8.83 g/m*3 11.4 C 6.4 km/h
654 01-06-2014 06:25:00 11.4 C 8.83 g/m*3 11.4 C 0 km/h
655 01-06-2014 06:30:00 11.6 C 8.94 g/m*3 11.6 C 3.2 km/h
656 01-06-2014 06:35:00 11.6 C 8.73 g/m*3 11.6 C 0 km/h
657 01-06-2014 06:40:00 11.7 C 8.79 g/m*3 11.7 C 3.2 km/h
658 01-06-2014 06:45:00 11.8 C 8.84 g/m*3 11.8 C 1.6 km/h
659 01-06-2014 06:50:00 11.8 C 8.74 g/m*3 11.8 C 0 km/h
660 01-06-2014 06:55:00 11.8 C 8.84 g/m*3 11.8 C 3.2 km/h
661 01-06-2014 07:00:00 11.8 C 8.84 g/m*3 11.8 C 4.8 km/h
662 01-06-2014 07:05:00 11.8 C 8.74 g/m*3 11.8 C 1.6 km/h
663 01-06-2014 07:10:00 11.9 C 8.9 g/m*3 11.9 C 0 km/h
664 01-06-2014 07:15:00 11.9 C 8.9 g/m*3 11.9 C 0 km/h
665 01-06-2014 07:20:00 12 C 8.85 g/m*3 12 C 0 km/h
666 01-06-2014 07:25:00 12.1 C 8.9 g/m*3 12.1 C 0 km/h
667 01-06-2014 07:30:00 12.2 C 9.06 g/m*3 12.2 C 0 km/h
668 01-06-2014 07:35:00 12.3 C 9.12 g/m*3 12.3 C 6.4 km/h
669 01-06-2014 07:40:00 12.3 C 9.01 g/m*3 12.3 C 1.6 km/h
670 01-06-2014 07:45:00 12.4 C 8.96 g/m*3 12.4 C 1.6 km/h
671 01-06-2014 07:50:00 12.4 C 8.96 g/m*3 12.4 C 0 km/h
672 01-06-2014 07:55:00 12.4 C 8.96 g/m*3 12.4 C 1.6 km/h
673 01-06-2014 08:00:00 12.4 C 8.85 g/m*3 12.4 C 1.6 km/h
674 01-06-2014 08:05:00 12.6 C 9.07 g/m*3 12.6 C 0 km/h
675 01-06-2014 08:10:00 12.8 C 9.18 g/m*3 12.8 C 3.2 km/h
Sensor: Nr:Datum:Temp:Abs-Feuchte:Windchill:Wind:
Aussen-T/F 676 01-06-2014 08:15:00 12.9 C 9.13 g/m*3 12.9 C 3.2 km/h
677 01-06-2014 08:20:00 12.9 C 9.02 g/m*3 12.9 C 3.2 km/h
678 01-06-2014 08:25:00 13 C 9.3 g/m*3 13 C 0 km/h
679 01-06-2014 08:30:00 13.1 C 9.24 g/m*3 13.1 C 3.2 km/h
680 01-06-2014 08:35:00 13.2 C 9.19 g/m*3 13.2 C 0 km/h
681 01-06-2014 08:40:00 13.2 C 9.19 g/m*3 13.2 C 0 km/h
682 01-06-2014 08:45:00 13.2 C 9.19 g/m*3 13.2 C 1.6 km/h
683 01-06-2014 08:50:00 13.3 C 9.36 g/m*3 13.3 C 0 km/h
684 01-06-2014 08:55:00 13.5 C 9.47 g/m*3 13.5 C 1.6 km/h
685 01-06-2014 09:00:00 13.7 C 9.47 g/m*3 13.7 C 3.2 km/h
686 01-06-2014 09:05:00 13.7 C 9.47 g/m*3 13.7 C 3.2 km/h
687 01-06-2014 09:10:00 13.7 C 9.47 g/m*3 13.7 C 1.6 km/h
688 01-06-2014 09:15:00 13.7 C 9.47 g/m*3 13.7 C 3.2 km/h
689 01-06-2014 09:20:00 13.7 C 9.47 g/m*3 13.7 C 1.6 km/h
690 01-06-2014 09:25:00 14.1 C 9.59 g/m*3 14.1 C 3.2 km/h
691 01-06-2014 09:30:00 14.1 C 9.47 g/m*3 14.1 C 3.2 km/h
692 01-06-2014 09:35:00 14 C 9.29 g/m*3 14 C 3.2 km/h
693 01-06-2014 09:40:00 14.1 C 9.47 g/m*3 14.1 C 1.6 km/h
694 01-06-2014 09:45:00 14.2 C 9.65 g/m*3 14.2 C 3.2 km/h
695 01-06-2014 09:50:00 14.4 C 9.77 g/m*3 14.4 C 1.6 km/h
696 01-06-2014 09:55:00 14.7 C 9.57 g/m*3 14.7 C 3.2 km/h
697 01-06-2014 10:00:00 15.1 C 9.8 g/m*3 15.1 C 3.2 km/h
698 01-06-2014 10:05:00 15.5 C 9.78 g/m*3 15.5 C 3.2 km/h
699 01-06-2014 10:10:00 15.9 C 9.62 g/m*3 15.9 C 4.8 km/h
700 01-06-2014 10:15:00 16.1 C 9.6 g/m*3 16.1 C 4.8 km/h
Sensor: Nr:Datum:Temp:Abs-Feuchte:Windchill:Wind:
Aussen-T/F 701 01-06-2014 10:20:00 16.3 C 9.85 g/m*3 16.3 C 1.6 km/h
702 01-06-2014 10:25:00 16.4 C 9.63 g/m*3 16.4 C 3.2 km/h
703 01-06-2014 10:30:00 16.5 C 9.55 g/m*3 16.5 C 4.8 km/h
704 01-06-2014 10:35:00 16.5 C 9.69 g/m*3 16.5 C 4.8 km/h
705 01-06-2014 10:40:00 16.7 C 9.52 g/m*3 16.7 C 4.8 km/h
706 01-06-2014 10:45:00 16.9 C 9.78 g/m*3 16.9 C 8.1 km/h
707 01-06-2014 10:50:00 17.1 C 9.61 g/m*3 17.1 C 4.8 km/h
708 01-06-2014 10:55:00 17.3 C 9.87 g/m*3 17.3 C 6.4 km/h
709 01-06-2014 11:00:00 17.4 C 9.19 g/m*3 17.4 C 9.7 km/h
710 01-06-2014 11:05:00 17.6 C 9.6 g/m*3 17.6 C 9.7 km/h
711 01-06-2014 11:10:00 17.8 C 9.71 g/m*3 17.8 C 6.4 km/h
712 01-06-2014 11:15:00 18.1 C 9.58 g/m*3 18.1 C 4.8 km/h
713 01-06-2014 11:20:00 18.2 C 9.33 g/m*3 18.2 C 9.7 km/h
714 01-06-2014 11:25:00 18.3 C 9.07 g/m*3 18.3 C 8.1 km/h
715 01-06-2014 11:30:00 18.3 C 9.85 g/m*3 18.3 C 8.1 km/h
716 01-06-2014 11:35:00 18.4 C 9.44 g/m*3 18.4 C 9.7 km/h
717 01-06-2014 11:40:00 18.4 C 9.91 g/m*3 18.4 C 4.8 km/h
718 01-06-2014 11:45:00 18.6 C 9.71 g/m*3 18.6 C 4.8 km/h
719 01-06-2014 11:50:00 18.8 C 9.34 g/m*3 18.8 C 8.1 km/h
720 01-06-2014 11:55:00 19.1 C 9.84 g/m*3 19.1 C 4.8 km/h
721 01-06-2014 12:00:00 19.2 C 9.56 g/m*3 19.2 C 9.7 km/h
722 01-06-2014 12:05:00 19.2 C 9.73 g/m*3 19.2 C 8.1 km/h
723 01-06-2014 12:10:00 19.4 C 9.84 g/m*3 19.4 C 11.3 km/h
724 01-06-2014 12:15:00 19.6 C 9.62 g/m*3 19.6 C 6.4 km/h
725 01-06-2014 12:20:00 19.7 C 10.19 g/m*3 19.7 C 6.4 km/h
Sensor: Nr:Datum:Temp:Abs-Feuchte:Windchill:Wind:
Aussen-T/F 726 01-06-2014 12:25:00 19.9 C 8.93 g/m*3 19.9 C 9.7 km/h
727 01-06-2014 12:30:00 19.7 C 9.51 g/m*3 19.7 C 8.1 km/h
728 01-06-2014 12:35:00 20 C 9.51 g/m*3 20 C 4.8 km/h
729 01-06-2014 12:40:00 20.3 C 9.5 g/m*3 20.3 C 11.3 km/h
730 01-06-2014 12:45:00 20.3 C 9.15 g/m*3 20.3 C 8.1 km/h
731 01-06-2014 12:50:00 20.4 C 9.73 g/m*3 20.4 C 11.3 km/h
732 01-06-2014 12:55:00 20.7 C 9.18 g/m*3 20.7 C 4.8 km/h
733 01-06-2014 13:00:00 20.6 C 9.13 g/m*3 20.6 C 11.3 km/h
734 01-06-2014 13:05:00 20.4 C 9.2 g/m*3 20.4 C 9.7 km/h
735 01-06-2014 13:10:00 20.5 C 9.43 g/m*3 20.5 C 6.4 km/h
736 01-06-2014 13:15:00 20.6 C 9.13 g/m*3 20.6 C 8.1 km/h
737 01-06-2014 13:20:00 20.7 C 9.36 g/m*3 20.7 C 8.1 km/h
738 01-06-2014 13:25:00 20.6 C 9.84 g/m*3 20.6 C 8.1 km/h
739 01-06-2014 13:30:00 20.8 C 8.87 g/m*3 20.8 C 8.1 km/h
740 01-06-2014 13:35:00 21.1 C 10.32 g/m*3 21.1 C 8.1 km/h
741 01-06-2014 13:40:00 21.1 C 9.21 g/m*3 21.1 C 3.2 km/h
742 01-06-2014 13:45:00 21.1 C 9.03 g/m*3 21.1 C 14.5 km/h
743 01-06-2014 13:50:00 20.9 C 9.29 g/m*3 20.9 C 8.1 km/h
744 01-06-2014 13:55:00 20.7 C 9.36 g/m*3 20.7 C 9.7 km/h
745 01-06-2014 14:00:00 20.4 C 9.02 g/m*3 20.4 C 11.3 km/h
746 01-06-2014 14:05:00 20.1 C 8.87 g/m*3 20.1 C 8.1 km/h
747 01-06-2014 14:10:00 19.8 C 8.71 g/m*3 19.8 C 8.1 km/h
748 01-06-2014 14:15:00 19.8 C 8.71 g/m*3 19.8 C 11.3 km/h
749 01-06-2014 14:55:00 21.7 C 8.58 g/m*3 21.7 C 12.9 km/h
750 01-06-2014 15:00:00 21.7 C 8.58 g/m*3 21.7 C 12.9 km/h
Sensor: Nr:Datum:Temp:Abs-Feuchte:Windchill:Wind:
Aussen-T/F 751 01-06-2014 15:05:00 21.7 C 8.58 g/m*3 21.7 C 14.5 km/h
752 01-06-2014 15:25:00 22.1 C 8.98 g/m*3 22.1 C 8.1 km/h
753 01-06-2014 15:30:00 22.2 C 9.23 g/m*3 22.2 C 12.9 km/h
754 01-06-2014 15:35:00 22.3 C 9.28 g/m*3 22.3 C 9.7 km/h
755 01-06-2014 15:40:00 22.4 C 8.94 g/m*3 22.4 C 12.9 km/h
756 01-06-2014 15:45:00 22.3 C 8.69 g/m*3 22.3 C 11.3 km/h
757 01-06-2014 15:50:00 21.7 C 8.77 g/m*3 21.7 C 11.3 km/h
758 01-06-2014 15:55:00 21.2 C 8.71 g/m*3 21.2 C 11.3 km/h
759 01-06-2014 16:00:00 21 C 8.61 g/m*3 21 C 12.9 km/h
760 01-06-2014 16:05:00 21 C 8.98 g/m*3 21 C 9.7 km/h
761 01-06-2014 16:10:00 21 C 8.98 g/m*3 21 C 12.9 km/h
762 01-06-2014 16:30:00 20.9 C 8.74 g/m*3 20.9 C 12.9 km/h
763 01-06-2014 16:35:00 20.9 C 9.11 g/m*3 20.9 C 8.1 km/h
764 01-06-2014 16:40:00 21.1 C 8.84 g/m*3 21.1 C 11.3 km/h
765 01-06-2014 16:45:00 21.1 C 8.66 g/m*3 21.1 C 8.1 km/h
766 01-06-2014 16:50:00 20.9 C 8.92 g/m*3 20.9 C 11.3 km/h
767 01-06-2014 16:55:00 20.8 C 8.33 g/m*3 20.8 C 9.7 km/h
768 01-06-2014 17:00:00 20.4 C 8.49 g/m*3 20.4 C 11.3 km/h
769 01-06-2014 17:05:00 20.2 C 8.22 g/m*3 20.2 C 9.7 km/h
770 01-06-2014 17:10:00 20 C 8.47 g/m*3 20 C 11.3 km/h
771 01-06-2014 17:15:00 19.9 C 8.76 g/m*3 19.9 C 8.1 km/h
772 01-06-2014 17:20:00 19.9 C 8.59 g/m*3 19.9 C 8.1 km/h
773 01-06-2014 17:25:00 20 C 8.64 g/m*3 20 C 8.1 km/h
774 01-06-2014 17:30:00 20.4 C 8.85 g/m*3 20.4 C 6.4 km/h
775 01-06-2014 17:35:00 20.5 C 8.72 g/m*3 20.5 C 11.3 km/h
Sensor: Nr:Datum:Temp:Abs-Feuchte:Windchill:Wind:
Aussen-T/F 776 01-06-2014 17:40:00 20.6 C 8.41 g/m*3 20.6 C 11.3 km/h
777 01-06-2014 17:45:00 20.6 C 8.59 g/m*3 20.6 C 9.7 km/h
778 01-06-2014 17:50:00 20.3 C 8.27 g/m*3 20.3 C 14.5 km/h
779 01-06-2014 17:55:00 20.1 C 8 g/m*3 20.1 C 12.9 km/h
780 01-06-2014 18:00:00 19.9 C 8.25 g/m*3 19.9 C 6.4 km/h
781 01-06-2014 18:05:00 19.6 C 8.1 g/m*3 19.6 C 11.3 km/h
782 01-06-2014 18:10:00 19.6 C 8.44 g/m*3 19.6 C 6.4 km/h
783 01-06-2014 18:15:00 19.4 C 8.18 g/m*3 19.4 C 8.1 km/h
784 01-06-2014 18:20:00 19.3 C 8.13 g/m*3 19.3 C 9.7 km/h
785 01-06-2014 18:25:00 19.4 C 8.51 g/m*3 19.4 C 8.1 km/h
786 01-06-2014 18:30:00 19.4 C 8.01 g/m*3 19.4 C 8.1 km/h
787 01-06-2014 18:35:00 19.4 C 7.84 g/m*3 19.4 C 9.7 km/h
788 01-06-2014 18:40:00 19.4 C 8.01 g/m*3 19.4 C 8.1 km/h
789 01-06-2014 18:45:00 19.3 C 8.13 g/m*3 19.3 C 9.7 km/h
790 01-06-2014 18:50:00 19.2 C 8.08 g/m*3 19.2 C 9.7 km/h
791 01-06-2014 18:55:00 19.2 C 8.08 g/m*3 19.2 C 6.4 km/h
792 01-06-2014 19:00:00 19.3 C 8.13 g/m*3 19.3 C 6.4 km/h
793 01-06-2014 19:05:00 19.4 C 8.01 g/m*3 19.4 C 9.7 km/h
794 01-06-2014 19:10:00 19.3 C 7.96 g/m*3 19.3 C 6.4 km/h
795 01-06-2014 19:15:00 19.1 C 7.7 g/m*3 19.1 C 4.8 km/h
796 01-06-2014 19:20:00 19 C 8.15 g/m*3 19 C 4.8 km/h
797 01-06-2014 19:25:00 19 C 8.31 g/m*3 19 C 8.1 km/h
798 01-06-2014 19:30:00 19.1 C 8.2 g/m*3 19.1 C 6.4 km/h
799 01-06-2014 19:35:00 19.1 C 8.2 g/m*3 19.1 C 8.1 km/h
800 01-06-2014 19:40:00 19.2 C 8.24 g/m*3 19.2 C 8.1 km/h
Sensor: Nr:Datum:Temp:Abs-Feuchte:Windchill:Wind:
Aussen-T/F 801 01-06-2014 19:45:00 19 C 8.15 g/m*3 19 C 8.1 km/h
802 01-06-2014 19:50:00 18.9 C 8.1 g/m*3 18.9 C 6.4 km/h
803 01-06-2014 19:55:00 18.8 C 8.21 g/m*3 18.8 C 4.8 km/h
804 01-06-2014 20:00:00 18.7 C 8.01 g/m*3 18.7 C 4.8 km/h
805 01-06-2014 20:05:00 18.6 C 8.12 g/m*3 18.6 C 6.4 km/h
806 01-06-2014 20:10:00 18.5 C 8.07 g/m*3 18.5 C 1.6 km/h
807 01-06-2014 20:15:00 18.3 C 7.97 g/m*3 18.3 C 3.2 km/h
808 01-06-2014 20:20:00 18.2 C 7.93 g/m*3 18.2 C 4.8 km/h
809 01-06-2014 20:25:00 18.1 C 8.03 g/m*3 18.1 C 3.2 km/h
810 01-06-2014 20:30:00 18 C 8.45 g/m*3 18 C 0 km/h
811 01-06-2014 20:35:00 17.8 C 9.26 g/m*3 17.8 C 0 km/h
812 01-06-2014 20:40:00 17.4 C 9.34 g/m*3 17.4 C 0 km/h
813 01-06-2014 20:45:00 17 C 9.12 g/m*3 17 C 0 km/h
814 01-06-2014 20:50:00 16.7 C 9.24 g/m*3 16.7 C 0 km/h
815 01-06-2014 20:55:00 16.4 C 8.93 g/m*3 16.4 C 0 km/h
816 01-06-2014 21:00:00 16.3 C 9.02 g/m*3 16.3 C 0 km/h
817 01-06-2014 21:05:00 16.2 C 9.38 g/m*3 16.2 C 0 km/h
818 01-06-2014 21:10:00 16 C 9.4 g/m*3 16 C 0 km/h
819 01-06-2014 21:15:00 15.9 C 9.62 g/m*3 15.9 C 0 km/h
820 01-06-2014 21:20:00 15.8 C 9.83 g/m*3 15.8 C 0 km/h
821 01-06-2014 21:25:00 15.7 C 9.63 g/m*3 15.7 C 0 km/h
822 01-06-2014 21:30:00 15.6 C 9.58 g/m*3 15.6 C 0 km/h
823 01-06-2014 21:35:00 15.5 C 9.39 g/m*3 15.5 C 0 km/h
824 01-06-2014 21:40:00 15.4 C 9.2 g/m*3 15.4 C 0 km/h
825 01-06-2014 21:45:00 15.3 C 9.4 g/m*3 15.3 C 0 km/h
Sensor: Nr:Datum:Temp:Abs-Feuchte:Windchill:Wind:
Aussen-T/F 826 01-06-2014 21:50:00 15.3 C 9.53 g/m*3 15.3 C 0 km/h
827 01-06-2014 21:55:00 15.3 C 9.53 g/m*3 15.3 C 1.6 km/h
828 01-06-2014 22:00:00 15.3 C 9.4 g/m*3 15.3 C 1.6 km/h
829 01-06-2014 22:05:00 15.6 C 9.31 g/m*3 15.6 C 1.6 km/h
830 01-06-2014 22:10:00 15.6 C 9.44 g/m*3 15.6 C 1.6 km/h
831 01-06-2014 22:15:00 15.4 C 9.33 g/m*3 15.4 C 0 km/h
832 01-06-2014 22:20:00 15.2 C 9.35 g/m*3 15.2 C 0 km/h
833 01-06-2014 22:25:00 15.1 C 9.42 g/m*3 15.1 C 0 km/h
834 01-06-2014 22:30:00 14.9 C 9.3 g/m*3 14.9 C 0 km/h
835 01-06-2014 22:35:00 14.8 C 9.37 g/m*3 14.8 C 0 km/h
836 01-06-2014 22:40:00 14.7 C 9.44 g/m*3 14.7 C 0 km/h
837 01-06-2014 22:45:00 14.6 C 9.26 g/m*3 14.6 C 0 km/h
838 01-06-2014 22:50:00 14.6 C 9.26 g/m*3 14.6 C 0 km/h
839 01-06-2014 22:55:00 14.6 C 9.26 g/m*3 14.6 C 0 km/h
840 01-06-2014 23:00:00 14.5 C 9.2 g/m*3 14.5 C 0 km/h
841 01-06-2014 23:05:00 14.4 C 9.27 g/m*3 14.4 C 0 km/h
842 01-06-2014 23:10:00 14.3 C 9.09 g/m*3 14.3 C 0 km/h
843 01-06-2014 23:15:00 14.2 C 8.91 g/m*3 14.2 C 0 km/h
844 01-06-2014 23:20:00 14 C 8.68 g/m*3 14 C 0 km/h
845 01-06-2014 23:25:00 13.9 C 8.75 g/m*3 13.9 C 0 km/h
846 01-06-2014 23:30:00 13.8 C 8.94 g/m*3 13.8 C 0 km/h
847 01-06-2014 23:35:00 13.8 C 9.06 g/m*3 13.8 C 1.6 km/h
848 01-06-2014 23:40:00 13.7 C 9 g/m*3 13.7 C 1.6 km/h
849 01-06-2014 23:45:00 13.7 C 9.24 g/m*3 13.7 C 1.6 km/h
850 01-06-2014 23:50:00 13.7 C 9 g/m*3 13.7 C 0 km/h
Sensor: Nr:Datum:Temp:Abs-Feuchte:Windchill:Wind:
Aussen-T/F 851 01-06-2014 23:55:00 13.8 C 9.06 g/m*3 13.8 C 0 km/h
852 02-06-2014 00:00:00 13.7 C 9.24 g/m*3 13.7 C 0 km/h
853 02-06-2014 00:05:00 13.7 C 9.24 g/m*3 13.7 C 0 km/h
854 02-06-2014 00:10:00 13.6 C 8.94 g/m*3 13.6 C 0 km/h
855 02-06-2014 00:15:00 13.6 C 9.06 g/m*3 13.6 C 0 km/h
856 02-06-2014 00:20:00 13.5 C 9.01 g/m*3 13.5 C 0 km/h
857 02-06-2014 00:25:00 13.5 C 9.01 g/m*3 13.5 C 0 km/h
858 02-06-2014 00:30:00 13.4 C 8.83 g/m*3 13.4 C 0 km/h
859 02-06-2014 00:35:00 13.4 C 8.95 g/m*3 13.4 C 0 km/h
860 02-06-2014 00:40:00 13.3 C 8.9 g/m*3 13.3 C 0 km/h
861 02-06-2014 00:45:00 13.3 C 9.01 g/m*3 13.3 C 0 km/h
862 02-06-2014 00:50:00 13.2 C 8.84 g/m*3 13.2 C 0 km/h
863 02-06-2014 00:55:00 13.2 C 9.07 g/m*3 13.2 C 0 km/h
864 02-06-2014 01:00:00 13.1 C 8.9 g/m*3 13.1 C 0 km/h
865 02-06-2014 01:05:00 13.1 C 8.9 g/m*3 13.1 C 0 km/h
866 02-06-2014 01:10:00 13.1 C 9.01 g/m*3 13.1 C 0 km/h
867 02-06-2014 01:15:00 13.1 C 8.56 g/m*3 13.1 C 0 km/h
868 02-06-2014 01:20:00 13.2 C 8.73 g/m*3 13.2 C 1.6 km/h
869 02-06-2014 01:25:00 13.2 C 8.73 g/m*3 13.2 C 1.6 km/h
870 02-06-2014 01:30:00 13.3 C 9.01 g/m*3 13.3 C 0 km/h
871 02-06-2014 01:35:00 13.2 C 8.84 g/m*3 13.2 C 0 km/h
872 02-06-2014 01:40:00 13.1 C 8.79 g/m*3 13.1 C 0 km/h
873 02-06-2014 01:45:00 12.9 C 8.9 g/m*3 12.9 C 0 km/h
874 02-06-2014 01:50:00 12.7 C 8.68 g/m*3 12.7 C 0 km/h
875 02-06-2014 01:55:00 12.3 C 8.47 g/m*3 12.3 C 0 km/h
Sensor: Nr:Datum:Temp:Abs-Feuchte:Windchill:Wind:
Aussen-T/F 876 02-06-2014 02:00:00 12.2 C 8.52 g/m*3 12.2 C 1.6 km/h
877 02-06-2014 02:05:00 12.1 C 8.47 g/m*3 12.1 C 0 km/h
878 02-06-2014 02:10:00 12 C 8.42 g/m*3 12 C 0 km/h
879 02-06-2014 02:15:00 11.9 C 8.37 g/m*3 11.9 C 0 km/h
880 02-06-2014 02:20:00 11.8 C 8.42 g/m*3 11.8 C 0 km/h
881 02-06-2014 02:25:00 11.7 C 8.47 g/m*3 11.7 C 0 km/h
882 02-06-2014 02:30:00 11.6 C 8.42 g/m*3 11.6 C 0 km/h
883 02-06-2014 02:35:00 11.4 C 8.31 g/m*3 11.4 C 0 km/h
884 02-06-2014 02:40:00 11.3 C 8.36 g/m*3 11.3 C 0 km/h
885 02-06-2014 02:45:00 11.2 C 8.21 g/m*3 11.2 C 0 km/h
886 02-06-2014 02:50:00 11.1 C 8.26 g/m*3 11.1 C 0 km/h
887 02-06-2014 02:55:00 10.9 C 8.26 g/m*3 10.9 C 0 km/h
888 02-06-2014 03:00:00 10.8 C 8.2 g/m*3 10.8 C 0 km/h
889 02-06-2014 03:05:00 10.7 C 8.25 g/m*3 10.7 C 0 km/h
890 02-06-2014 03:10:00 10.6 C 8.2 g/m*3 10.6 C 0 km/h
891 02-06-2014 03:15:00 10.5 C 8.15 g/m*3 10.5 C 0 km/h
892 02-06-2014 03:20:00 10.4 C 8.19 g/m*3 10.4 C 0 km/h
893 02-06-2014 03:25:00 10.3 C 8.14 g/m*3 10.3 C 0 km/h
894 02-06-2014 03:30:00 10.2 C 8.18 g/m*3 10.2 C 0 km/h
895 02-06-2014 03:35:00 10.1 C 8.13 g/m*3 10.1 C 0 km/h
896 02-06-2014 03:40:00 10.1 C 8.13 g/m*3 10.1 C 0 km/h
897 02-06-2014 03:45:00 10 C 8.08 g/m*3 10 C 0 km/h
898 02-06-2014 03:50:00 9.9 C 8.12 g/m*3 9.9 C 0 km/h
899 02-06-2014 03:55:00 9.8 C 8.07 g/m*3 9.8 C 0 km/h
900 02-06-2014 04:00:00 9.7 C 8.02 g/m*3 9.7 C 0 km/h
Sensor: Nr:Datum:Temp:Abs-Feuchte:Windchill:Wind:
Aussen-T/F 901 02-06-2014 04:05:00 9.7 C 8.02 g/m*3 9.7 C 0 km/h
902 02-06-2014 04:10:00 9.6 C 8.06 g/m*3 9.6 C 0 km/h
903 02-06-2014 04:15:00 9.5 C 8.01 g/m*3 9.5 C 0 km/h
904 02-06-2014 04:20:00 9.4 C 8.05 g/m*3 9.4 C 0 km/h
905 02-06-2014 04:25:00 9.4 C 8.05 g/m*3 9.4 C 0 km/h
906 02-06-2014 04:30:00 9.3 C 8 g/m*3 9.3 C 0 km/h
907 02-06-2014 04:35:00 9.3 C 8 g/m*3 9.3 C 0 km/h
908 02-06-2014 04:40:00 9.2 C 8.04 g/m*3 9.2 C 0 km/h
909 02-06-2014 04:45:00 9.2 C 8.04 g/m*3 9.2 C 0 km/h
910 02-06-2014 04:50:00 9.1 C 7.9 g/m*3 9.1 C 0 km/h
911 02-06-2014 04:55:00 9.1 C 7.99 g/m*3 9.1 C 0 km/h
912 02-06-2014 05:00:00 9.1 C 7.99 g/m*3 9.1 C 0 km/h
913 02-06-2014 05:05:00 8.9 C 7.88 g/m*3 8.9 C 0 km/h
914 02-06-2014 05:10:00 8.9 C 7.88 g/m*3 8.9 C 0 km/h
915 02-06-2014 05:15:00 8.8 C 7.92 g/m*3 8.8 C 0 km/h
916 02-06-2014 05:20:00 8.8 C 7.92 g/m*3 8.8 C 0 km/h
917 02-06-2014 05:25:00 8.8 C 7.92 g/m*3 8.8 C 0 km/h
918 02-06-2014 05:30:00 8.7 C 7.87 g/m*3 8.7 C 0 km/h
919 02-06-2014 05:35:00 8.7 C 7.96 g/m*3 8.7 C 0 km/h
920 02-06-2014 05:40:00 8.7 C 7.96 g/m*3 8.7 C 0 km/h
921 02-06-2014 05:45:00 8.7 C 7.96 g/m*3 8.7 C 0 km/h
922 02-06-2014 05:50:00 8.7 C 7.96 g/m*3 8.7 C 0 km/h
923 02-06-2014 05:55:00 8.7 C 7.96 g/m*3 8.7 C 0 km/h
924 02-06-2014 06:00:00 8.7 C 7.96 g/m*3 8.7 C 0 km/h
925 02-06-2014 06:05:00 8.7 C 7.96 g/m*3 8.7 C 0 km/h
Sensor: Nr:Datum:Temp:Abs-Feuchte:Windchill:Wind:
Aussen-T/F 926 02-06-2014 06:10:00 8.7 C 7.96 g/m*3 8.7 C 0 km/h
927 02-06-2014 06:15:00 8.7 C 7.96 g/m*3 8.7 C 0 km/h
928 02-06-2014 06:20:00 8.7 C 7.96 g/m*3 8.7 C 1.6 km/h
929 02-06-2014 06:25:00 8.8 C 8.01 g/m*3 8.8 C 0 km/h
930 02-06-2014 06:30:00 8.8 C 8.09 g/m*3 8.8 C 0 km/h
931 02-06-2014 06:35:00 8.8 C 8.09 g/m*3 8.8 C 0 km/h
932 02-06-2014 06:40:00 8.8 C 8.09 g/m*3 8.8 C 0 km/h
933 02-06-2014 06:45:00 8.9 C 8.15 g/m*3 8.9 C 1.6 km/h
934 02-06-2014 06:50:00 8.9 C 8.15 g/m*3 8.9 C 0 km/h
935 02-06-2014 06:55:00 9 C 8.11 g/m*3 9 C 0 km/h
936 02-06-2014 07:00:00 9.1 C 8.16 g/m*3 9.1 C 0 km/h
937 02-06-2014 07:05:00 9.2 C 8.3 g/m*3 9.2 C 3.2 km/h
938 02-06-2014 07:10:00 9.4 C 8.32 g/m*3 8.68 C 6.4 km/h
939 02-06-2014 07:15:00 9.5 C 8.28 g/m*3 9.5 C 4.8 km/h
940 02-06-2014 07:20:00 9.6 C 8.34 g/m*3 9.6 C 1.6 km/h
941 02-06-2014 07:25:00 9.7 C 8.3 g/m*3 9.7 C 3.2 km/h
942 02-06-2014 07:30:00 9.8 C 8.35 g/m*3 9.8 C 4.8 km/h
943 02-06-2014 07:35:00 9.8 C 8.26 g/m*3 9.8 C 0 km/h
944 02-06-2014 07:40:00 9.9 C 8.31 g/m*3 9.9 C 0 km/h
945 02-06-2014 07:45:00 9.9 C 8.4 g/m*3 9.9 C 3.2 km/h
946 02-06-2014 07:50:00 10.2 C 8.56 g/m*3 10.2 C 0 km/h
947 02-06-2014 07:55:00 10.4 C 8.67 g/m*3 10.4 C 0 km/h
948 02-06-2014 08:00:00 10.7 C 8.74 g/m*3 10.7 C 0 km/h
949 02-06-2014 08:05:00 11.1 C 8.96 g/m*3 11.1 C 0 km/h
950 02-06-2014 08:10:00 11.2 C 8.92 g/m*3 11.2 C 0 km/h
Sensor: Nr:Datum:Temp:Abs-Feuchte:Windchill:Wind:
Aussen-T/F 951 02-06-2014 08:15:00 11.4 C 9.03 g/m*3 11.4 C 0 km/h
952 02-06-2014 08:20:00 11.6 C 8.94 g/m*3 11.6 C 0 km/h
953 02-06-2014 08:25:00 11.8 C 9.05 g/m*3 11.8 C 0 km/h
954 02-06-2014 08:30:00 11.9 C 9 g/m*3 11.9 C 0 km/h
955 02-06-2014 08:35:00 11.9 C 9 g/m*3 11.9 C 0 km/h
956 02-06-2014 08:40:00 11.9 C 9 g/m*3 11.9 C 0 km/h
957 02-06-2014 09:15:00 14.2 C 12.21 g/m*3 14.2 C 0 km/h
958 02-06-2014 09:20:00 14.2 C 9.65 g/m*3 14.2 C 0 km/h
959 02-06-2014 09:25:00 14.1 C 9.34 g/m*3 14.1 C 0 km/h
960 02-06-2014 09:30:00 14.1 C 9.47 g/m*3 14.1 C 0 km/h
961 02-06-2014 09:35:00 14.2 C 9.52 g/m*3 14.2 C 3.2 km/h
962 02-06-2014 09:40:00 14.5 C 9.7 g/m*3 14.5 C 3.2 km/h
963 02-06-2014 09:45:00 14.7 C 9.44 g/m*3 14.7 C 1.6 km/h
964 02-06-2014 09:50:00 14.8 C 9.5 g/m*3 14.8 C 1.6 km/h
965 02-06-2014 09:55:00 14.9 C 9.43 g/m*3 14.9 C 3.2 km/h
966 02-06-2014 10:00:00 15.2 C 9.73 g/m*3 15.2 C 4.8 km/h
967 02-06-2014 10:05:00 15.2 C 9.73 g/m*3 15.2 C 3.2 km/h
968 02-06-2014 10:10:00 15.5 C 9.52 g/m*3 15.5 C 1.6 km/h
969 02-06-2014 10:15:00 15.6 C 9.31 g/m*3 15.6 C 3.2 km/h
970 02-06-2014 10:20:00 15.7 C 9.77 g/m*3 15.7 C 3.2 km/h
971 02-06-2014 10:25:00 15.9 C 9.34 g/m*3 15.9 C 1.6 km/h
972 02-06-2014 10:30:00 16 C 9.95 g/m*3 16 C 1.6 km/h
973 02-06-2014 10:35:00 16.1 C 9.87 g/m*3 16.1 C 3.2 km/h
974 02-06-2014 10:40:00 16.1 C 9.87 g/m*3 16.1 C 3.2 km/h
975 02-06-2014 12:25:00 20.8 C 9.05 g/m*3 20.8 C 4.8 km/h
Sensor: Nr:Datum:Temp:Abs-Feuchte:Windchill:Wind:
Aussen-T/F 976 02-06-2014 12:30:00 20.8 C 9.05 g/m*3 20.8 C 8.1 km/h
977 02-06-2014 12:35:00 20.8 C 9.05 g/m*3 20.8 C 9.7 km/h
978 02-06-2014 13:25:00 20.9 C 8.92 g/m*3 20.9 C 3.2 km/h
979 02-06-2014 13:30:00 20.8 C 8.87 g/m*3 20.8 C 6.4 km/h
980 02-06-2014 13:35:00 20.8 C 8.87 g/m*3 20.8 C 6.4 km/h
981 02-06-2014 13:40:00 21.2 C 8.71 g/m*3 21.2 C 9.7 km/h
982 02-06-2014 13:45:00 21.2 C 8.71 g/m*3 21.2 C 8.1 km/h
983 02-06-2014 13:50:00 21.3 C 8.39 g/m*3 21.3 C 3.2 km/h
984 02-06-2014 13:55:00 21.3 C 9.13 g/m*3 21.3 C 9.7 km/h
985 02-06-2014 14:00:00 21.3 C 9.13 g/m*3 21.3 C 9.7 km/h
986 02-06-2014 14:05:00 21.3 C 9.13 g/m*3 21.3 C 9.7 km/h
987 02-06-2014 14:10:00 21.4 C 9.19 g/m*3 21.4 C 8.1 km/h
988 02-06-2014 14:15:00 21.4 C 9.56 g/m*3 21.4 C 3.2 km/h
989 02-06-2014 14:20:00 21.7 C 8.97 g/m*3 21.7 C 4.8 km/h
990 02-06-2014 14:25:00 21.8 C 9.59 g/m*3 21.8 C 9.7 km/h
991 02-06-2014 14:30:00 22.2 C 9.03 g/m*3 22.2 C 9.7 km/h
992 02-06-2014 14:35:00 22 C 8.73 g/m*3 22 C 6.4 km/h
993 02-06-2014 14:40:00 21.9 C 8.68 g/m*3 21.9 C 4.8 km/h
994 02-06-2014 14:45:00 22.2 C 9.03 g/m*3 22.2 C 6.4 km/h
995 02-06-2014 14:50:00 22.4 C 8.94 g/m*3 22.4 C 11.3 km/h
996 02-06-2014 14:55:00 22.6 C 8.84 g/m*3 22.6 C 4.8 km/h
997 02-06-2014 15:00:00 22.7 C 8.89 g/m*3 22.7 C 12.9 km/h
998 02-06-2014 15:05:00 22.6 C 8.64 g/m*3 22.6 C 12.9 km/h
999 02-06-2014 15:10:00 22.1 C 8.39 g/m*3 22.1 C 6.4 km/h
1000 02-06-2014 15:15:00 21.9 C 8.68 g/m*3 21.9 C 6.4 km/h
Sensor: Nr:Datum:Temp:Abs-Feuchte:Windchill:Wind:
Aussen-T/F 1001 02-06-2014 15:20:00 22.1 C 8.78 g/m*3 22.1 C 6.4 km/h
1002 02-06-2014 15:25:00 22.3 C 8.69 g/m*3 22.3 C 6.4 km/h
1003 02-06-2014 15:30:00 22.6 C 8.84 g/m*3 22.6 C 6.4 km/h
1004 02-06-2014 15:35:00 22.6 C 8.84 g/m*3 22.6 C 4.8 km/h
1005 02-06-2014 15:40:00 22.7 C 8.69 g/m*3 22.7 C 4.8 km/h
1006 02-06-2014 15:45:00 22.8 C 9.14 g/m*3 22.8 C 4.8 km/h
1007 02-06-2014 15:50:00 23.2 C 8.52 g/m*3 23.2 C 1.6 km/h
1008 02-06-2014 15:55:00 23.2 C 8.11 g/m*3 23.2 C 4.8 km/h
1009 02-06-2014 16:00:00 22.5 C 8.59 g/m*3 22.5 C 1.6 km/h
1010 02-06-2014 16:05:00 22.1 C 8.2 g/m*3 22.1 C 4.8 km/h
1011 02-06-2014 16:10:00 21.8 C 8.06 g/m*3 21.8 C 8.1 km/h
1012 02-06-2014 16:15:00 21.8 C 8.06 g/m*3 21.8 C 6.4 km/h
1013 02-06-2014 16:20:00 22.5 C 8.99 g/m*3 22.5 C 8.1 km/h
1014 02-06-2014 16:25:00 23.1 C 8.68 g/m*3 23.1 C 9.7 km/h
1015 02-06-2014 16:30:00 23.2 C 8.52 g/m*3 23.2 C 9.7 km/h
1016 02-06-2014 16:35:00 23.4 C 9.46 g/m*3 23.4 C 9.7 km/h
1017 02-06-2014 16:40:00 23.8 C 8.6 g/m*3 23.8 C 6.4 km/h
1018 02-06-2014 16:45:00 23.6 C 8.72 g/m*3 23.6 C 6.4 km/h
1019 02-06-2014 16:50:00 23.7 C 8.77 g/m*3 23.7 C 6.4 km/h
1020 02-06-2014 16:55:00 23.6 C 8.29 g/m*3 23.6 C 8.1 km/h
1021 02-06-2014 17:00:00 23.4 C 8.83 g/m*3 23.4 C 6.4 km/h
1022 02-06-2014 17:05:00 23.6 C 8.93 g/m*3 23.6 C 11.3 km/h
1023 02-06-2014 17:10:00 23.8 C 8.39 g/m*3 23.8 C 8.1 km/h
1024 02-06-2014 17:15:00 23.7 C 8.13 g/m*3 23.7 C 11.3 km/h
1025 02-06-2014 17:20:00 23.7 C 8.56 g/m*3 23.7 C 8.1 km/h
Sensor: Nr:Datum:Temp:Abs-Feuchte:Windchill:Wind:
Aussen-T/F 1026 02-06-2014 17:25:00 23.7 C 8.56 g/m*3 23.7 C 8.1 km/h
1027 02-06-2014 17:30:00 23.8 C 8.82 g/m*3 23.8 C 11.3 km/h
1028 02-06-2014 17:35:00 23.8 C 8.82 g/m*3 23.8 C 6.4 km/h
1029 02-06-2014 17:40:00 23.8 C 8.39 g/m*3 23.8 C 4.8 km/h
1030 02-06-2014 17:45:00 24 C 8.27 g/m*3 24 C 8.1 km/h
1031 02-06-2014 17:50:00 24 C 8.27 g/m*3 24 C 6.4 km/h
1032 02-06-2014 18:30:00 23.7 C 8.56 g/m*3 23.7 C 6.4 km/h
1033 02-06-2014 18:35:00 23.6 C 8.93 g/m*3 23.6 C 9.7 km/h
1034 02-06-2014 18:40:00 23.6 C 8.29 g/m*3 23.6 C 8.1 km/h
1035 02-06-2014 18:45:00 23.7 C 8.56 g/m*3 23.7 C 6.4 km/h
1036 02-06-2014 18:50:00 23.6 C 8.29 g/m*3 23.6 C 8.1 km/h
1037 02-06-2014 18:55:00 23.5 C 8.46 g/m*3 23.5 C 4.8 km/h
1038 02-06-2014 19:00:00 23.5 C 8.46 g/m*3 23.5 C 4.8 km/h
1039 02-06-2014 19:05:00 23.4 C 8.41 g/m*3 23.4 C 8.1 km/h
1040 02-06-2014 19:10:00 23.4 C 8.2 g/m*3 23.4 C 9.7 km/h
1041 02-06-2014 19:15:00 22.8 C 8.13 g/m*3 22.8 C 6.4 km/h
1042 02-06-2014 19:20:00 22.5 C 8.19 g/m*3 22.5 C 8.1 km/h
1043 02-06-2014 19:25:00 22.4 C 8.14 g/m*3 22.4 C 8.1 km/h
1044 02-06-2014 19:30:00 22.3 C 8.29 g/m*3 22.3 C 9.7 km/h
1045 02-06-2014 19:35:00 22.1 C 8.39 g/m*3 22.1 C 8.1 km/h
1046 02-06-2014 19:40:00 22 C 8.15 g/m*3 22 C 4.8 km/h
1047 02-06-2014 19:45:00 21.8 C 8.25 g/m*3 21.8 C 6.4 km/h
1048 02-06-2014 19:50:00 21.7 C 8.01 g/m*3 21.7 C 6.4 km/h
1049 02-06-2014 19:55:00 21.6 C 7.97 g/m*3 21.6 C 3.2 km/h
1050 02-06-2014 20:00:00 21.4 C 7.87 g/m*3 21.4 C 4.8 km/h
Sensor: Nr:Datum:Temp:Abs-Feuchte:Windchill:Wind:
Aussen-T/F 1051 02-06-2014 20:05:00 21.3 C 8.02 g/m*3 21.3 C 4.8 km/h
1052 02-06-2014 20:10:00 21.2 C 7.97 g/m*3 21.2 C 4.8 km/h
1053 02-06-2014 20:15:00 21.1 C 7.92 g/m*3 21.1 C 6.4 km/h
1054 02-06-2014 20:20:00 20.9 C 8.2 g/m*3 20.9 C 3.2 km/h
1055 02-06-2014 20:25:00 20.8 C 7.97 g/m*3 20.8 C 3.2 km/h
1056 02-06-2014 20:30:00 20.4 C 9.73 g/m*3 20.4 C 6.4 km/h
1057 02-06-2014 20:35:00 19.7 C 9.51 g/m*3 19.7 C 1.6 km/h
1058 02-06-2014 20:40:00 19.3 C 9.79 g/m*3 19.3 C 1.6 km/h
1059 02-06-2014 20:45:00 18.9 C 10.53 g/m*3 18.9 C 0 km/h
1060 02-06-2014 20:50:00 18.6 C 10.35 g/m*3 18.6 C 0 km/h
1061 02-06-2014 20:55:00 18.2 C 10.26 g/m*3 18.2 C 0 km/h
1062 02-06-2014 21:00:00 17.8 C 10.17 g/m*3 17.8 C 0 km/h
1063 02-06-2014 21:05:00 17.6 C 9.9 g/m*3 17.6 C 0 km/h
1064 02-06-2014 21:10:00 17.4 C 9.93 g/m*3 17.4 C 0 km/h
1065 02-06-2014 21:15:00 17.2 C 9.96 g/m*3 17.2 C 0 km/h
1066 02-06-2014 21:20:00 17 C 9.98 g/m*3 17 C 0 km/h
1067 02-06-2014 21:25:00 16.8 C 10.01 g/m*3 16.8 C 1.6 km/h
1068 02-06-2014 21:30:00 16.7 C 9.81 g/m*3 16.7 C 0 km/h
1069 02-06-2014 21:35:00 16.6 C 9.89 g/m*3 16.6 C 1.6 km/h
1070 02-06-2014 21:40:00 16.5 C 9.97 g/m*3 16.5 C 1.6 km/h
1071 02-06-2014 21:45:00 16.4 C 9.35 g/m*3 16.4 C 0 km/h
1072 02-06-2014 21:50:00 16.3 C 9.57 g/m*3 16.3 C 0 km/h
1073 02-06-2014 21:55:00 16.3 C 9.57 g/m*3 16.3 C 0 km/h
1074 02-06-2014 22:00:00 16.3 C 9.57 g/m*3 16.3 C 0 km/h
1075 02-06-2014 22:05:00 16.2 C 9.38 g/m*3 16.2 C 0 km/h
Sensor: Nr:Datum:Temp:Abs-Feuchte:Windchill:Wind:
Aussen-T/F 1076 02-06-2014 22:10:00 16.2 C 9.24 g/m*3 16.2 C 0 km/h
1077 02-06-2014 22:15:00 16.1 C 9.46 g/m*3 16.1 C 0 km/h
1078 02-06-2014 22:20:00 16 C 9.4 g/m*3 16 C 0 km/h
1079 02-06-2014 22:25:00 15.9 C 9.48 g/m*3 15.9 C 0 km/h
1080 02-06-2014 22:30:00 15.9 C 9.48 g/m*3 15.9 C 0 km/h
1081 02-06-2014 22:35:00 15.9 C 9.48 g/m*3 15.9 C 0 km/h
1082 02-06-2014 22:40:00 15.9 C 9.75 g/m*3 15.9 C 0 km/h
1083 02-06-2014 22:45:00 15.9 C 9.75 g/m*3 15.9 C 0 km/h
1084 02-06-2014 22:50:00 15.9 C 9.34 g/m*3 15.9 C 0 km/h
1085 02-06-2014 22:55:00 15.9 C 9.62 g/m*3 15.9 C 0 km/h
1086 02-06-2014 23:00:00 15.9 C 9.34 g/m*3 15.9 C 0 km/h
1087 02-06-2014 23:05:00 15.8 C 9.42 g/m*3 15.8 C 0 km/h
1088 02-06-2014 23:10:00 15.8 C 9.29 g/m*3 15.8 C 0 km/h
1089 02-06-2014 23:15:00 15.8 C 9.29 g/m*3 15.8 C 0 km/h
1090 02-06-2014 23:20:00 15.8 C 9.69 g/m*3 15.8 C 0 km/h
1091 02-06-2014 23:25:00 15.7 C 9.37 g/m*3 15.7 C 0 km/h
1092 02-06-2014 23:30:00 15.7 C 9.5 g/m*3 15.7 C 0 km/h
1093 02-06-2014 23:35:00 15.5 C 9.25 g/m*3 15.5 C 1.6 km/h
1094 02-06-2014 23:40:00 15.4 C 9.2 g/m*3 15.4 C 0 km/h
1095 02-06-2014 23:45:00 15.3 C 9.14 g/m*3 15.3 C 1.6 km/h
1096 02-06-2014 23:50:00 15.2 C 9.35 g/m*3 15.2 C 0 km/h
1097 02-06-2014 23:55:00 15.1 C 9.16 g/m*3 15.1 C 0 km/h
1098 03-06-2014 00:00:00 15 C 9.23 g/m*3 15 C 0 km/h
1099 03-06-2014 00:05:00 14.9 C 9.3 g/m*3 14.9 C 0 km/h
1100 03-06-2014 00:10:00 14.8 C 9.25 g/m*3 14.8 C 0 km/h
Sensor: Nr:Datum:Temp:Abs-Feuchte:Windchill:Wind:
Aussen-T/F 1101 03-06-2014 00:15:00 14.8 C 9.37 g/m*3 14.8 C 0 km/h
1102 03-06-2014 00:20:00 14.7 C 9.19 g/m*3 14.7 C 0 km/h
1103 03-06-2014 00:25:00 14.7 C 9.32 g/m*3 14.7 C 0 km/h
1104 03-06-2014 00:30:00 14.6 C 9.26 g/m*3 14.6 C 0 km/h
1105 03-06-2014 00:35:00 14.6 C 9.39 g/m*3 14.6 C 0 km/h
1106 03-06-2014 00:40:00 14.4 C 9.27 g/m*3 14.4 C 0 km/h
1107 03-06-2014 00:45:00 14.2 C 9.16 g/m*3 14.2 C 0 km/h
1108 03-06-2014 00:50:00 14.1 C 9.22 g/m*3 14.1 C 0 km/h
1109 03-06-2014 00:55:00 14 C 9.17 g/m*3 14 C 0 km/h
1110 03-06-2014 01:00:00 13.9 C 9.11 g/m*3 13.9 C 0 km/h
1111 03-06-2014 01:05:00 13.8 C 9.17 g/m*3 13.8 C 0 km/h
1112 03-06-2014 01:10:00 13.7 C 9.24 g/m*3 13.7 C 0 km/h
1113 03-06-2014 01:15:00 13.7 C 9.24 g/m*3 13.7 C 0 km/h
1114 03-06-2014 01:20:00 13.6 C 9.18 g/m*3 13.6 C 0 km/h
1115 03-06-2014 01:25:00 13.4 C 9.18 g/m*3 13.4 C 0 km/h
1116 03-06-2014 01:30:00 13.4 C 9.18 g/m*3 13.4 C 0 km/h
1117 03-06-2014 01:35:00 13.3 C 9.13 g/m*3 13.3 C 0 km/h
1118 03-06-2014 01:40:00 13.2 C 9.07 g/m*3 13.2 C 0 km/h
1119 03-06-2014 01:45:00 13.2 C 9.07 g/m*3 13.2 C 0 km/h
1120 03-06-2014 01:50:00 13.1 C 9.13 g/m*3 13.1 C 0 km/h
1121 03-06-2014 01:55:00 12.9 C 9.02 g/m*3 12.9 C 0 km/h
1122 03-06-2014 02:00:00 12.8 C 9.07 g/m*3 12.8 C 0 km/h
1123 03-06-2014 02:05:00 12.7 C 9.02 g/m*3 12.7 C 3.2 km/h
1124 03-06-2014 02:10:00 12.7 C 9.02 g/m*3 12.7 C 3.2 km/h
1125 03-06-2014 02:15:00 12.5 C 8.91 g/m*3 12.5 C 0 km/h
Sensor: Nr:Datum:Temp:Abs-Feuchte:Windchill:Wind:
Aussen-T/F 1126 03-06-2014 02:20:00 12.4 C 8.96 g/m*3 12.4 C 0 km/h
1127 03-06-2014 02:25:00 12.3 C 8.9 g/m*3 12.3 C 0 km/h
1128 03-06-2014 02:30:00 12.2 C 8.85 g/m*3 12.2 C 0 km/h
1129 03-06-2014 02:35:00 12.1 C 8.79 g/m*3 12.1 C 0 km/h
1130 03-06-2014 02:40:00 11.9 C 8.79 g/m*3 11.9 C 0 km/h
1131 03-06-2014 02:45:00 11.8 C 8.74 g/m*3 11.8 C 0 km/h
1132 03-06-2014 02:50:00 11.8 C 8.74 g/m*3 11.8 C 0 km/h
1133 03-06-2014 02:55:00 11.7 C 8.79 g/m*3 11.7 C 0 km/h
1134 03-06-2014 03:00:00 11.7 C 8.79 g/m*3 11.7 C 0 km/h
1135 03-06-2014 03:05:00 11.5 C 8.78 g/m*3 11.5 C 0 km/h
1136 03-06-2014 03:10:00 11.4 C 8.72 g/m*3 11.4 C 0 km/h
1137 03-06-2014 03:15:00 11.3 C 8.67 g/m*3 11.3 C 0 km/h
1138 03-06-2014 03:20:00 11.2 C 8.62 g/m*3 11.2 C 0 km/h
1139 03-06-2014 03:25:00 11.1 C 8.66 g/m*3 11.1 C 0 km/h
1140 03-06-2014 03:30:00 11.1 C 8.66 g/m*3 11.1 C 0 km/h
1141 03-06-2014 03:35:00 10.9 C 8.55 g/m*3 10.9 C 0 km/h
1142 03-06-2014 03:40:00 10.9 C 8.55 g/m*3 10.9 C 0 km/h
1143 03-06-2014 03:45:00 10.8 C 8.6 g/m*3 10.8 C 0 km/h
1144 03-06-2014 03:50:00 10.8 C 8.6 g/m*3 10.8 C 0 km/h
1145 03-06-2014 03:55:00 10.8 C 8.6 g/m*3 10.8 C 0 km/h
1146 03-06-2014 04:00:00 10.7 C 8.55 g/m*3 10.7 C 0 km/h
1147 03-06-2014 04:05:00 10.6 C 8.49 g/m*3 10.6 C 0 km/h
1148 03-06-2014 04:10:00 10.5 C 8.53 g/m*3 10.5 C 0 km/h
1149 03-06-2014 04:15:00 10.4 C 8.48 g/m*3 10.4 C 0 km/h
1150 03-06-2014 04:20:00 10.4 C 8.48 g/m*3 10.4 C 0 km/h
Sensor: Nr:Datum:Temp:Abs-Feuchte:Windchill:Wind:
Aussen-T/F 1151 03-06-2014 04:25:00 10.3 C 8.52 g/m*3 10.3 C 0 km/h
1152 03-06-2014 04:30:00 10.3 C 8.52 g/m*3 10.3 C 0 km/h
1153 03-06-2014 04:35:00 10.2 C 8.47 g/m*3 10.2 C 0 km/h
1154 03-06-2014 04:40:00 10.2 C 8.47 g/m*3 10.2 C 0 km/h
1155 03-06-2014 04:45:00 10.1 C 8.51 g/m*3 10.1 C 0 km/h
1156 03-06-2014 04:50:00 10.1 C 8.51 g/m*3 10.1 C 0 km/h
1157 03-06-2014 04:55:00 10 C 8.46 g/m*3 10 C 0 km/h
1158 03-06-2014 05:00:00 9.9 C 8.4 g/m*3 9.9 C 0 km/h
1159 03-06-2014 05:05:00 9.9 C 8.5 g/m*3 9.9 C 0 km/h
1160 03-06-2014 05:10:00 9.9 C 8.5 g/m*3 9.9 C 0 km/h
1161 03-06-2014 05:15:00 9.9 C 8.5 g/m*3 9.9 C 0 km/h
1162 03-06-2014 05:20:00 9.8 C 8.44 g/m*3 9.8 C 0 km/h
1163 03-06-2014 05:25:00 9.8 C 8.44 g/m*3 9.8 C 0 km/h
1164 03-06-2014 05:30:00 9.8 C 8.54 g/m*3 9.8 C 0 km/h
1165 03-06-2014 05:35:00 9.8 C 8.54 g/m*3 9.8 C 0 km/h
1166 03-06-2014 05:40:00 9.8 C 8.54 g/m*3 9.8 C 0 km/h
1167 03-06-2014 05:45:00 9.8 C 8.54 g/m*3 9.8 C 0 km/h
1168 03-06-2014 05:50:00 9.8 C 8.54 g/m*3 9.8 C 0 km/h
1169 03-06-2014 05:55:00 9.8 C 8.54 g/m*3 9.8 C 0 km/h
1170 03-06-2014 06:00:00 9.8 C 8.54 g/m*3 9.8 C 0 km/h
1171 03-06-2014 06:05:00 9.8 C 8.54 g/m*3 9.8 C 0 km/h
1172 03-06-2014 06:10:00 9.9 C 8.68 g/m*3 9.25 C 6.4 km/h
1173 03-06-2014 06:15:00 10 C 8.74 g/m*3 9.37 C 6.4 km/h
1174 03-06-2014 06:20:00 10.1 C 8.7 g/m*3 10.1 C 0 km/h
1175 03-06-2014 06:25:00 10.1 C 8.7 g/m*3 10.1 C 0 km/h
Sensor: Nr:Datum:Temp:Abs-Feuchte:Windchill:Wind:
Aussen-T/F 1176 03-06-2014 06:30:00 10.2 C 8.76 g/m*3 10.2 C 0 km/h
1177 03-06-2014 06:35:00 10.2 C 8.76 g/m*3 10.2 C 0 km/h
1178 03-06-2014 06:40:00 10.3 C 8.81 g/m*3 10.3 C 0 km/h
1179 03-06-2014 06:45:00 10.4 C 8.87 g/m*3 10.4 C 0 km/h
1180 03-06-2014 06:50:00 10.5 C 8.92 g/m*3 10.5 C 3.2 km/h
1181 03-06-2014 06:55:00 10.6 C 8.88 g/m*3 10.6 C 0 km/h
1182 03-06-2014 07:00:00 10.7 C 8.94 g/m*3 10.7 C 0 km/h
1183 03-06-2014 07:05:00 10.8 C 8.99 g/m*3 10.8 C 0 km/h
1184 03-06-2014 07:10:00 10.9 C 9.05 g/m*3 10.9 C 1.6 km/h
1185 03-06-2014 07:15:00 11 C 9.01 g/m*3 11 C 3.2 km/h
1186 03-06-2014 07:20:00 11.1 C 9.07 g/m*3 11.1 C 3.2 km/h
1187 03-06-2014 07:25:00 11.3 C 9.18 g/m*3 11.3 C 4.8 km/h
1188 03-06-2014 07:30:00 11.4 C 9.14 g/m*3 11.4 C 4.8 km/h
1189 03-06-2014 07:35:00 11.6 C 9.25 g/m*3 11.6 C 3.2 km/h
1190 03-06-2014 07:40:00 11.7 C 9.2 g/m*3 11.7 C 4.8 km/h
1191 03-06-2014 07:45:00 11.8 C 9.26 g/m*3 11.8 C 4.8 km/h
1192 03-06-2014 07:50:00 12.1 C 9.44 g/m*3 12.1 C 3.2 km/h
1193 03-06-2014 07:55:00 12.2 C 9.28 g/m*3 12.2 C 4.8 km/h
1194 03-06-2014 08:00:00 12.3 C 9.34 g/m*3 12.3 C 4.8 km/h
1195 03-06-2014 08:05:00 12.4 C 9.4 g/m*3 12.4 C 3.2 km/h
1196 03-06-2014 08:10:00 12.5 C 9.35 g/m*3 12.5 C 3.2 km/h
1197 03-06-2014 08:15:00 12.6 C 9.4 g/m*3 12.6 C 1.6 km/h
1198 03-06-2014 08:20:00 12.7 C 9.46 g/m*3 12.7 C 1.6 km/h
1199 03-06-2014 08:25:00 12.9 C 9.58 g/m*3 12.9 C 1.6 km/h
1200 03-06-2014 08:30:00 13.1 C 9.47 g/m*3 13.1 C 3.2 km/h
Sensor: Nr:Datum:Temp:Abs-Feuchte:Windchill:Wind:
Aussen-T/F 1201 03-06-2014 08:35:00 13.3 C 9.59 g/m*3 13.3 C 1.6 km/h
1202 03-06-2014 08:40:00 13.4 C 9.65 g/m*3 13.4 C 3.2 km/h
1203 03-06-2014 08:45:00 13.6 C 9.53 g/m*3 13.6 C 3.2 km/h
1204 03-06-2014 08:50:00 13.7 C 9.59 g/m*3 13.7 C 4.8 km/h
1205 03-06-2014 08:55:00 13.7 C 9.47 g/m*3 13.7 C 1.6 km/h
1206 03-06-2014 09:00:00 13.8 C 9.53 g/m*3 13.8 C 3.2 km/h
1207 03-06-2014 09:05:00 13.9 C 9.59 g/m*3 13.9 C 3.2 km/h
1208 03-06-2014 09:10:00 14.1 C 9.71 g/m*3 14.1 C 3.2 km/h
1209 03-06-2014 09:15:00 14.2 C 9.77 g/m*3 14.2 C 0 km/h
1210 03-06-2014 09:20:00 14.3 C 9.95 g/m*3 14.3 C 1.6 km/h
1211 03-06-2014 09:25:00 14.4 C 10.01 g/m*3 14.4 C 1.6 km/h
1212 03-06-2014 09:30:00 14.4 C 10.01 g/m*3 14.4 C 0 km/h
1213 03-06-2014 09:35:00 14.6 C 10.26 g/m*3 14.6 C 0 km/h
1214 03-06-2014 09:40:00 14.7 C 10.2 g/m*3 14.7 C 1.6 km/h
1215 03-06-2014 09:45:00 14.8 C 10.13 g/m*3 14.8 C 0 km/h
1216 03-06-2014 09:50:00 15.1 C 10.19 g/m*3 15.1 C 1.6 km/h
1217 03-06-2014 09:55:00 15.5 C 10.18 g/m*3 15.5 C 1.6 km/h
1218 03-06-2014 10:00:00 16 C 10.63 g/m*3 16 C 1.6 km/h
1219 03-06-2014 10:05:00 16.5 C 10.95 g/m*3 16.5 C 0 km/h
1220 03-06-2014 10:10:00 17.1 C 10.77 g/m*3 17.1 C 1.6 km/h
1221 03-06-2014 10:15:00 17.4 C 10.67 g/m*3 17.4 C 3.2 km/h
1222 03-06-2014 10:20:00 17.8 C 10.62 g/m*3 17.8 C 3.2 km/h
1223 03-06-2014 10:25:00 17.9 C 10.69 g/m*3 17.9 C 1.6 km/h
1224 03-06-2014 10:30:00 18.2 C 10.72 g/m*3 18.2 C 0 km/h
1225 03-06-2014 10:35:00 18.4 C 10.85 g/m*3 18.4 C 4.8 km/h
Sensor: Nr:Datum:Temp:Abs-Feuchte:Windchill:Wind:
Aussen-T/F 1226 03-06-2014 10:40:00 18.7 C 10.89 g/m*3 18.7 C 3.2 km/h
1227 03-06-2014 10:45:00 18.9 C 10.37 g/m*3 18.9 C 3.2 km/h
1228 03-06-2014 10:50:00 18.9 C 11.02 g/m*3 18.9 C 3.2 km/h
1229 03-06-2014 10:55:00 18.9 C 10.85 g/m*3 18.9 C 1.6 km/h
1230 03-06-2014 11:00:00 18.8 C 10.79 g/m*3 18.8 C 1.6 km/h
1231 03-06-2014 11:05:00 18.7 C 10.73 g/m*3 18.7 C 0 km/h
1232 03-06-2014 11:10:00 18.6 C 11.46 g/m*3 18.6 C 0 km/h
1233 03-06-2014 11:15:00 18.6 C 11.14 g/m*3 18.6 C 3.2 km/h
1234 03-06-2014 11:20:00 18.6 C 11.14 g/m*3 18.6 C 3.2 km/h
1235 03-06-2014 11:25:00 18.9 C 11.18 g/m*3 18.9 C 3.2 km/h
1236 03-06-2014 11:30:00 19.3 C 10.78 g/m*3 19.3 C 3.2 km/h
1237 03-06-2014 11:35:00 19.7 C 11.21 g/m*3 19.7 C 3.2 km/h
1238 03-06-2014 11:40:00 20.1 C 10.95 g/m*3 20.1 C 3.2 km/h
1239 03-06-2014 11:45:00 20.6 C 11.1 g/m*3 20.6 C 6.4 km/h
1240 03-06-2014 11:50:00 20.9 C 11.47 g/m*3 20.9 C 4.8 km/h
1241 03-06-2014 11:55:00 20.8 C 10.5 g/m*3 20.8 C 4.8 km/h
1242 03-06-2014 12:00:00 20.7 C 11.34 g/m*3 20.7 C 1.6 km/h
1243 03-06-2014 12:05:00 20.1 C 11.47 g/m*3 20.1 C 0 km/h
1244 03-06-2014 12:10:00 19.2 C 11.87 g/m*3 19.2 C 0 km/h
1245 03-06-2014 12:15:00 18.6 C 11.62 g/m*3 18.6 C 0 km/h
1246 03-06-2014 12:20:00 18 C 11.52 g/m*3 18 C 0 km/h
1247 03-06-2014 12:25:00 17.7 C 11.62 g/m*3 17.7 C 0 km/h
1248 03-06-2014 12:30:00 17.6 C 11.7 g/m*3 17.6 C 0 km/h
1249 03-06-2014 12:35:00 17.6 C 11.55 g/m*3 17.6 C 0 km/h
1250 03-06-2014 12:40:00 17.8 C 11.84 g/m*3 17.8 C 0 km/h
Sensor: Nr:Datum:Temp:Abs-Feuchte:Windchill:Wind:
Aussen-T/F 1251 03-06-2014 12:45:00 18.5 C 11.08 g/m*3 18.5 C 4.8 km/h
1252 03-06-2014 12:50:00 19.7 C 10.53 g/m*3 19.7 C 3.2 km/h
1253 03-06-2014 12:55:00 20.4 C 9.73 g/m*3 20.4 C 4.8 km/h
1254 03-06-2014 13:00:00 21.1 C 9.58 g/m*3 21.1 C 3.2 km/h
1255 03-06-2014 13:05:00 21.8 C 9.98 g/m*3 21.8 C 3.2 km/h
1256 03-06-2014 13:10:00 22.2 C 9.42 g/m*3 22.2 C 6.4 km/h
1257 03-06-2014 13:15:00 22.4 C 9.14 g/m*3 22.4 C 4.8 km/h
1258 03-06-2014 13:20:00 22.7 C 9.5 g/m*3 22.7 C 4.8 km/h
1259 03-06-2014 13:25:00 22.9 C 8.99 g/m*3 22.9 C 1.6 km/h
1260 03-06-2014 13:30:00 23.1 C 8.27 g/m*3 23.1 C 6.4 km/h
1261 03-06-2014 13:35:00 23.3 C 8.36 g/m*3 23.3 C 8.1 km/h
1262 03-06-2014 13:40:00 23 C 8.22 g/m*3 23 C 4.8 km/h
1263 03-06-2014 13:45:00 23.1 C 8.27 g/m*3 23.1 C 4.8 km/h
1264 03-06-2014 13:50:00 23.3 C 8.36 g/m*3 23.3 C 8.1 km/h
1265 03-06-2014 13:55:00 23.3 C 8.36 g/m*3 23.3 C 6.4 km/h
1266 03-06-2014 14:20:00 21.7 C 10.68 g/m*3 21.7 C 1.6 km/h
1267 03-06-2014 14:25:00 21 C 10.62 g/m*3 21 C 4.8 km/h
1268 03-06-2014 14:30:00 20.9 C 11.11 g/m*3 20.9 C 1.6 km/h
1269 03-06-2014 14:35:00 20.8 C 10.5 g/m*3 20.8 C 1.6 km/h
1270 03-06-2014 14:40:00 20.8 C 9.6 g/m*3 20.8 C 14.5 km/h
1271 03-06-2014 14:45:00 20.7 C 9.72 g/m*3 20.7 C 14.5 km/h
1272 03-06-2014 14:50:00 20.6 C 9.84 g/m*3 20.6 C 6.4 km/h
1273 03-06-2014 14:55:00 20.4 C 9.91 g/m*3 20.4 C 4.8 km/h
1274 03-06-2014 15:00:00 20.2 C 9.79 g/m*3 20.2 C 6.4 km/h
1275 03-06-2014 15:05:00 19.9 C 9.97 g/m*3 19.9 C 9.7 km/h
Sensor: Nr:Datum:Temp:Abs-Feuchte:Windchill:Wind:
Aussen-T/F 1276 03-06-2014 15:10:00 19.7 C 9.85 g/m*3 19.7 C 8.1 km/h
1277 03-06-2014 15:15:00 19.6 C 9.79 g/m*3 19.6 C 6.4 km/h
1278 03-06-2014 15:20:00 19.6 C 9.79 g/m*3 19.6 C 8.1 km/h
1279 03-06-2014 15:25:00 19.7 C 9.85 g/m*3 19.7 C 11.3 km/h
1280 03-06-2014 15:30:00 19.8 C 9.57 g/m*3 19.8 C 6.4 km/h
1281 03-06-2014 15:35:00 19.9 C 9.45 g/m*3 19.9 C 3.2 km/h
1282 03-06-2014 15:40:00 20.1 C 9.73 g/m*3 20.1 C 6.4 km/h
1283 03-06-2014 15:45:00 20.3 C 10.02 g/m*3 20.3 C 8.1 km/h
1284 03-06-2014 15:50:00 20.5 C 9.25 g/m*3 20.5 C 9.7 km/h
1285 03-06-2014 15:55:00 20.3 C 9.32 g/m*3 20.3 C 8.1 km/h
1286 03-06-2014 16:00:00 20.3 C 9.32 g/m*3 20.3 C 3.2 km/h
1287 03-06-2014 16:05:00 20.3 C 9.32 g/m*3 20.3 C 1.6 km/h
1288 03-06-2014 16:10:00 20.4 C 9.73 g/m*3 20.4 C 8.1 km/h
1289 03-06-2014 16:15:00 20.4 C 10.08 g/m*3 20.4 C 3.2 km/h
1290 03-06-2014 16:20:00 20.4 C 9.91 g/m*3 20.4 C 0 km/h
1291 03-06-2014 16:25:00 20.3 C 10.55 g/m*3 20.3 C 0 km/h
1292 03-06-2014 16:30:00 20.1 C 11.65 g/m*3 20.1 C 0 km/h
1293 03-06-2014 16:35:00 19.7 C 11.72 g/m*3 19.7 C 0 km/h
1294 03-06-2014 16:40:00 19.4 C 11.51 g/m*3 19.4 C 0 km/h
1295 03-06-2014 16:45:00 19.2 C 11.71 g/m*3 19.2 C 0 km/h
1296 03-06-2014 16:50:00 19 C 11.41 g/m*3 19 C 0 km/h
1297 03-06-2014 16:55:00 18.8 C 11.6 g/m*3 18.8 C 0 km/h
1298 03-06-2014 17:00:00 18.8 C 11.6 g/m*3 18.8 C 0 km/h
1299 03-06-2014 17:05:00 18.8 C 11.43 g/m*3 18.8 C 0 km/h
1300 03-06-2014 17:10:00 18.9 C 11.66 g/m*3 18.9 C 0 km/h
Sensor: Nr:Datum:Temp:Abs-Feuchte:Windchill:Wind:
Aussen-T/F 1301 03-06-2014 17:15:00 18.9 C 11.83 g/m*3 18.9 C 0 km/h
1302 03-06-2014 17:20:00 18.9 C 11.99 g/m*3 18.9 C 0 km/h
1303 03-06-2014 17:25:00 18.9 C 11.99 g/m*3 18.9 C 0 km/h
1304 03-06-2014 17:30:00 18.8 C 11.92 g/m*3 18.8 C 0 km/h
1305 03-06-2014 17:35:00 18.8 C 12.08 g/m*3 18.8 C 0 km/h
1306 03-06-2014 17:40:00 18.9 C 11.99 g/m*3 18.9 C 0 km/h
1307 03-06-2014 17:45:00 19.1 C 10.82 g/m*3 19.1 C 0 km/h
1308 03-06-2014 17:50:00 19.4 C 11.68 g/m*3 19.4 C 1.6 km/h
1309 03-06-2014 17:55:00 19.8 C 11.44 g/m*3 19.8 C 1.6 km/h
1310 03-06-2014 18:00:00 20.1 C 10.95 g/m*3 20.1 C 3.2 km/h
1311 03-06-2014 18:05:00 20.1 C 10.08 g/m*3 20.1 C 6.4 km/h
1312 03-06-2014 18:10:00 20.2 C 10.14 g/m*3 20.2 C 4.8 km/h
1313 03-06-2014 18:15:00 20.3 C 10.2 g/m*3 20.3 C 3.2 km/h
1314 03-06-2014 18:20:00 20.4 C 11.85 g/m*3 20.4 C 1.6 km/h
1315 03-06-2014 18:25:00 20.4 C 12.21 g/m*3 20.4 C 0 km/h
1316 03-06-2014 18:30:00 20.3 C 12.31 g/m*3 20.3 C 1.6 km/h
1317 03-06-2014 18:35:00 20.4 C 9.91 g/m*3 20.4 C 4.8 km/h
1318 03-06-2014 18:40:00 20.9 C 9.83 g/m*3 20.9 C 4.8 km/h
1319 03-06-2014 18:45:00 21.4 C 9.75 g/m*3 21.4 C 4.8 km/h
1320 03-06-2014 18:50:00 21.7 C 9.73 g/m*3 21.7 C 1.6 km/h
1321 03-06-2014 18:55:00 21.5 C 11.5 g/m*3 21.5 C 0 km/h
1322 03-06-2014 19:00:00 21.2 C 11.68 g/m*3 21.2 C 0 km/h
1323 03-06-2014 19:05:00 20.9 C 11.47 g/m*3 20.9 C 0 km/h
1324 03-06-2014 19:10:00 20.5 C 11.57 g/m*3 20.5 C 0 km/h
1325 03-06-2014 19:15:00 20.1 C 11.99 g/m*3 20.1 C 0 km/h
Sensor: Nr:Datum:Temp:Abs-Feuchte:Windchill:Wind:
Aussen-T/F 1326 03-06-2014 19:20:00 19.8 C 11.61 g/m*3 19.8 C 1.6 km/h
1327 03-06-2014 19:25:00 19.6 C 11.48 g/m*3 19.6 C 1.6 km/h
1328 03-06-2014 19:30:00 19.3 C 11.78 g/m*3 19.3 C 0 km/h
1329 03-06-2014 19:35:00 18.9 C 11.66 g/m*3 18.9 C 0 km/h
1330 03-06-2014 19:40:00 18.4 C 11.48 g/m*3 18.4 C 0 km/h
1331 03-06-2014 19:45:00 18.1 C 11.59 g/m*3 18.1 C 0 km/h
1332 03-06-2014 19:50:00 17.8 C 11.38 g/m*3 17.8 C 0 km/h
1333 03-06-2014 19:55:00 17.6 C 11.4 g/m*3 17.6 C 1.6 km/h
1334 03-06-2014 20:00:00 17.5 C 11.33 g/m*3 17.5 C 1.6 km/h
1335 03-06-2014 20:05:00 17.3 C 11.2 g/m*3 17.3 C 0 km/h
1336 03-06-2014 20:10:00 17.2 C 11.28 g/m*3 17.2 C 1.6 km/h
1337 03-06-2014 20:15:00 17.2 C 11.13 g/m*3 17.2 C 0 km/h
1338 03-06-2014 20:20:00 17.1 C 11.21 g/m*3 17.1 C 0 km/h
1339 03-06-2014 20:25:00 16.9 C 11.22 g/m*3 16.9 C 0 km/h
1340 03-06-2014 20:30:00 16.9 C 11.08 g/m*3 16.9 C 0 km/h
1341 03-06-2014 20:35:00 16.8 C 11.01 g/m*3 16.8 C 0 km/h
1342 03-06-2014 20:40:00 16.8 C 11.01 g/m*3 16.8 C 1.6 km/h
1343 03-06-2014 20:45:00 16.8 C 11.01 g/m*3 16.8 C 0 km/h
1344 03-06-2014 20:50:00 16.9 C 11.22 g/m*3 16.9 C 0 km/h
1345 03-06-2014 20:55:00 16.9 C 11.22 g/m*3 16.9 C 0 km/h
1346 03-06-2014 21:00:00 16.8 C 11.29 g/m*3 16.8 C 0 km/h
1347 03-06-2014 21:05:00 16.8 C 11.29 g/m*3 16.8 C 0 km/h
1348 03-06-2014 21:10:00 16.7 C 11.23 g/m*3 16.7 C 1.6 km/h
1349 03-06-2014 21:15:00 16.5 C 11.09 g/m*3 16.5 C 0 km/h
1350 03-06-2014 21:20:00 16.4 C 10.89 g/m*3 16.4 C 1.6 km/h
Sensor: Nr:Datum:Temp:Abs-Feuchte:Windchill:Wind:
Aussen-T/F 1351 03-06-2014 21:25:00 16.2 C 10.76 g/m*3 16.2 C 0 km/h
1352 03-06-2014 21:30:00 16.1 C 10.69 g/m*3 16.1 C 0 km/h
1353 03-06-2014 21:35:00 15.9 C 10.56 g/m*3 15.9 C 0 km/h
1354 03-06-2014 21:40:00 15.8 C 10.36 g/m*3 15.8 C 0 km/h
1355 03-06-2014 21:45:00 15.7 C 10.3 g/m*3 15.7 C 0 km/h
1356 03-06-2014 21:50:00 15.6 C 10.24 g/m*3 15.6 C 0 km/h
1357 03-06-2014 21:55:00 15.4 C 10.12 g/m*3 15.4 C 0 km/h
1358 03-06-2014 22:00:00 15.3 C 10.06 g/m*3 15.3 C 0 km/h
1359 03-06-2014 22:05:00 15.2 C 10.12 g/m*3 15.2 C 0 km/h
1360 03-06-2014 22:10:00 15.1 C 10.06 g/m*3 15.1 C 0 km/h
1361 03-06-2014 22:15:00 14.9 C 9.94 g/m*3 14.9 C 0 km/h
1362 03-06-2014 22:20:00 14.8 C 10.01 g/m*3 14.8 C 0 km/h
1363 03-06-2014 22:25:00 14.7 C 9.95 g/m*3 14.7 C 0 km/h
1364 03-06-2014 22:30:00 14.6 C 9.89 g/m*3 14.6 C 0 km/h
1365 03-06-2014 22:35:00 14.4 C 9.77 g/m*3 14.4 C 0 km/h
1366 03-06-2014 22:40:00 14.3 C 9.83 g/m*3 14.3 C 0 km/h
1367 03-06-2014 22:45:00 14.2 C 9.89 g/m*3 14.2 C 0 km/h
1368 03-06-2014 22:50:00 14.2 C 9.89 g/m*3 14.2 C 0 km/h
1369 03-06-2014 22:55:00 14.1 C 9.83 g/m*3 14.1 C 0 km/h
1370 03-06-2014 23:00:00 14 C 9.77 g/m*3 14 C 1.6 km/h
1371 03-06-2014 23:05:00 13.9 C 9.71 g/m*3 13.9 C 0 km/h
1372 03-06-2014 23:10:00 13.9 C 9.83 g/m*3 13.9 C 0 km/h
1373 03-06-2014 23:15:00 13.8 C 9.77 g/m*3 13.8 C 0 km/h
1374 03-06-2014 23:20:00 13.7 C 9.71 g/m*3 13.7 C 0 km/h
1375 03-06-2014 23:25:00 13.6 C 9.77 g/m*3 13.6 C 0 km/h
Sensor: Nr:Datum:Temp:Abs-Feuchte:Windchill:Wind:
Aussen-T/F 1376 03-06-2014 23:30:00 13.6 C 9.77 g/m*3 13.6 C 0 km/h
1377 03-06-2014 23:35:00 13.4 C 9.65 g/m*3 13.4 C 0 km/h
1378 03-06-2014 23:40:00 13.4 C 9.88 g/m*3 13.4 C 0 km/h
1379 03-06-2014 23:45:00 13.5 C 9.83 g/m*3 13.5 C 6.4 km/h
1380 03-06-2014 23:50:00 13.4 C 9.76 g/m*3 13.4 C 0 km/h
1381 03-06-2014 23:55:00 13.4 C 9.76 g/m*3 13.4 C 0 km/h
1382 04-06-2014 00:00:00 13.2 C 9.76 g/m*3 13.2 C 0 km/h
1383 04-06-2014 00:05:00 13.2 C 9.76 g/m*3 13.2 C 0 km/h
1384 04-06-2014 00:10:00 13.1 C 9.81 g/m*3 13.1 C 1.6 km/h
1385 04-06-2014 00:15:00 13.1 C 9.81 g/m*3 13.1 C 0 km/h
1386 04-06-2014 00:20:00 13 C 9.75 g/m*3 13 C 0 km/h
1387 04-06-2014 00:25:00 13 C 9.75 g/m*3 13 C 0 km/h
1388 04-06-2014 00:30:00 12.9 C 9.81 g/m*3 12.9 C 0 km/h
1389 04-06-2014 00:35:00 12.9 C 9.69 g/m*3 12.9 C 0 km/h
1390 04-06-2014 00:40:00 12.8 C 9.74 g/m*3 12.8 C 0 km/h
1391 04-06-2014 00:45:00 12.8 C 9.74 g/m*3 12.8 C 0 km/h
1392 04-06-2014 00:50:00 12.8 C 9.74 g/m*3 12.8 C 0 km/h
1393 04-06-2014 00:55:00 12.8 C 9.74 g/m*3 12.8 C 0 km/h
1394 04-06-2014 01:00:00 12.7 C 9.68 g/m*3 12.7 C 0 km/h
1395 04-06-2014 01:05:00 12.7 C 9.68 g/m*3 12.7 C 0 km/h
1396 04-06-2014 01:10:00 12.5 C 9.68 g/m*3 12.5 C 0 km/h
1397 04-06-2014 01:15:00 12.4 C 9.62 g/m*3 12.4 C 0 km/h
1398 04-06-2014 01:20:00 12.3 C 9.56 g/m*3 12.3 C 0 km/h
1399 04-06-2014 01:25:00 12.3 C 9.66 g/m*3 12.3 C 0 km/h
1400 04-06-2014 01:30:00 12.2 C 9.5 g/m*3 12.2 C 0 km/h
Sensor: Nr:Datum:Temp:Abs-Feuchte:Windchill:Wind:
Aussen-T/F 1401 04-06-2014 01:35:00 12.1 C 9.54 g/m*3 12.1 C 0 km/h
1402 04-06-2014 01:40:00 11.9 C 9.43 g/m*3 11.9 C 0 km/h
1403 04-06-2014 01:45:00 11.9 C 9.43 g/m*3 11.9 C 0 km/h
1404 04-06-2014 01:50:00 11.9 C 9.43 g/m*3 11.9 C 0 km/h
1405 04-06-2014 01:55:00 11.9 C 9.43 g/m*3 11.9 C 0 km/h
1406 04-06-2014 02:00:00 11.8 C 9.47 g/m*3 11.8 C 1.6 km/h
1407 04-06-2014 02:05:00 11.8 C 9.47 g/m*3 11.8 C 1.6 km/h
1408 04-06-2014 02:10:00 11.8 C 9.47 g/m*3 11.8 C 0 km/h
1409 04-06-2014 02:15:00 11.8 C 9.47 g/m*3 11.8 C 0 km/h
1410 04-06-2014 02:20:00 11.7 C 9.52 g/m*3 11.7 C 0 km/h
1411 04-06-2014 02:25:00 11.7 C 9.52 g/m*3 11.7 C 0 km/h
1412 04-06-2014 02:30:00 11.6 C 9.46 g/m*3 11.6 C 0 km/h
1413 04-06-2014 02:35:00 11.5 C 9.4 g/m*3 11.5 C 0 km/h
1414 04-06-2014 02:40:00 11.4 C 9.34 g/m*3 11.4 C 0 km/h
1415 04-06-2014 02:45:00 11.4 C 9.34 g/m*3 11.4 C 0 km/h
1416 04-06-2014 02:50:00 11.3 C 9.38 g/m*3 11.3 C 0 km/h
1417 04-06-2014 02:55:00 11.3 C 9.38 g/m*3 11.3 C 0 km/h
1418 04-06-2014 03:00:00 11.3 C 9.38 g/m*3 11.3 C 0 km/h
1419 04-06-2014 03:05:00 11.3 C 9.38 g/m*3 11.3 C 0 km/h
1420 04-06-2014 03:10:00 11.2 C 9.33 g/m*3 11.2 C 0 km/h
1421 04-06-2014 03:15:00 11.1 C 9.27 g/m*3 11.1 C 0 km/h
1422 04-06-2014 03:20:00 11.1 C 9.27 g/m*3 11.1 C 0 km/h
1423 04-06-2014 03:25:00 11 C 9.31 g/m*3 11 C 0 km/h
1424 04-06-2014 03:30:00 10.9 C 9.25 g/m*3 10.9 C 0 km/h
1425 04-06-2014 03:35:00 10.9 C 9.25 g/m*3 10.9 C 0 km/h
Sensor: Nr:Datum:Temp:Abs-Feuchte:Windchill:Wind:
Aussen-T/F 1426 04-06-2014 03:40:00 10.8 C 9.19 g/m*3 10.8 C 0 km/h
1427 04-06-2014 03:45:00 10.8 C 9.19 g/m*3 10.8 C 0 km/h
1428 04-06-2014 03:50:00 10.8 C 9.19 g/m*3 10.8 C 0 km/h
1429 04-06-2014 03:55:00 10.8 C 9.19 g/m*3 10.8 C 0 km/h
1430 04-06-2014 04:00:00 10.8 C 9.19 g/m*3 10.8 C 0 km/h
1431 04-06-2014 04:05:00 10.8 C 9.29 g/m*3 10.8 C 0 km/h
1432 04-06-2014 04:10:00 10.8 C 9.29 g/m*3 10.8 C 1.6 km/h
1433 04-06-2014 04:15:00 10.7 C 9.23 g/m*3 10.7 C 1.6 km/h
1434 04-06-2014 04:20:00 10.7 C 9.23 g/m*3 10.7 C 0 km/h
1435 04-06-2014 04:25:00 10.7 C 9.23 g/m*3 10.7 C 0 km/h
1436 04-06-2014 04:30:00 10.6 C 9.17 g/m*3 10.6 C 0 km/h
1437 04-06-2014 04:35:00 10.5 C 9.12 g/m*3 10.5 C 0 km/h
1438 04-06-2014 04:40:00 10.5 C 9.12 g/m*3 10.5 C 0 km/h
1439 04-06-2014 04:45:00 10.6 C 9.17 g/m*3 10.6 C 1.6 km/h
1440 04-06-2014 04:50:00 10.6 C 9.17 g/m*3 10.6 C 0 km/h
1441 04-06-2014 04:55:00 10.6 C 9.17 g/m*3 10.6 C 0 km/h
1442 04-06-2014 05:00:00 10.7 C 9.23 g/m*3 10.7 C 0 km/h
1443 04-06-2014 05:05:00 10.7 C 9.23 g/m*3 10.7 C 0 km/h
1444 04-06-2014 05:10:00 10.8 C 9.39 g/m*3 10.8 C 0 km/h
1445 04-06-2014 05:15:00 10.8 C 9.39 g/m*3 10.8 C 0 km/h
1446 04-06-2014 05:20:00 10.9 C 9.45 g/m*3 10.9 C 0 km/h
1447 04-06-2014 05:25:00 10.9 C 9.35 g/m*3 10.9 C 0 km/h
1448 04-06-2014 05:30:00 10.9 C 9.35 g/m*3 10.9 C 0 km/h
1449 04-06-2014 05:35:00 10.9 C 9.35 g/m*3 10.9 C 0 km/h
1450 04-06-2014 05:40:00 10.9 C 9.35 g/m*3 10.9 C 0 km/h
Sensor: Nr:Datum:Temp:Abs-Feuchte:Windchill:Wind:
Aussen-T/F 1451 04-06-2014 05:45:00 10.9 C 9.35 g/m*3 10.9 C 0 km/h
1452 04-06-2014 05:50:00 10.9 C 9.35 g/m*3 10.9 C 0 km/h
1453 04-06-2014 05:55:00 10.9 C 9.35 g/m*3 10.9 C 0 km/h
1454 04-06-2014 06:00:00 10.9 C 9.35 g/m*3 10.9 C 0 km/h
1455 04-06-2014 06:05:00 11.1 C 9.47 g/m*3 11.1 C 0 km/h
1456 04-06-2014 06:10:00 11.2 C 9.53 g/m*3 11.2 C 1.6 km/h
1457 04-06-2014 06:15:00 11.3 C 9.59 g/m*3 11.3 C 0 km/h
1458 04-06-2014 06:20:00 11.4 C 9.65 g/m*3 11.4 C 1.6 km/h
1459 04-06-2014 06:25:00 11.6 C 9.67 g/m*3 11.6 C 0 km/h
1460 04-06-2014 06:30:00 11.7 C 9.73 g/m*3 11.7 C 0 km/h
1461 04-06-2014 06:35:00 11.8 C 9.79 g/m*3 11.8 C 0 km/h
1462 04-06-2014 06:40:00 11.9 C 9.74 g/m*3 11.9 C 1.6 km/h
1463 04-06-2014 06:45:00 12.1 C 9.87 g/m*3 12.1 C 0 km/h
1464 04-06-2014 06:50:00 12.1 C 9.76 g/m*3 12.1 C 0 km/h
1465 04-06-2014 06:55:00 12.2 C 9.82 g/m*3 12.2 C 0 km/h
1466 04-06-2014 07:00:00 12.3 C 9.77 g/m*3 12.3 C 0 km/h
1467 04-06-2014 07:05:00 12.4 C 9.83 g/m*3 12.4 C 0 km/h
1468 04-06-2014 07:10:00 12.5 C 9.89 g/m*3 12.5 C 0 km/h
1469 04-06-2014 07:15:00 12.6 C 9.85 g/m*3 12.6 C 0 km/h
1470 04-06-2014 07:20:00 12.7 C 9.91 g/m*3 12.7 C 0 km/h
1471 04-06-2014 07:25:00 12.8 C 10.08 g/m*3 12.8 C 1.6 km/h
1472 04-06-2014 07:30:00 12.9 C 10.03 g/m*3 12.9 C 0 km/h
1473 04-06-2014 07:35:00 13.1 C 10.16 g/m*3 13.1 C 0 km/h
1474 04-06-2014 07:40:00 13.3 C 10.17 g/m*3 13.3 C 0 km/h
1475 04-06-2014 07:45:00 13.4 C 10.23 g/m*3 13.4 C 0 km/h
Sensor: Nr:Datum:Temp:Abs-Feuchte:Windchill:Wind:
Aussen-T/F 1476 04-06-2014 07:50:00 13.6 C 10.36 g/m*3 13.6 C 0 km/h
1477 04-06-2014 07:55:00 13.7 C 10.3 g/m*3 13.7 C 0 km/h
1478 04-06-2014 08:00:00 13.8 C 10.37 g/m*3 13.8 C 0 km/h
1479 04-06-2014 08:05:00 14 C 10.49 g/m*3 14 C 0 km/h
1480 04-06-2014 08:10:00 14.4 C 10.75 g/m*3 14.4 C 0 km/h
1481 04-06-2014 08:15:00 14.8 C 10.77 g/m*3 14.8 C 1.6 km/h
1482 04-06-2014 08:20:00 15.3 C 10.97 g/m*3 15.3 C 1.6 km/h
1483 04-06-2014 08:25:00 15.7 C 11.11 g/m*3 15.7 C 1.6 km/h
1484 04-06-2014 08:30:00 15.9 C 11.1 g/m*3 15.9 C 1.6 km/h
1485 04-06-2014 08:35:00 16.2 C 11.17 g/m*3 16.2 C 1.6 km/h
1486 04-06-2014 08:40:00 16.4 C 11.17 g/m*3 16.4 C 1.6 km/h
1487 04-06-2014 08:45:00 16.8 C 11.58 g/m*3 16.8 C 1.6 km/h
1488 04-06-2014 08:50:00 17.1 C 11.21 g/m*3 17.1 C 6.4 km/h
1489 04-06-2014 08:55:00 17.4 C 11.12 g/m*3 17.4 C 4.8 km/h
1490 04-06-2014 09:00:00 17.5 C 11.18 g/m*3 17.5 C 3.2 km/h
1491 04-06-2014 09:05:00 17.6 C 11.1 g/m*3 17.6 C 1.6 km/h
1492 04-06-2014 09:10:00 17.7 C 10.86 g/m*3 17.7 C 9.7 km/h
1493 04-06-2014 09:15:00 17.8 C 11.08 g/m*3 17.8 C 3.2 km/h
1494 04-06-2014 09:20:00 17.8 C 11.08 g/m*3 17.8 C 4.8 km/h
1495 04-06-2014 09:25:00 17.8 C 10.93 g/m*3 17.8 C 3.2 km/h
1496 04-06-2014 09:30:00 17.9 C 11.15 g/m*3 17.9 C 8.1 km/h
1497 04-06-2014 09:35:00 18.1 C 11.43 g/m*3 18.1 C 4.8 km/h
1498 04-06-2014 09:40:00 18.3 C 11.26 g/m*3 18.3 C 4.8 km/h
1499 04-06-2014 09:45:00 18.3 C 11.1 g/m*3 18.3 C 14.5 km/h
1500 04-06-2014 09:50:00 18.3 C 11.1 g/m*3 18.3 C 12.9 km/h
Sensor: Nr:Datum:Temp:Abs-Feuchte:Windchill:Wind:
Aussen-T/F 1501 04-06-2014 09:55:00 18.3 C 11.1 g/m*3 18.3 C 4.8 km/h
1502 04-06-2014 11:40:00 20.4 C 12.21 g/m*3 20.4 C 6.4 km/h
1503 04-06-2014 11:45:00 20.6 C 12.17 g/m*3 20.6 C 3.2 km/h
1504 04-06-2014 11:50:00 20.8 C 11.77 g/m*3 20.8 C 3.2 km/h
1505 04-06-2014 11:55:00 20.9 C 11.84 g/m*3 20.9 C 3.2 km/h
1506 04-06-2014 12:00:00 21 C 11.54 g/m*3 21 C 8.1 km/h
1507 04-06-2014 12:05:00 20.9 C 11.47 g/m*3 20.9 C 3.2 km/h
1508 04-06-2014 12:10:00 20.9 C 11.84 g/m*3 20.9 C 3.2 km/h
1509 04-06-2014 12:15:00 20.8 C 11.59 g/m*3 20.8 C 3.2 km/h
1510 04-06-2014 12:20:00 20.6 C 12.35 g/m*3 20.6 C 1.6 km/h
1511 04-06-2014 12:25:00 20.3 C 11.61 g/m*3 20.3 C 3.2 km/h
1512 04-06-2014 12:30:00 20.1 C 12.34 g/m*3 20.1 C 0 km/h
1513 04-06-2014 12:35:00 19.8 C 11.27 g/m*3 19.8 C 3.2 km/h
1514 04-06-2014 12:40:00 19.7 C 11.04 g/m*3 19.7 C 6.4 km/h
1515 04-06-2014 12:45:00 19.5 C 10.91 g/m*3 19.5 C 11.3 km/h
1516 04-06-2014 12:50:00 19.3 C 10.78 g/m*3 19.3 C 9.7 km/h
1517 04-06-2014 12:55:00 19.1 C 10.66 g/m*3 19.1 C 14.5 km/h
1518 04-06-2014 13:00:00 18.8 C 10.79 g/m*3 18.8 C 19.3 km/h
1519 04-06-2014 13:05:00 18.4 C 10.85 g/m*3 18.4 C 14.5 km/h
1520 04-06-2014 13:10:00 18.2 C 11.19 g/m*3 18.2 C 11.3 km/h
1521 04-06-2014 13:15:00 17.9 C 11.15 g/m*3 17.9 C 8.1 km/h
1522 04-06-2014 13:20:00 17.8 C 10.93 g/m*3 17.8 C 4.8 km/h
1523 04-06-2014 13:25:00 17.9 C 11.15 g/m*3 17.9 C 6.4 km/h
1524 04-06-2014 13:30:00 18 C 11.21 g/m*3 18 C 9.7 km/h
1525 04-06-2014 13:35:00 17.9 C 11.3 g/m*3 17.9 C 12.9 km/h
Sensor: Nr:Datum:Temp:Abs-Feuchte:Windchill:Wind:
Aussen-T/F 1526 04-06-2014 13:40:00 17.8 C 11.23 g/m*3 17.8 C 8.1 km/h
1527 04-06-2014 13:45:00 17.7 C 11.47 g/m*3 17.7 C 9.7 km/h
1528 04-06-2014 13:50:00 17.7 C 12.07 g/m*3 17.7 C 8.1 km/h
1529 04-06-2014 13:55:00 17.6 C 12 g/m*3 17.6 C 3.2 km/h
1530 04-06-2014 14:00:00 17.5 C 11.63 g/m*3 17.5 C 4.8 km/h
1531 04-06-2014 14:05:00 17.4 C 11.71 g/m*3 17.4 C 6.4 km/h
1532 04-06-2014 14:10:00 17.3 C 11.93 g/m*3 17.3 C 6.4 km/h
1533 04-06-2014 14:15:00 17.2 C 12.01 g/m*3 17.2 C 0 km/h
1534 04-06-2014 14:20:00 17.1 C 11.94 g/m*3 17.1 C 0 km/h
1535 04-06-2014 14:25:00 16.9 C 11.94 g/m*3 16.9 C 0 km/h
1536 04-06-2014 14:30:00 16.7 C 11.94 g/m*3 16.7 C 0 km/h
1537 04-06-2014 14:35:00 16.5 C 12.08 g/m*3 16.5 C 0 km/h
1538 04-06-2014 14:40:00 16.4 C 12.14 g/m*3 16.4 C 0 km/h
1539 04-06-2014 14:45:00 16.5 C 12.36 g/m*3 16.5 C 0 km/h
1540 04-06-2014 14:50:00 16.8 C 12.87 g/m*3 16.8 C 0 km/h
1541 04-06-2014 14:55:00 17.1 C 13.1 g/m*3 17.1 C 3.2 km/h
1542 04-06-2014 15:00:00 17.4 C 13.19 g/m*3 17.4 C 4.8 km/h
1543 04-06-2014 15:05:00 17.6 C 12.9 g/m*3 17.6 C 3.2 km/h
1544 04-06-2014 15:10:00 17.8 C 12.9 g/m*3 17.8 C 4.8 km/h
1545 04-06-2014 15:15:00 17.9 C 12.83 g/m*3 17.9 C 1.6 km/h
1546 04-06-2014 15:20:00 17.8 C 12.9 g/m*3 17.8 C 0 km/h
1547 04-06-2014 15:25:00 17.6 C 13.05 g/m*3 17.6 C 0 km/h
1548 04-06-2014 15:30:00 17.2 C 12.89 g/m*3 17.2 C 0 km/h
1549 04-06-2014 15:35:00 17.1 C 13.1 g/m*3 17.1 C 0 km/h
1550 04-06-2014 15:40:00 17.2 C 13.33 g/m*3 17.2 C 0 km/h
Sensor: Nr:Datum:Temp:Abs-Feuchte:Windchill:Wind:
Aussen-T/F 1551 04-06-2014 15:45:00 17.2 C 13.18 g/m*3 17.2 C 4.8 km/h
1552 04-06-2014 15:50:00 17.2 C 13.18 g/m*3 17.2 C 3.2 km/h
1553 04-06-2014 15:55:00 17.3 C 13.26 g/m*3 17.3 C 0 km/h
1554 04-06-2014 16:00:00 17.4 C 13.34 g/m*3 17.4 C 0 km/h
1555 04-06-2014 16:05:00 17.5 C 13.42 g/m*3 17.5 C 0 km/h
1556 04-06-2014 16:10:00 17.4 C 13.34 g/m*3 17.4 C 0 km/h
1557 04-06-2014 16:15:00 17.4 C 13.34 g/m*3 17.4 C 0 km/h
1558 04-06-2014 16:20:00 17.4 C 13.49 g/m*3 17.4 C 0 km/h
1559 04-06-2014 16:25:00 17.3 C 13.41 g/m*3 17.3 C 0 km/h
1560 04-06-2014 16:30:00 17.2 C 13.33 g/m*3 17.2 C 0 km/h
1561 04-06-2014 16:35:00 17.1 C 13.39 g/m*3 17.1 C 0 km/h
1562 04-06-2014 16:40:00 16.7 C 13.07 g/m*3 16.7 C 0 km/h
1563 04-06-2014 16:45:00 16.6 C 13.14 g/m*3 16.6 C 0 km/h
1564 04-06-2014 16:50:00 16.5 C 13.06 g/m*3 16.5 C 1.6 km/h
1565 04-06-2014 16:55:00 16.6 C 13.28 g/m*3 16.6 C 0 km/h
1566 04-06-2014 17:00:00 16.4 C 12.98 g/m*3 16.4 C 0 km/h
1567 04-06-2014 17:05:00 16.6 C 13.28 g/m*3 16.6 C 0 km/h
1568 04-06-2014 17:10:00 16.6 C 13.28 g/m*3 16.6 C 0 km/h
1569 04-06-2014 17:15:00 16.7 C 13.36 g/m*3 16.7 C 0 km/h
1570 04-06-2014 17:20:00 16.8 C 13.58 g/m*3 16.8 C 0 km/h
1571 04-06-2014 17:25:00 16.8 C 13.58 g/m*3 16.8 C 0 km/h
1572 04-06-2014 17:30:00 16.8 C 13.58 g/m*3 16.8 C 0 km/h
1573 04-06-2014 17:35:00 16.8 C 13.58 g/m*3 16.8 C 4.8 km/h
1574 04-06-2014 17:40:00 16.8 C 13.58 g/m*3 16.8 C 0 km/h
1575 04-06-2014 17:45:00 16.5 C 13.06 g/m*3 16.5 C 3.2 km/h
Sensor: Nr:Datum:Temp:Abs-Feuchte:Windchill:Wind:
Aussen-T/F 1576 04-06-2014 17:50:00 16.3 C 12.9 g/m*3 16.3 C 1.6 km/h
1577 04-06-2014 17:55:00 16.2 C 12.82 g/m*3 16.2 C 0 km/h
1578 04-06-2014 18:00:00 16.1 C 12.75 g/m*3 16.1 C 0 km/h
1579 04-06-2014 18:05:00 16.1 C 12.88 g/m*3 16.1 C 0 km/h
1580 04-06-2014 18:10:00 16.2 C 12.96 g/m*3 16.2 C 0 km/h
1581 04-06-2014 18:15:00 16.2 C 13.1 g/m*3 16.2 C 0 km/h
1582 04-06-2014 18:20:00 16.3 C 13.18 g/m*3 16.3 C 0 km/h
1583 04-06-2014 18:25:00 16.5 C 13.34 g/m*3 16.5 C 0 km/h
1584 04-06-2014 18:30:00 16.6 C 13.28 g/m*3 16.6 C 0 km/h
1585 04-06-2014 18:35:00 16.9 C 13.38 g/m*3 16.9 C 6.4 km/h
1586 04-06-2014 18:40:00 17.2 C 13.47 g/m*3 17.2 C 0 km/h
1587 04-06-2014 18:45:00 17.4 C 13.34 g/m*3 17.4 C 1.6 km/h
1588 04-06-2014 18:50:00 17.8 C 13.36 g/m*3 17.8 C 1.6 km/h
1589 04-06-2014 18:55:00 17.9 C 13.59 g/m*3 17.9 C 0 km/h
1590 04-06-2014 19:00:00 17.9 C 13.44 g/m*3 17.9 C 0 km/h
1591 04-06-2014 19:05:00 18.1 C 13.44 g/m*3 18.1 C 1.6 km/h
1592 04-06-2014 19:10:00 18.1 C 13.75 g/m*3 18.1 C 3.2 km/h
1593 04-06-2014 19:15:00 18.1 C 13.13 g/m*3 18.1 C 1.6 km/h
1594 04-06-2014 19:20:00 18 C 13.52 g/m*3 18 C 0 km/h
1595 04-06-2014 19:25:00 17.8 C 13.51 g/m*3 17.8 C 0 km/h
1596 04-06-2014 19:30:00 17.6 C 13.5 g/m*3 17.6 C 0 km/h
1597 04-06-2014 19:35:00 17.6 C 13.5 g/m*3 17.6 C 1.6 km/h
1598 04-06-2014 21:45:00 14.6 C 11.89 g/m*3 14.6 C 0 km/h
1599 04-06-2014 21:50:00 14.5 C 11.69 g/m*3 14.5 C 0 km/h
1600 04-06-2014 21:55:00 14.5 C 11.69 g/m*3 14.5 C 1.6 km/h
Sensor: Nr:Datum:Temp:Abs-Feuchte:Windchill:Wind:
Aussen-T/F 1601 05-06-2014 00:35:00 13.4 C 10.69 g/m*3 13.4 C 11.3 km/h
1602 05-06-2014 00:40:00 13.4 C 10.69 g/m*3 13.4 C 6.4 km/h
1603 05-06-2014 00:45:00 13.2 C 10.22 g/m*3 13.2 C 19.3 km/h
1604 05-06-2014 00:50:00 13.2 C 10.1 g/m*3 13.2 C 16.1 km/h
1605 05-06-2014 00:55:00 13 C 9.98 g/m*3 13 C 8.1 km/h
1606 05-06-2014 01:00:00 12.9 C 10.03 g/m*3 12.9 C 4.8 km/h
1607 05-06-2014 01:05:00 12.8 C 9.86 g/m*3 12.8 C 9.7 km/h
1608 05-06-2014 01:10:00 12.7 C 9.8 g/m*3 12.7 C 14.5 km/h
1609 05-06-2014 01:15:00 12.7 C 10.02 g/m*3 12.7 C 3.2 km/h
1610 05-06-2014 01:20:00 12.7 C 10.02 g/m*3 12.7 C 1.6 km/h
1611 05-06-2014 01:25:00 12.5 C 9.89 g/m*3 12.5 C 1.6 km/h
1612 05-06-2014 01:30:00 12.4 C 9.72 g/m*3 12.4 C 4.8 km/h
1613 05-06-2014 01:35:00 12.4 C 9.62 g/m*3 12.4 C 3.2 km/h
1614 05-06-2014 01:40:00 12.4 C 9.62 g/m*3 12.4 C 8.1 km/h
1615 05-06-2014 01:45:00 12.4 C 9.62 g/m*3 12.4 C 3.2 km/h
1616 05-06-2014 01:50:00 12.3 C 9.66 g/m*3 12.3 C 1.6 km/h
1617 05-06-2014 01:55:00 12.3 C 9.66 g/m*3 12.3 C 1.6 km/h
1618 05-06-2014 02:00:00 12.2 C 9.71 g/m*3 12.2 C 1.6 km/h
1619 05-06-2014 02:05:00 12.1 C 9.65 g/m*3 12.1 C 1.6 km/h
1620 05-06-2014 02:10:00 12.1 C 9.54 g/m*3 12.1 C 1.6 km/h
1621 05-06-2014 02:15:00 12.1 C 9.54 g/m*3 12.1 C 9.7 km/h
1622 05-06-2014 02:20:00 12.1 C 9.54 g/m*3 12.1 C 3.2 km/h
1623 05-06-2014 02:25:00 12.1 C 9.33 g/m*3 12.1 C 1.6 km/h
1624 05-06-2014 02:30:00 12.1 C 9.44 g/m*3 12.1 C 1.6 km/h
1625 05-06-2014 02:35:00 12.1 C 9.44 g/m*3 12.1 C 1.6 km/h
Sensor: Nr:Datum:Temp:Abs-Feuchte:Windchill:Wind:
Aussen-T/F 1626 05-06-2014 02:40:00 12 C 9.38 g/m*3 12 C 1.6 km/h
1627 05-06-2014 02:45:00 11.9 C 9.43 g/m*3 11.9 C 0 km/h
1628 05-06-2014 02:50:00 11.8 C 9.16 g/m*3 11.8 C 9.7 km/h
1629 05-06-2014 02:55:00 11.8 C 8.95 g/m*3 11.8 C 16.1 km/h
1630 05-06-2014 03:00:00 11.9 C 8.79 g/m*3 11.9 C 14.5 km/h
1631 05-06-2014 03:05:00 11.8 C 8.42 g/m*3 11.8 C 11.3 km/h
1632 05-06-2014 03:10:00 11.6 C 8 g/m*3 11.6 C 20.9 km/h
1633 05-06-2014 03:15:00 11.4 C 7.8 g/m*3 11.4 C 20.9 km/h
1634 05-06-2014 03:20:00 11.3 C 7.65 g/m*3 11.3 C 16.1 km/h
1635 05-06-2014 03:25:00 11.2 C 7.7 g/m*3 11.2 C 16.1 km/h
1636 05-06-2014 03:30:00 11.1 C 7.76 g/m*3 11.1 C 8.1 km/h
1637 05-06-2014 03:35:00 11.1 C 7.76 g/m*3 11.1 C 9.7 km/h
1638 05-06-2014 03:40:00 11.1 C 7.76 g/m*3 11.1 C 1.6 km/h
1639 05-06-2014 03:45:00 10 C 8.08 g/m*3 10 C 1.6 km/h
1640 05-06-2014 03:50:00 9.7 C 8.11 g/m*3 9.7 C 3.2 km/h
1641 05-06-2014 03:55:00 9.4 C 8.05 g/m*3 9.4 C 1.6 km/h
1642 05-06-2014 04:00:00 9.1 C 7.99 g/m*3 9.1 C 1.6 km/h
1643 05-06-2014 04:05:00 8.9 C 7.97 g/m*3 8.9 C 1.6 km/h
1644 05-06-2014 04:10:00 8.8 C 7.92 g/m*3 8.8 C 1.6 km/h
1645 05-06-2014 04:15:00 8.8 C 8.01 g/m*3 8.8 C 1.6 km/h
1646 05-06-2014 04:20:00 8.8 C 8.01 g/m*3 8.8 C 1.6 km/h
1647 05-06-2014 04:25:00 8.7 C 7.96 g/m*3 8.7 C 0 km/h
1648 05-06-2014 04:30:00 8.7 C 7.96 g/m*3 8.7 C 1.6 km/h
1649 05-06-2014 04:35:00 8.7 C 7.96 g/m*3 8.7 C 0 km/h
1650 05-06-2014 04:40:00 8.7 C 7.96 g/m*3 8.7 C 1.6 km/h
Sensor: Nr:Datum:Temp:Abs-Feuchte:Windchill:Wind:
Aussen-T/F 1651 05-06-2014 04:45:00 8.8 C 8.01 g/m*3 8.8 C 3.2 km/h
1652 05-06-2014 04:50:00 8.9 C 7.97 g/m*3 8.9 C 3.2 km/h
1653 05-06-2014 04:55:00 9.1 C 7.99 g/m*3 9.1 C 3.2 km/h
1654 05-06-2014 05:00:00 9.2 C 8.04 g/m*3 9.2 C 3.2 km/h
1655 05-06-2014 05:05:00 9.1 C 7.99 g/m*3 9.1 C 1.6 km/h
1656 05-06-2014 05:10:00 9 C 7.93 g/m*3 9 C 0 km/h
1657 05-06-2014 05:15:00 8.9 C 7.97 g/m*3 8.9 C 0 km/h
1658 05-06-2014 05:20:00 8.8 C 7.92 g/m*3 8.8 C 0 km/h
1659 05-06-2014 05:25:00 8.7 C 7.87 g/m*3 8.7 C 0 km/h
1660 05-06-2014 05:30:00 8.6 C 7.82 g/m*3 8.6 C 0 km/h
1661 05-06-2014 05:35:00 8.6 C 7.91 g/m*3 8.6 C 1.6 km/h
1662 05-06-2014 05:40:00 8.5 C 7.94 g/m*3 8.5 C 0 km/h
1663 05-06-2014 05:45:00 8.5 C 7.94 g/m*3 8.5 C 0 km/h
1664 05-06-2014 05:50:00 8.5 C 7.94 g/m*3 8.5 C 0 km/h
1665 05-06-2014 05:55:00 8.5 C 8.03 g/m*3 8.5 C 0 km/h
1666 05-06-2014 06:00:00 8.5 C 8.03 g/m*3 8.5 C 0 km/h
1667 05-06-2014 06:05:00 8.5 C 8.03 g/m*3 8.5 C 0 km/h
1668 05-06-2014 06:10:00 8.5 C 8.11 g/m*3 8.5 C 0 km/h
1669 05-06-2014 06:15:00 8.5 C 8.11 g/m*3 8.5 C 0 km/h
1670 05-06-2014 06:20:00 8.6 C 8.16 g/m*3 8.6 C 0 km/h
1671 05-06-2014 06:25:00 8.7 C 8.22 g/m*3 8.7 C 0 km/h
1672 05-06-2014 06:30:00 8.7 C 8.22 g/m*3 8.7 C 0 km/h
1673 05-06-2014 06:35:00 8.7 C 8.22 g/m*3 8.7 C 0 km/h
1674 05-06-2014 06:40:00 8.7 C 8.22 g/m*3 8.7 C 0 km/h
1675 05-06-2014 06:45:00 8.8 C 8.27 g/m*3 8.8 C 0 km/h
Sensor: Nr:Datum:Temp:Abs-Feuchte:Windchill:Wind:
Aussen-T/F 1676 05-06-2014 06:50:00 8.8 C 8.27 g/m*3 8.8 C 0 km/h
1677 05-06-2014 06:55:00 8.9 C 8.32 g/m*3 8.9 C 0 km/h
1678 05-06-2014 07:00:00 8.9 C 8.32 g/m*3 8.9 C 1.6 km/h
1679 05-06-2014 07:05:00 9 C 8.38 g/m*3 9 C 0 km/h
1680 05-06-2014 07:10:00 9.1 C 8.43 g/m*3 9.1 C 0 km/h
1681 05-06-2014 07:15:00 9.1 C 8.43 g/m*3 9.1 C 0 km/h
1682 05-06-2014 07:20:00 9.2 C 8.48 g/m*3 9.2 C 3.2 km/h
1683 05-06-2014 07:25:00 9.3 C 8.54 g/m*3 8.56 C 6.4 km/h
1684 05-06-2014 07:30:00 9.4 C 8.5 g/m*3 7.97 C 9.7 km/h
1685 05-06-2014 07:35:00 9.7 C 8.57 g/m*3 8.33 C 9.7 km/h
1686 05-06-2014 07:40:00 9.9 C 8.59 g/m*3 9.25 C 6.4 km/h
1687 05-06-2014 07:45:00 10.3 C 8.71 g/m*3 9.34 C 8.1 km/h
1688 05-06-2014 07:50:00 10.6 C 8.59 g/m*3 9.69 C 8.1 km/h
1689 05-06-2014 07:55:00 10.9 C 8.65 g/m*3 9.28 C 12.9 km/h
1690 05-06-2014 08:00:00 11.2 C 8.62 g/m*3 11.2 C 14.5 km/h
1691 05-06-2014 08:05:00 11.4 C 8.72 g/m*3 11.4 C 12.9 km/h
1692 05-06-2014 08:10:00 11.6 C 8.73 g/m*3 11.6 C 8.1 km/h
1693 05-06-2014 08:15:00 11.7 C 8.79 g/m*3 11.7 C 4.8 km/h
1694 05-06-2014 08:20:00 11.8 C 8.74 g/m*3 11.8 C 20.9 km/h
1695 05-06-2014 08:25:00 11.8 C 8.74 g/m*3 11.8 C 8.1 km/h
1696 05-06-2014 08:30:00 12 C 8.85 g/m*3 12 C 4.8 km/h
1697 05-06-2014 08:35:00 12.2 C 8.85 g/m*3 12.2 C 8.1 km/h
1698 05-06-2014 08:40:00 12.2 C 8.85 g/m*3 12.2 C 6.4 km/h
1699 05-06-2014 08:45:00 12.3 C 8.69 g/m*3 12.3 C 8.1 km/h
1700 05-06-2014 08:50:00 12.6 C 8.85 g/m*3 12.6 C 6.4 km/h
Sensor: Nr:Datum:Temp:Abs-Feuchte:Windchill:Wind:
Aussen-T/F 1701 05-06-2014 08:55:00 12.8 C 9.07 g/m*3 12.8 C 6.4 km/h
1702 05-06-2014 09:00:00 12.9 C 8.9 g/m*3 12.9 C 3.2 km/h
1703 05-06-2014 09:05:00 13.1 C 8.9 g/m*3 13.1 C 8.1 km/h
1704 05-06-2014 09:10:00 13.1 C 8.9 g/m*3 13.1 C 9.7 km/h
1705 05-06-2014 09:15:00 13.2 C 8.61 g/m*3 13.2 C 17.7 km/h
1706 05-06-2014 09:20:00 13.1 C 8.56 g/m*3 13.1 C 9.7 km/h
1707 05-06-2014 09:25:00 13.2 C 8.61 g/m*3 13.2 C 12.9 km/h
1708 05-06-2014 09:30:00 13.3 C 8.43 g/m*3 13.3 C 11.3 km/h
1709 05-06-2014 09:35:00 13.4 C 8.6 g/m*3 13.4 C 12.9 km/h
1710 05-06-2014 09:40:00 13.6 C 8.24 g/m*3 13.6 C 22.5 km/h
1711 05-06-2014 09:45:00 13.7 C 8.53 g/m*3 13.7 C 17.7 km/h
1712 05-06-2014 09:50:00 13.9 C 8.15 g/m*3 13.9 C 16.1 km/h
1713 05-06-2014 09:55:00 14.2 C 8.3 g/m*3 14.2 C 22.5 km/h
1714 05-06-2014 10:00:00 14.3 C 8.23 g/m*3 14.3 C 27.4 km/h
1715 05-06-2014 10:05:00 14.5 C 8.46 g/m*3 14.5 C 14.5 km/h
1716 05-06-2014 10:10:00 14.7 C 8.44 g/m*3 14.7 C 19.3 km/h
1717 05-06-2014 10:15:00 14.8 C 8.36 g/m*3 14.8 C 16.1 km/h
1718 05-06-2014 10:20:00 15 C 8.21 g/m*3 15 C 20.9 km/h
1719 05-06-2014 10:25:00 15.1 C 8.26 g/m*3 15.1 C 16.1 km/h
1720 05-06-2014 10:30:00 14.8 C 8.23 g/m*3 14.8 C 14.5 km/h
1721 05-06-2014 10:35:00 14.6 C 8.13 g/m*3 14.6 C 12.9 km/h
1722 05-06-2014 10:40:00 14.7 C 8.31 g/m*3 14.7 C 8.1 km/h
1723 05-06-2014 10:45:00 14.8 C 8.23 g/m*3 14.8 C 19.3 km/h
1724 05-06-2014 10:50:00 14.8 C 8.23 g/m*3 14.8 C 20.9 km/h
1725 05-06-2014 10:55:00 15 C 8.21 g/m*3 15 C 19.3 km/h
Sensor: Nr:Datum:Temp:Abs-Feuchte:Windchill:Wind:
Aussen-T/F 1726 05-06-2014 11:00:00 15.2 C 8.44 g/m*3 15.2 C 16.1 km/h
1727 05-06-2014 11:05:00 15.3 C 8.1 g/m*3 15.3 C 24.1 km/h
1728 05-06-2014 11:10:00 15.3 C 8.1 g/m*3 15.3 C 17.7 km/h
1729 05-06-2014 11:15:00 15.5 C 8.33 g/m*3 15.5 C 12.9 km/h
1730 05-06-2014 11:20:00 15.7 C 8.03 g/m*3 15.7 C 20.9 km/h
1731 05-06-2014 11:25:00 15.5 C 8.06 g/m*3 15.5 C 19.3 km/h
1732 05-06-2014 11:30:00 15.6 C 8.38 g/m*3 15.6 C 14.5 km/h
1733 05-06-2014 11:35:00 16.1 C 8.5 g/m*3 16.1 C 16.1 km/h
1734 05-06-2014 11:40:00 16.4 C 8.1 g/m*3 16.4 C 20.9 km/h
1735 05-06-2014 11:45:00 16.6 C 8.05 g/m*3 16.6 C 17.7 km/h
1736 05-06-2014 11:50:00 16.6 C 8.05 g/m*3 16.6 C 19.3 km/h
1737 05-06-2014 11:55:00 16.8 C 8.29 g/m*3 16.8 C 16.1 km/h
1738 05-06-2014 12:00:00 16.8 C 7.72 g/m*3 16.8 C 16.1 km/h
1739 05-06-2014 12:05:00 16.7 C 7.82 g/m*3 16.7 C 29 km/h
1740 05-06-2014 12:10:00 16.4 C 7.82 g/m*3 16.4 C 19.3 km/h
1741 05-06-2014 12:15:00 16.6 C 7.91 g/m*3 16.6 C 20.9 km/h
1742 05-06-2014 12:20:00 16.7 C 7.96 g/m*3 16.7 C 14.5 km/h
1743 05-06-2014 12:25:00 16.7 C 8.24 g/m*3 16.7 C 9.7 km/h
1744 05-06-2014 12:30:00 16.7 C 8.1 g/m*3 16.7 C 17.7 km/h
1745 05-06-2014 12:35:00 17.1 C 7.86 g/m*3 17.1 C 20.9 km/h
1746 05-06-2014 12:40:00 17.1 C 8.15 g/m*3 17.1 C 16.1 km/h
1747 05-06-2014 12:45:00 17 C 7.81 g/m*3 17 C 20.9 km/h
1748 05-06-2014 12:50:00 17.1 C 7.86 g/m*3 17.1 C 17.7 km/h
1749 05-06-2014 12:55:00 17.3 C 7.96 g/m*3 17.3 C 24.1 km/h
1750 05-06-2014 13:00:00 17.3 C 7.96 g/m*3 17.3 C 16.1 km/h
Sensor: Nr:Datum:Temp:Abs-Feuchte:Windchill:Wind:
Aussen-T/F 1751 05-06-2014 13:05:00 17.4 C 7.85 g/m*3 17.4 C 16.1 km/h
1752 05-06-2014 13:10:00 17.6 C 7.95 g/m*3 17.6 C 16.1 km/h
1753 05-06-2014 13:15:00 17.8 C 7.74 g/m*3 17.8 C 16.1 km/h
1754 05-06-2014 13:20:00 17.9 C 7.79 g/m*3 17.9 C 20.9 km/h
1755 05-06-2014 13:25:00 17.9 C 7.79 g/m*3 17.9 C 19.3 km/h
1756 05-06-2014 13:30:00 17.6 C 7.65 g/m*3 17.6 C 12.9 km/h
1757 05-06-2014 13:35:00 17.6 C 7.35 g/m*3 17.6 C 11.3 km/h
1758 05-06-2014 13:40:00 17.5 C 7.6 g/m*3 17.5 C 14.5 km/h
1759 05-06-2014 13:45:00 17.6 C 7.95 g/m*3 17.6 C 14.5 km/h
1760 05-06-2014 13:50:00 18 C 7.83 g/m*3 18 C 11.3 km/h
1761 05-06-2014 13:55:00 18.1 C 7.73 g/m*3 18.1 C 14.5 km/h
1762 05-06-2014 14:00:00 18.1 C 7.57 g/m*3 18.1 C 17.7 km/h
1763 05-06-2014 14:05:00 17.9 C 7.48 g/m*3 17.9 C 16.1 km/h
1764 05-06-2014 14:10:00 17.9 C 7.48 g/m*3 17.9 C 12.9 km/h
1765 05-06-2014 14:15:00 17.8 C 7.74 g/m*3 17.8 C 16.1 km/h
1766 05-06-2014 14:20:00 18.2 C 7.93 g/m*3 18.2 C 14.5 km/h
1767 05-06-2014 14:25:00 18.4 C 7.71 g/m*3 18.4 C 12.9 km/h
1768 05-06-2014 14:30:00 18.3 C 7.35 g/m*3 18.3 C 14.5 km/h
1769 05-06-2014 14:35:00 18.1 C 7.57 g/m*3 18.1 C 16.1 km/h
1770 05-06-2014 14:40:00 17.9 C 7.33 g/m*3 17.9 C 17.7 km/h
1771 05-06-2014 14:45:00 17.7 C 7.39 g/m*3 17.7 C 14.5 km/h
1772 05-06-2014 14:50:00 17.7 C 7.85 g/m*3 17.7 C 8.1 km/h
1773 05-06-2014 14:55:00 17.8 C 7.89 g/m*3 17.8 C 6.4 km/h
1774 05-06-2014 15:00:00 17.9 C 7.79 g/m*3 17.9 C 12.9 km/h
1775 05-06-2014 15:05:00 18.4 C 7.71 g/m*3 18.4 C 11.3 km/h
Sensor: Nr:Datum:Temp:Abs-Feuchte:Windchill:Wind:
Aussen-T/F 1776 05-06-2014 15:10:00 18.9 C 7.94 g/m*3 18.9 C 12.9 km/h
1777 05-06-2014 15:15:00 19 C 7.33 g/m*3 19 C 19.3 km/h
1778 05-06-2014 15:20:00 18.7 C 7.36 g/m*3 18.7 C 12.9 km/h
1779 05-06-2014 15:25:00 18.4 C 7.24 g/m*3 18.4 C 9.7 km/h
1780 05-06-2014 15:30:00 18.3 C 7.51 g/m*3 18.3 C 14.5 km/h
1781 05-06-2014 15:35:00 18.1 C 7.73 g/m*3 18.1 C 14.5 km/h
1782 05-06-2014 15:40:00 18.3 C 7.66 g/m*3 18.3 C 19.3 km/h
1783 05-06-2014 15:45:00 18.9 C 7.61 g/m*3 18.9 C 14.5 km/h
1784 05-06-2014 15:50:00 18.9 C 7.61 g/m*3 18.9 C 12.9 km/h
1785 05-06-2014 15:55:00 18.7 C 7.52 g/m*3 18.7 C 22.5 km/h
1786 05-06-2014 16:00:00 18.6 C 7.48 g/m*3 18.6 C 20.9 km/h
1787 05-06-2014 16:05:00 19.2 C 7.42 g/m*3 19.2 C 16.1 km/h
1788 05-06-2014 16:10:00 19.7 C 7.47 g/m*3 19.7 C 24.1 km/h
1789 05-06-2014 16:15:00 20.1 C 7.65 g/m*3 20.1 C 16.1 km/h
1790 05-06-2014 16:20:00 20.1 C 7.3 g/m*3 20.1 C 12.9 km/h
1791 05-06-2014 16:25:00 19.7 C 7.81 g/m*3 19.7 C 12.9 km/h
1792 05-06-2014 16:30:00 19.6 C 7.43 g/m*3 19.6 C 12.9 km/h
1793 05-06-2014 16:35:00 19.8 C 7.52 g/m*3 19.8 C 14.5 km/h
1794 05-06-2014 16:40:00 19.8 C 7.34 g/m*3 19.8 C 17.7 km/h
1795 05-06-2014 16:45:00 19.6 C 6.92 g/m*3 19.6 C 16.1 km/h
1796 05-06-2014 16:50:00 19.8 C 7.52 g/m*3 19.8 C 12.9 km/h
1797 05-06-2014 16:55:00 20.1 C 6.95 g/m*3 20.1 C 11.3 km/h
1798 05-06-2014 17:00:00 19.6 C 7.09 g/m*3 19.6 C 11.3 km/h
1799 05-06-2014 17:05:00 19.2 C 7.09 g/m*3 19.2 C 11.3 km/h
1800 05-06-2014 17:10:00 18.8 C 7.25 g/m*3 18.8 C 4.8 km/h
Sensor: Nr:Datum:Temp:Abs-Feuchte:Windchill:Wind:
Aussen-T/F 1801 05-06-2014 17:15:00 18.6 C 7.48 g/m*3 18.6 C 6.4 km/h
1802 05-06-2014 17:20:00 18.6 C 7.48 g/m*3 18.6 C 8.1 km/h
1803 05-06-2014 17:25:00 18.7 C 7.52 g/m*3 18.7 C 11.3 km/h
1804 05-06-2014 17:30:00 18.7 C 7.84 g/m*3 18.7 C 9.7 km/h
1805 05-06-2014 17:35:00 18.7 C 7.36 g/m*3 18.7 C 9.7 km/h
1806 05-06-2014 17:40:00 18.6 C 7.64 g/m*3 18.6 C 9.7 km/h
1807 05-06-2014 17:45:00 19.2 C 7.42 g/m*3 19.2 C 12.9 km/h
1808 05-06-2014 17:50:00 20.1 C 7.3 g/m*3 20.1 C 14.5 km/h
1809 05-06-2014 17:55:00 20.5 C 6.94 g/m*3 20.5 C 17.7 km/h
1810 05-06-2014 18:00:00 20.8 C 7.42 g/m*3 20.8 C 16.1 km/h
1811 05-06-2014 18:05:00 20.8 C 7.24 g/m*3 20.8 C 14.5 km/h
1812 05-06-2014 18:10:00 21 C 7.14 g/m*3 21 C 19.3 km/h
1813 05-06-2014 18:15:00 20.8 C 7.42 g/m*3 20.8 C 17.7 km/h
1814 05-06-2014 18:20:00 20.7 C 7.02 g/m*3 20.7 C 19.3 km/h
1815 05-06-2014 18:25:00 20.7 C 7.38 g/m*3 20.7 C 11.3 km/h
1816 05-06-2014 18:30:00 20.7 C 7.38 g/m*3 20.7 C 16.1 km/h
1817 05-06-2014 18:35:00 20.6 C 7.34 g/m*3 20.6 C 24.1 km/h
1818 05-06-2014 18:40:00 20.7 C 7.02 g/m*3 20.7 C 17.7 km/h
1819 05-06-2014 18:45:00 20.7 C 7.02 g/m*3 20.7 C 14.5 km/h
1820 05-06-2014 18:50:00 20.7 C 6.84 g/m*3 20.7 C 11.3 km/h
1821 05-06-2014 18:55:00 20.5 C 7.12 g/m*3 20.5 C 9.7 km/h
1822 05-06-2014 19:00:00 20.6 C 7.16 g/m*3 20.6 C 11.3 km/h
1823 05-06-2014 19:05:00 20.6 C 6.8 g/m*3 20.6 C 14.5 km/h
1824 05-06-2014 19:10:00 20.3 C 7.03 g/m*3 20.3 C 17.7 km/h
1825 05-06-2014 19:15:00 20.1 C 7.13 g/m*3 20.1 C 9.7 km/h
Sensor: Nr:Datum:Temp:Abs-Feuchte:Windchill:Wind:
Aussen-T/F 1826 05-06-2014 19:20:00 19.9 C 6.87 g/m*3 19.9 C 16.1 km/h
1827 05-06-2014 19:25:00 19.8 C 6.66 g/m*3 19.8 C 14.5 km/h
1828 05-06-2014 19:30:00 19.7 C 6.62 g/m*3 19.7 C 9.7 km/h
1829 05-06-2014 19:35:00 19.6 C 6.92 g/m*3 19.6 C 12.9 km/h
1830 05-06-2014 19:40:00 19.6 C 7.09 g/m*3 19.6 C 14.5 km/h
1831 05-06-2014 19:45:00 19.4 C 6.51 g/m*3 19.4 C 14.5 km/h
1832 05-06-2014 19:50:00 19.3 C 6.63 g/m*3 19.3 C 20.9 km/h
1833 05-06-2014 19:55:00 19.2 C 6.6 g/m*3 19.2 C 9.7 km/h
1834 05-06-2014 20:00:00 19.2 C 6.76 g/m*3 19.2 C 14.5 km/h
1835 05-06-2014 20:05:00 19.1 C 6.56 g/m*3 19.1 C 8.1 km/h
1836 05-06-2014 20:10:00 19 C 6.68 g/m*3 19 C 11.3 km/h
1837 05-06-2014 20:15:00 19 C 6.68 g/m*3 19 C 11.3 km/h
1838 05-06-2014 20:20:00 18.9 C 6.97 g/m*3 18.9 C 4.8 km/h
1839 05-06-2014 20:25:00 18.8 C 7.57 g/m*3 18.8 C 4.8 km/h
1840 05-06-2014 20:30:00 18.7 C 7.68 g/m*3 18.7 C 6.4 km/h
1841 05-06-2014 20:35:00 18.5 C 7.44 g/m*3 18.5 C 8.1 km/h
1842 05-06-2014 20:40:00 18.3 C 8.6 g/m*3 18.3 C 1.6 km/h
1843 05-06-2014 20:45:00 17.8 C 8.8 g/m*3 17.8 C 1.6 km/h
1844 05-06-2014 20:50:00 17.4 C 8.45 g/m*3 17.4 C 1.6 km/h
1845 05-06-2014 20:55:00 17.1 C 8.73 g/m*3 17.1 C 1.6 km/h
1846 05-06-2014 21:00:00 16.8 C 8.72 g/m*3 16.8 C 1.6 km/h
1847 05-06-2014 21:05:00 16.4 C 9.07 g/m*3 16.4 C 0 km/h
1848 05-06-2014 21:10:00 15.9 C 8.94 g/m*3 15.9 C 1.6 km/h
1849 05-06-2014 21:15:00 15.6 C 8.64 g/m*3 15.6 C 1.6 km/h
1850 05-06-2014 21:20:00 15.4 C 8.15 g/m*3 15.4 C 1.6 km/h
Sensor: Nr:Datum:Temp:Abs-Feuchte:Windchill:Wind:
Aussen-T/F 1851 05-06-2014 21:25:00 15.1 C 8.64 g/m*3 15.1 C 1.6 km/h
1852 05-06-2014 21:30:00 14.8 C 8.49 g/m*3 14.8 C 1.6 km/h
1853 05-06-2014 21:35:00 14.6 C 8.51 g/m*3 14.6 C 1.6 km/h
1854 05-06-2014 21:40:00 14.3 C 8.48 g/m*3 14.3 C 1.6 km/h
1855 05-06-2014 21:45:00 14.2 C 8.43 g/m*3 14.2 C 1.6 km/h
1856 05-06-2014 21:50:00 14.1 C 8.37 g/m*3 14.1 C 1.6 km/h
1857 05-06-2014 21:55:00 13.9 C 8.39 g/m*3 13.9 C 1.6 km/h
1858 05-06-2014 22:00:00 13.7 C 8.41 g/m*3 13.7 C 0 km/h
1859 05-06-2014 22:05:00 13.6 C 8.36 g/m*3 13.6 C 0 km/h
1860 05-06-2014 22:10:00 13.4 C 8.37 g/m*3 13.4 C 0 km/h
1861 05-06-2014 22:15:00 13.2 C 8.38 g/m*3 13.2 C 0 km/h
1862 05-06-2014 22:20:00 12.9 C 8.23 g/m*3 12.9 C 0 km/h
1863 05-06-2014 22:25:00 12.8 C 8.29 g/m*3 12.8 C 0 km/h
1864 05-06-2014 22:30:00 12.7 C 8.24 g/m*3 12.7 C 0 km/h
1865 05-06-2014 22:35:00 12.6 C 8.3 g/m*3 12.6 C 0 km/h
1866 05-06-2014 22:40:00 12.4 C 8.3 g/m*3 12.4 C 0 km/h
1867 05-06-2014 22:45:00 12.3 C 8.25 g/m*3 12.3 C 0 km/h
1868 05-06-2014 22:50:00 12.1 C 8.26 g/m*3 12.1 C 0 km/h
1869 05-06-2014 22:55:00 11.9 C 8.05 g/m*3 11.9 C 0 km/h
1870 05-06-2014 23:00:00 11.8 C 8 g/m*3 11.8 C 0 km/h
1871 05-06-2014 23:05:00 11.7 C 7.95 g/m*3 11.7 C 0 km/h
1872 05-06-2014 23:10:00 11.6 C 8 g/m*3 11.6 C 0 km/h
1873 05-06-2014 23:15:00 11.5 C 7.85 g/m*3 11.5 C 0 km/h
1874 05-06-2014 23:20:00 11.3 C 7.75 g/m*3 11.3 C 0 km/h
1875 05-06-2014 23:25:00 11.2 C 7.91 g/m*3 11.2 C 0 km/h
Sensor: Nr:Datum:Temp:Abs-Feuchte:Windchill:Wind:
Aussen-T/F 1876 05-06-2014 23:30:00 11.1 C 7.96 g/m*3 11.1 C 0 km/h
1877 05-06-2014 23:35:00 10.9 C 7.76 g/m*3 10.9 C 0 km/h
1878 05-06-2014 23:40:00 10.8 C 7.71 g/m*3 10.8 C 0 km/h
1879 05-06-2014 23:45:00 10.8 C 7.81 g/m*3 10.8 C 3.2 km/h
1880 05-06-2014 23:50:00 10.8 C 7.81 g/m*3 10.8 C 3.2 km/h
1881 05-06-2014 23:55:00 10.8 C 7.81 g/m*3 10.8 C 0 km/h
1882 06-06-2014 00:00:00 10.6 C 7.81 g/m*3 10.6 C 1.6 km/h
1883 06-06-2014 00:05:00 10.5 C 7.86 g/m*3 10.5 C 0 km/h
1884 06-06-2014 00:10:00 10.3 C 7.76 g/m*3 10.3 C 0 km/h
1885 06-06-2014 00:15:00 10.2 C 7.71 g/m*3 10.2 C 0 km/h
1886 06-06-2014 00:20:00 10.1 C 7.75 g/m*3 10.1 C 0 km/h
1887 06-06-2014 00:25:00 10 C 7.71 g/m*3 10 C 0 km/h
1888 06-06-2014 00:30:00 9.9 C 7.66 g/m*3 9.9 C 0 km/h
1889 06-06-2014 00:35:00 9.9 C 7.66 g/m*3 9.9 C 0 km/h
1890 06-06-2014 00:40:00 9.8 C 7.7 g/m*3 9.8 C 0 km/h
1891 06-06-2014 00:45:00 9.7 C 7.65 g/m*3 9.7 C 0 km/h
1892 06-06-2014 00:50:00 9.7 C 7.74 g/m*3 9.7 C 0 km/h
1893 06-06-2014 00:55:00 9.6 C 7.69 g/m*3 9.6 C 0 km/h
1894 06-06-2014 01:00:00 9.5 C 7.65 g/m*3 9.5 C 0 km/h
1895 06-06-2014 01:05:00 9.4 C 7.6 g/m*3 9.4 C 0 km/h
1896 06-06-2014 01:10:00 9.3 C 7.64 g/m*3 9.3 C 0 km/h
1897 06-06-2014 01:15:00 9.3 C 7.64 g/m*3 9.3 C 0 km/h
1898 06-06-2014 01:20:00 9.2 C 7.68 g/m*3 9.2 C 0 km/h
1899 06-06-2014 01:25:00 9.1 C 7.63 g/m*3 9.1 C 0 km/h
1900 06-06-2014 01:30:00 9.1 C 7.63 g/m*3 9.1 C 0 km/h
Sensor: Nr:Datum:Temp:Abs-Feuchte:Windchill:Wind:
Aussen-T/F 1901 06-06-2014 01:35:00 9.1 C 7.63 g/m*3 9.1 C 0 km/h
1902 06-06-2014 01:40:00 9.1 C 7.54 g/m*3 9.1 C 0 km/h
1903 06-06-2014 01:45:00 8.9 C 7.53 g/m*3 8.9 C 0 km/h
1904 06-06-2014 01:50:00 8.9 C 7.53 g/m*3 8.9 C 0 km/h
1905 06-06-2014 01:55:00 8.8 C 7.57 g/m*3 8.8 C 0 km/h
1906 06-06-2014 02:00:00 8.7 C 7.52 g/m*3 8.7 C 0 km/h
1907 06-06-2014 02:05:00 8.7 C 7.44 g/m*3 8.7 C 0 km/h
1908 06-06-2014 02:10:00 8.7 C 7.52 g/m*3 8.7 C 0 km/h
1909 06-06-2014 02:15:00 8.7 C 7.44 g/m*3 8.7 C 0 km/h
1910 06-06-2014 02:20:00 8.7 C 7.52 g/m*3 8.7 C 0 km/h
1911 06-06-2014 02:25:00 8.6 C 7.39 g/m*3 8.6 C 0 km/h
1912 06-06-2014 02:30:00 8.4 C 7.38 g/m*3 8.4 C 0 km/h
1913 06-06-2014 02:35:00 8.4 C 7.38 g/m*3 8.4 C 0 km/h
1914 06-06-2014 02:40:00 8.4 C 7.38 g/m*3 8.4 C 0 km/h
1915 06-06-2014 02:45:00 8.3 C 7.33 g/m*3 8.3 C 0 km/h
1916 06-06-2014 02:50:00 8.3 C 7.42 g/m*3 8.3 C 0 km/h
1917 06-06-2014 02:55:00 8.3 C 7.42 g/m*3 8.3 C 0 km/h
1918 06-06-2014 03:00:00 8.3 C 7.42 g/m*3 8.3 C 0 km/h
1919 06-06-2014 03:05:00 8.2 C 7.37 g/m*3 8.2 C 0 km/h
1920 06-06-2014 03:10:00 8.2 C 7.37 g/m*3 8.2 C 0 km/h
1921 06-06-2014 03:15:00 8.1 C 7.32 g/m*3 8.1 C 0 km/h
1922 06-06-2014 03:20:00 8.1 C 7.41 g/m*3 8.1 C 0 km/h
1923 06-06-2014 03:25:00 7.9 C 7.31 g/m*3 7.9 C 0 km/h
1924 06-06-2014 03:30:00 7.9 C 7.31 g/m*3 7.9 C 0 km/h
1925 06-06-2014 03:35:00 7.8 C 7.26 g/m*3 7.8 C 0 km/h
Sensor: Nr:Datum:Temp:Abs-Feuchte:Windchill:Wind:
Aussen-T/F 1926 06-06-2014 03:40:00 7.8 C 7.35 g/m*3 7.8 C 0 km/h
1927 06-06-2014 03:45:00 7.7 C 7.3 g/m*3 7.7 C 0 km/h
1928 06-06-2014 03:50:00 7.7 C 7.3 g/m*3 7.7 C 0 km/h
1929 06-06-2014 03:55:00 7.7 C 7.3 g/m*3 7.7 C 0 km/h
1930 06-06-2014 04:00:00 7.6 C 7.25 g/m*3 7.6 C 0 km/h
1931 06-06-2014 04:05:00 7.5 C 7.2 g/m*3 7.5 C 0 km/h
1932 06-06-2014 04:10:00 7.4 C 7.24 g/m*3 7.4 C 0 km/h
1933 06-06-2014 04:15:00 7.4 C 7.24 g/m*3 7.4 C 1.6 km/h
1934 06-06-2014 04:20:00 7.3 C 7.19 g/m*3 7.3 C 0 km/h
1935 06-06-2014 04:25:00 7.3 C 7.19 g/m*3 7.3 C 0 km/h
1936 06-06-2014 04:30:00 7.3 C 7.19 g/m*3 7.3 C 0 km/h
1937 06-06-2014 04:35:00 7.2 C 7.22 g/m*3 7.2 C 0 km/h
1938 06-06-2014 04:40:00 7.2 C 7.22 g/m*3 7.2 C 0 km/h
1939 06-06-2014 04:45:00 7.2 C 7.22 g/m*3 7.2 C 0 km/h
1940 06-06-2014 04:50:00 7.2 C 7.22 g/m*3 7.2 C 0 km/h
1941 06-06-2014 04:55:00 7.1 C 7.18 g/m*3 7.1 C 0 km/h
1942 06-06-2014 05:00:00 7.1 C 7.18 g/m*3 7.1 C 0 km/h
1943 06-06-2014 05:05:00 7 C 7.13 g/m*3 7 C 0 km/h
1944 06-06-2014 05:10:00 7.1 C 7.25 g/m*3 7.1 C 0 km/h
1945 06-06-2014 05:15:00 7 C 7.21 g/m*3 7 C 0 km/h
1946 06-06-2014 05:20:00 7 C 7.21 g/m*3 7 C 0 km/h
1947 06-06-2014 05:25:00 6.9 C 7.16 g/m*3 6.9 C 0 km/h
1948 06-06-2014 05:30:00 6.8 C 7.11 g/m*3 6.8 C 0 km/h
1949 06-06-2014 05:35:00 6.8 C 7.11 g/m*3 6.8 C 0 km/h
1950 06-06-2014 05:40:00 6.8 C 7.11 g/m*3 6.8 C 0 km/h
Sensor: Nr:Datum:Temp:Abs-Feuchte:Windchill:Wind:
Aussen-T/F 1951 06-06-2014 05:45:00 6.8 C 7.11 g/m*3 6.8 C 0 km/h
1952 06-06-2014 05:50:00 6.8 C 7.11 g/m*3 6.8 C 0 km/h
1953 06-06-2014 05:55:00 6.8 C 7.11 g/m*3 6.8 C 0 km/h
1954 06-06-2014 06:00:00 6.8 C 7.19 g/m*3 6.8 C 0 km/h
1955 06-06-2014 06:05:00 6.8 C 7.19 g/m*3 6.8 C 0 km/h
1956 06-06-2014 06:10:00 6.8 C 7.19 g/m*3 6.8 C 0 km/h
1957 06-06-2014 06:15:00 6.8 C 7.19 g/m*3 6.8 C 0 km/h
1958 06-06-2014 06:20:00 6.8 C 7.19 g/m*3 6.8 C 0 km/h
1959 06-06-2014 06:25:00 6.8 C 7.19 g/m*3 6.8 C 0 km/h
1960 06-06-2014 06:30:00 6.9 C 7.24 g/m*3 6.9 C 0 km/h
1961 06-06-2014 06:35:00 6.9 C 7.24 g/m*3 6.9 C 0 km/h
1962 06-06-2014 06:40:00 6.9 C 7.24 g/m*3 6.9 C 0 km/h
1963 06-06-2014 06:45:00 7 C 7.28 g/m*3 7 C 0 km/h
1964 06-06-2014 06:50:00 7.1 C 7.33 g/m*3 7.1 C 0 km/h
1965 06-06-2014 06:55:00 7.1 C 7.33 g/m*3 7.1 C 0 km/h
1966 06-06-2014 07:00:00 7.2 C 7.38 g/m*3 7.2 C 0 km/h
1967 06-06-2014 07:05:00 7.2 C 7.38 g/m*3 7.2 C 0 km/h
1968 06-06-2014 07:10:00 7.3 C 7.43 g/m*3 7.3 C 0 km/h
1969 06-06-2014 07:15:00 7.4 C 7.48 g/m*3 7.4 C 0 km/h
1970 06-06-2014 07:20:00 7.5 C 7.52 g/m*3 7.5 C 1.6 km/h
1971 06-06-2014 07:25:00 7.6 C 7.57 g/m*3 7.6 C 0 km/h
1972 06-06-2014 07:30:00 7.7 C 7.62 g/m*3 7.7 C 0 km/h
1973 06-06-2014 07:35:00 7.8 C 7.67 g/m*3 7.8 C 0 km/h
1974 06-06-2014 07:40:00 8 C 7.77 g/m*3 8 C 0 km/h
1975 06-06-2014 07:45:00 8.2 C 7.87 g/m*3 8.2 C 0 km/h
Sensor: Nr:Datum:Temp:Abs-Feuchte:Windchill:Wind:
Aussen-T/F 1976 06-06-2014 07:50:00 8.5 C 8.03 g/m*3 8.5 C 0 km/h
1977 06-06-2014 07:55:00 8.8 C 8.09 g/m*3 8.8 C 0 km/h
1978 06-06-2014 08:00:00 9.1 C 8.25 g/m*3 9.1 C 0 km/h
1979 06-06-2014 08:05:00 9.5 C 8.37 g/m*3 9.5 C 0 km/h
1980 06-06-2014 08:10:00 9.8 C 8.44 g/m*3 9.8 C 0 km/h
1981 06-06-2014 08:15:00 10.2 C 8.37 g/m*3 10.2 C 0 km/h
1982 06-06-2014 08:20:00 10.4 C 8.29 g/m*3 10.4 C 0 km/h
1983 06-06-2014 08:25:00 10.7 C 8.35 g/m*3 10.7 C 0 km/h
1984 06-06-2014 08:30:00 10.9 C 8.36 g/m*3 10.9 C 0 km/h
1985 06-06-2014 08:35:00 11.2 C 8.51 g/m*3 11.2 C 0 km/h
1986 06-06-2014 08:40:00 11.5 C 8.78 g/m*3 11.5 C 0 km/h
1987 06-06-2014 08:45:00 11.9 C 8.9 g/m*3 11.9 C 1.6 km/h
1988 06-06-2014 08:50:00 12.4 C 9.07 g/m*3 12.4 C 0 km/h
1989 06-06-2014 08:55:00 13 C 9.19 g/m*3 13 C 0 km/h
1990 06-06-2014 09:00:00 13.3 C 9.01 g/m*3 13.3 C 1.6 km/h
1991 06-06-2014 09:05:00 13.3 C 8.9 g/m*3 13.3 C 0 km/h
1992 06-06-2014 09:10:00 13.3 C 8.9 g/m*3 13.3 C 1.6 km/h
1993 06-06-2014 09:15:00 13.3 C 9.13 g/m*3 13.3 C 0 km/h
1994 06-06-2014 09:20:00 13.3 C 9.24 g/m*3 13.3 C 0 km/h
1995 06-06-2014 09:25:00 13.4 C 9.18 g/m*3 13.4 C 1.6 km/h
1996 06-06-2014 09:30:00 13.5 C 9.24 g/m*3 13.5 C 4.8 km/h
1997 06-06-2014 09:35:00 13.6 C 9.18 g/m*3 13.6 C 4.8 km/h
1998 06-06-2014 09:40:00 13.7 C 9.24 g/m*3 13.7 C 1.6 km/h
1999 06-06-2014 09:45:00 13.8 C 9.29 g/m*3 13.8 C 1.6 km/h
2000 06-06-2014 09:50:00 14.1 C 9.47 g/m*3 14.1 C 3.2 km/h
Sensor: Nr:Datum:Temp:Abs-Feuchte:Windchill:Wind:
Aussen-T/F 2001 06-06-2014 09:55:00 14.3 C 9.58 g/m*3 14.3 C 3.2 km/h
2002 06-06-2014 10:00:00 14.7 C 9.69 g/m*3 14.7 C 3.2 km/h
2003 06-06-2014 10:05:00 15.1 C 9.8 g/m*3 15.1 C 1.6 km/h
2004 06-06-2014 10:10:00 15.5 C 10.18 g/m*3 15.5 C 3.2 km/h
2005 06-06-2014 10:15:00 15.8 C 9.83 g/m*3 15.8 C 0 km/h
2006 06-06-2014 10:20:00 16.3 C 10.27 g/m*3 16.3 C 1.6 km/h
2007 06-06-2014 10:25:00 16.8 C 10.15 g/m*3 16.8 C 1.6 km/h
2008 06-06-2014 10:30:00 17.2 C 9.96 g/m*3 17.2 C 1.6 km/h
2009 06-06-2014 10:35:00 17.4 C 10.23 g/m*3 17.4 C 3.2 km/h
2010 06-06-2014 10:40:00 17.4 C 10.52 g/m*3 17.4 C 3.2 km/h
2011 06-06-2014 10:45:00 17.5 C 9.99 g/m*3 17.5 C 3.2 km/h
2012 06-06-2014 10:50:00 17.6 C 10.35 g/m*3 17.6 C 3.2 km/h
2013 06-06-2014 10:55:00 17.7 C 10.56 g/m*3 17.7 C 0 km/h
2014 06-06-2014 11:00:00 17.8 C 10.93 g/m*3 17.8 C 1.6 km/h
2015 06-06-2014 11:05:00 17.9 C 11.15 g/m*3 17.9 C 0 km/h
2016 06-06-2014 11:10:00 17.7 C 11.16 g/m*3 17.7 C 0 km/h
2017 06-06-2014 11:15:00 17.8 C 11.38 g/m*3 17.8 C 3.2 km/h
2018 06-06-2014 11:20:00 18.2 C 10.57 g/m*3 18.2 C 4.8 km/h
2019 06-06-2014 11:25:00 19.1 C 10.33 g/m*3 19.1 C 6.4 km/h
2020 06-06-2014 11:30:00 20.2 C 10.32 g/m*3 20.2 C 8.1 km/h
2021 06-06-2014 11:35:00 20.8 C 10.5 g/m*3 20.8 C 9.7 km/h
2022 06-06-2014 11:40:00 21.1 C 10.69 g/m*3 21.1 C 11.3 km/h
2023 06-06-2014 11:45:00 21.4 C 10.69 g/m*3 21.4 C 11.3 km/h
2024 06-06-2014 11:50:00 21.7 C 10.87 g/m*3 21.7 C 8.1 km/h
2025 06-06-2014 11:55:00 21.9 C 10.42 g/m*3 21.9 C 11.3 km/h
Sensor: Nr:Datum:Temp:Abs-Feuchte:Windchill:Wind:
Aussen-T/F 2026 06-06-2014 12:00:00 22.2 C 10.41 g/m*3 22.2 C 11.3 km/h
2027 06-06-2014 12:05:00 22.3 C 9.87 g/m*3 22.3 C 11.3 km/h
2028 06-06-2014 12:10:00 22.6 C 9.84 g/m*3 22.6 C 9.7 km/h
2029 06-06-2014 12:15:00 22.8 C 9.96 g/m*3 22.8 C 4.8 km/h
2030 06-06-2014 12:20:00 23.1 C 11.16 g/m*3 23.1 C 6.4 km/h
2031 06-06-2014 12:25:00 23.3 C 9.83 g/m*3 23.3 C 6.4 km/h
2032 06-06-2014 12:30:00 23.4 C 10.3 g/m*3 23.4 C 6.4 km/h
2033 06-06-2014 12:35:00 23.6 C 9.57 g/m*3 23.6 C 11.3 km/h
2034 06-06-2014 12:40:00 23.5 C 9.52 g/m*3 23.5 C 6.4 km/h
2035 06-06-2014 12:45:00 23.6 C 8.93 g/m*3 23.6 C 4.8 km/h
2036 06-06-2014 12:50:00 23.8 C 9.25 g/m*3 23.8 C 4.8 km/h
2037 06-06-2014 12:55:00 23.9 C 8.65 g/m*3 23.9 C 4.8 km/h
2038 06-06-2014 13:00:00 24.1 C 8.97 g/m*3 24.1 C 3.2 km/h
2039 06-06-2014 13:05:00 24.3 C 9.52 g/m*3 24.3 C 6.4 km/h
2040 06-06-2014 13:10:00 24.5 C 10.07 g/m*3 24.5 C 8.1 km/h
2041 06-06-2014 13:15:00 24.6 C 8.78 g/m*3 24.6 C 6.4 km/h
2042 06-06-2014 13:20:00 24.4 C 9.79 g/m*3 24.4 C 8.1 km/h
2043 06-06-2014 13:25:00 24.7 C 9.05 g/m*3 24.7 C 6.4 km/h
2044 06-06-2014 13:30:00 24.8 C 10.02 g/m*3 24.8 C 6.4 km/h
2045 06-06-2014 13:35:00 25 C 9.21 g/m*3 25 C 9.7 km/h
2046 06-06-2014 13:40:00 25 C 9.44 g/m*3 25 C 11.3 km/h
2047 06-06-2014 13:45:00 24.8 C 9.79 g/m*3 24.8 C 6.4 km/h
2048 06-06-2014 13:50:00 25 C 8.75 g/m*3 25 C 6.4 km/h
2049 06-06-2014 13:55:00 25.3 C 10.07 g/m*3 25.3 C 6.4 km/h
2050 06-06-2014 14:00:00 25.6 C 9.28 g/m*3 25.6 C 6.4 km/h
Sensor: Nr:Datum:Temp:Abs-Feuchte:Windchill:Wind:
Aussen-T/F 2051 06-06-2014 14:05:00 25.6 C 10 g/m*3 25.6 C 9.7 km/h
2052 06-06-2014 14:10:00 25.7 C 10.29 g/m*3 25.7 C 6.4 km/h
2053 06-06-2014 14:15:00 25.8 C 9.87 g/m*3 25.8 C 11.3 km/h
2054 06-06-2014 14:20:00 25.8 C 9.39 g/m*3 25.8 C 14.5 km/h
2055 06-06-2014 14:25:00 25.9 C 9.44 g/m*3 25.9 C 14.5 km/h
2056 06-06-2014 14:30:00 26 C 9.98 g/m*3 26 C 14.5 km/h
2057 06-06-2014 14:35:00 26.1 C 9.79 g/m*3 26.1 C 12.9 km/h
2058 06-06-2014 14:40:00 26.2 C 10.34 g/m*3 26.2 C 11.3 km/h
2059 06-06-2014 14:45:00 26.2 C 10.09 g/m*3 26.2 C 11.3 km/h
2060 06-06-2014 14:50:00 26.3 C 9.9 g/m*3 26.3 C 6.4 km/h
2061 06-06-2014 14:55:00 26.4 C 10.21 g/m*3 26.4 C 6.4 km/h
2062 06-06-2014 15:00:00 26.7 C 9.87 g/m*3 26.7 C 6.4 km/h
2063 06-06-2014 15:05:00 26.6 C 9.57 g/m*3 26.6 C 6.4 km/h
2064 06-06-2014 15:10:00 26.5 C 10.01 g/m*3 26.5 C 8.1 km/h
2065 06-06-2014 15:15:00 26.6 C 9.82 g/m*3 26.6 C 4.8 km/h
2066 06-06-2014 15:20:00 26.7 C 9.11 g/m*3 26.7 C 8.1 km/h
2067 06-06-2014 15:25:00 26.7 C 9.37 g/m*3 26.7 C 4.8 km/h
2068 06-06-2014 15:30:00 26.7 C 9.62 g/m*3 26.7 C 4.8 km/h
2069 06-06-2014 15:35:00 26.8 C 9.42 g/m*3 26.8 C 11.3 km/h
2070 06-06-2014 15:40:00 26.9 C 9.73 g/m*3 26.9 C 8.1 km/h
2071 06-06-2014 15:45:00 27.4 C 10.52 g/m*3 27.4 C 6.4 km/h
2072 06-06-2014 15:50:00 27.8 C 10.22 g/m*3 27.8 C 6.4 km/h
2073 06-06-2014 15:55:00 27.8 C 10.22 g/m*3 27.8 C 8.1 km/h
2074 06-06-2014 16:00:00 27.8 C 10.22 g/m*3 27.8 C 12.9 km/h
2075 06-06-2014 16:05:00 27.6 C 9.31 g/m*3 27.6 C 9.7 km/h
Sensor: Nr:Datum:Temp:Abs-Feuchte:Windchill:Wind:
Aussen-T/F 2076 06-06-2014 16:10:00 27.3 C 11.25 g/m*3 27.3 C 6.4 km/h
2077 06-06-2014 16:15:00 27.1 C 9.32 g/m*3 27.1 C 4.8 km/h
2078 06-06-2014 16:20:00 27.2 C 10.15 g/m*3 27.2 C 9.7 km/h
2079 06-06-2014 16:25:00 27.8 C 9.68 g/m*3 27.8 C 9.7 km/h
2080 06-06-2014 16:30:00 28.2 C 10.17 g/m*3 28.2 C 11.3 km/h
2081 06-06-2014 16:35:00 27.8 C 10.49 g/m*3 27.8 C 6.4 km/h
2082 06-06-2014 16:40:00 27.3 C 9.68 g/m*3 27.3 C 3.2 km/h
2083 06-06-2014 16:45:00 27.2 C 9.63 g/m*3 27.2 C 6.4 km/h
2084 06-06-2014 16:50:00 27.4 C 9.21 g/m*3 27.4 C 3.2 km/h
2085 06-06-2014 16:55:00 27.4 C 9.21 g/m*3 27.4 C 4.8 km/h
2086 06-06-2014 17:00:00 27.2 C 9.63 g/m*3 27.2 C 4.8 km/h
2087 06-06-2014 17:05:00 27.5 C 10.58 g/m*3 27.5 C 11.3 km/h
2088 06-06-2014 17:10:00 27.9 C 9.74 g/m*3 27.9 C 3.2 km/h
2089 06-06-2014 17:15:00 28.1 C 9.3 g/m*3 28.1 C 3.2 km/h
2090 06-06-2014 17:20:00 27.8 C 8.88 g/m*3 27.8 C 3.2 km/h
2091 06-06-2014 17:25:00 27.7 C 10.16 g/m*3 27.7 C 0 km/h
2092 06-06-2014 17:30:00 27.9 C 9.74 g/m*3 27.9 C 6.4 km/h
2093 06-06-2014 17:35:00 27.8 C 11.57 g/m*3 27.8 C 6.4 km/h
2094 06-06-2014 17:40:00 27 C 11.58 g/m*3 27 C 1.6 km/h
2095 06-06-2014 17:45:00 25.8 C 12.76 g/m*3 25.8 C 1.6 km/h
2096 06-06-2014 17:50:00 25.7 C 10.53 g/m*3 25.7 C 8.1 km/h
2097 06-06-2014 17:55:00 26.4 C 11.7 g/m*3 26.4 C 8.1 km/h
2098 06-06-2014 18:00:00 27.3 C 10.2 g/m*3 27.3 C 8.1 km/h
2099 06-06-2014 18:05:00 27.8 C 11.03 g/m*3 27.8 C 11.3 km/h
2100 06-06-2014 18:10:00 28.1 C 10.94 g/m*3 28.1 C 8.1 km/h
Sensor: Nr:Datum:Temp:Abs-Feuchte:Windchill:Wind:
Aussen-T/F 2101 06-06-2014 18:15:00 28.2 C 10.45 g/m*3 28.2 C 9.7 km/h
2102 06-06-2014 18:20:00 28.1 C 10.12 g/m*3 28.1 C 11.3 km/h
2103 06-06-2014 18:25:00 28.2 C 10.45 g/m*3 28.2 C 9.7 km/h
2104 06-06-2014 18:30:00 28.3 C 10.23 g/m*3 28.3 C 11.3 km/h
2105 06-06-2014 18:35:00 28.4 C 10.56 g/m*3 28.4 C 6.4 km/h
2106 06-06-2014 18:40:00 28.3 C 10.51 g/m*3 28.3 C 9.7 km/h
2107 06-06-2014 18:45:00 28 C 9.79 g/m*3 28 C 8.1 km/h
2108 06-06-2014 18:50:00 28.1 C 10.39 g/m*3 28.1 C 9.7 km/h
2109 06-06-2014 18:55:00 28.1 C 11.76 g/m*3 28.1 C 6.4 km/h
2110 06-06-2014 19:00:00 28 C 10.88 g/m*3 28 C 8.1 km/h
2111 06-06-2014 19:05:00 28.1 C 10.66 g/m*3 28.1 C 6.4 km/h
2112 06-06-2014 19:10:00 27.9 C 10.01 g/m*3 27.9 C 6.4 km/h
2113 06-06-2014 19:15:00 27.6 C 10.11 g/m*3 27.6 C 8.1 km/h
2114 06-06-2014 19:20:00 27.3 C 10.2 g/m*3 27.3 C 9.7 km/h
2115 06-06-2014 19:25:00 27.1 C 10.35 g/m*3 27.1 C 9.7 km/h
2116 06-06-2014 19:30:00 26.7 C 12.4 g/m*3 26.7 C 6.4 km/h
2117 06-06-2014 19:35:00 26 C 12.17 g/m*3 26 C 0 km/h
2118 06-06-2014 19:40:00 25.3 C 12.17 g/m*3 25.3 C 1.6 km/h
2119 06-06-2014 19:45:00 24.8 C 11.61 g/m*3 24.8 C 4.8 km/h
2120 06-06-2014 19:50:00 24.6 C 10.58 g/m*3 24.6 C 4.8 km/h
2121 06-06-2014 19:55:00 24.6 C 13.05 g/m*3 24.6 C 1.6 km/h
2122 06-06-2014 20:00:00 24.2 C 12.76 g/m*3 24.2 C 1.6 km/h
2123 06-06-2014 20:05:00 23.9 C 12.55 g/m*3 23.9 C 1.6 km/h
2124 06-06-2014 20:10:00 23.6 C 12.97 g/m*3 23.6 C 3.2 km/h
2125 06-06-2014 20:15:00 23 C 12.74 g/m*3 23 C 0 km/h
Sensor: Nr:Datum:Temp:Abs-Feuchte:Windchill:Wind:
Aussen-T/F 2126 06-06-2014 20:20:00 22.6 C 12.86 g/m*3 22.6 C 1.6 km/h
2127 06-06-2014 20:25:00 22.3 C 12.64 g/m*3 22.3 C 0 km/h
2128 06-06-2014 20:30:00 22 C 12.42 g/m*3 22 C 1.6 km/h
2129 06-06-2014 20:35:00 21.8 C 12.66 g/m*3 21.8 C 0 km/h
2130 06-06-2014 20:40:00 21.6 C 12.52 g/m*3 21.6 C 0 km/h
2131 06-06-2014 20:45:00 21.4 C 12.19 g/m*3 21.4 C 1.6 km/h
2132 06-06-2014 20:50:00 21.3 C 12.49 g/m*3 21.3 C 1.6 km/h
2133 06-06-2014 20:55:00 21.2 C 12.6 g/m*3 21.2 C 0 km/h
2134 06-06-2014 21:00:00 21 C 12.27 g/m*3 21 C 1.6 km/h
2135 06-06-2014 21:05:00 20.8 C 12.31 g/m*3 20.8 C 1.6 km/h
2136 06-06-2014 21:10:00 20.4 C 12.21 g/m*3 20.4 C 0 km/h
2137 06-06-2014 21:15:00 20.2 C 11.89 g/m*3 20.2 C 1.6 km/h
2138 06-06-2014 21:20:00 19.9 C 11.85 g/m*3 19.9 C 0 km/h
2139 06-06-2014 21:25:00 19.7 C 11.89 g/m*3 19.7 C 1.6 km/h
2140 06-06-2014 21:30:00 19.6 C 11.99 g/m*3 19.6 C 1.6 km/h
2141 06-06-2014 21:35:00 19.3 C 11.61 g/m*3 19.3 C 1.6 km/h
2142 06-06-2014 21:40:00 19.2 C 11.71 g/m*3 19.2 C 1.6 km/h
2143 06-06-2014 21:45:00 19.1 C 11.8 g/m*3 19.1 C 1.6 km/h
2144 06-06-2014 21:50:00 18.9 C 11.5 g/m*3 18.9 C 1.6 km/h
2145 06-06-2014 21:55:00 18.8 C 11.76 g/m*3 18.8 C 1.6 km/h
2146 06-06-2014 22:00:00 18.7 C 11.53 g/m*3 18.7 C 1.6 km/h
2147 06-06-2014 22:05:00 18.6 C 11.62 g/m*3 18.6 C 1.6 km/h
2148 06-06-2014 22:10:00 18.4 C 11.32 g/m*3 18.4 C 1.6 km/h
2149 06-06-2014 22:15:00 18.4 C 11.48 g/m*3 18.4 C 0 km/h
2150 06-06-2014 22:20:00 18.3 C 11.26 g/m*3 18.3 C 0 km/h
Sensor: Nr:Datum:Temp:Abs-Feuchte:Windchill:Wind:
Aussen-T/F 2151 06-06-2014 22:25:00 18.2 C 11.35 g/m*3 18.2 C 0 km/h
2152 06-06-2014 22:30:00 18.1 C 11.59 g/m*3 18.1 C 1.6 km/h
2153 06-06-2014 22:35:00 18 C 11.37 g/m*3 18 C 1.6 km/h
2154 06-06-2014 22:40:00 17.9 C 11.15 g/m*3 17.9 C 0 km/h
2155 06-06-2014 22:45:00 17.9 C 10.84 g/m*3 17.9 C 0 km/h
2156 06-06-2014 22:50:00 17.9 C 11.15 g/m*3 17.9 C 0 km/h
2157 06-06-2014 22:55:00 17.8 C 11.38 g/m*3 17.8 C 1.6 km/h
2158 06-06-2014 23:00:00 17.7 C 11.32 g/m*3 17.7 C 1.6 km/h
2159 06-06-2014 23:05:00 17.6 C 11.1 g/m*3 17.6 C 1.6 km/h
2160 06-06-2014 23:10:00 17.5 C 10.88 g/m*3 17.5 C 0 km/h
2161 06-06-2014 23:15:00 17.4 C 11.26 g/m*3 17.4 C 0 km/h
2162 06-06-2014 23:20:00 17.4 C 11.26 g/m*3 17.4 C 0 km/h
2163 06-06-2014 23:25:00 17.3 C 11.34 g/m*3 17.3 C 1.6 km/h
2164 06-06-2014 23:30:00 17.2 C 10.84 g/m*3 17.2 C 0 km/h
2165 06-06-2014 23:35:00 17.2 C 10.69 g/m*3 17.2 C 0 km/h
2166 06-06-2014 23:40:00 17.2 C 11.13 g/m*3 17.2 C 0 km/h
2167 06-06-2014 23:45:00 17.1 C 10.92 g/m*3 17.1 C 0 km/h
2168 06-06-2014 23:50:00 16.8 C 10.87 g/m*3 16.8 C 0 km/h
2169 06-06-2014 23:55:00 16.7 C 10.94 g/m*3 16.7 C 0 km/h
2170 07-06-2014 00:00:00 16.5 C 10.81 g/m*3 16.5 C 0 km/h
2171 07-06-2014 00:05:00 16.4 C 10.47 g/m*3 16.4 C 0 km/h
2172 07-06-2014 00:10:00 16.4 C 10.47 g/m*3 16.4 C 0 km/h
2173 07-06-2014 00:15:00 16.3 C 10.54 g/m*3 16.3 C 0 km/h
2174 07-06-2014 00:20:00 16.2 C 10.48 g/m*3 16.2 C 3.2 km/h
2175 07-06-2014 00:25:00 16.1 C 10.55 g/m*3 16.1 C 1.6 km/h
Sensor: Nr:Datum:Temp:Abs-Feuchte:Windchill:Wind:
Aussen-T/F 2176 07-06-2014 00:30:00 15.9 C 10.43 g/m*3 15.9 C 0 km/h
2177 07-06-2014 00:35:00 15.8 C 10.5 g/m*3 15.8 C 0 km/h
2178 07-06-2014 00:40:00 15.7 C 10.57 g/m*3 15.7 C 0 km/h
2179 07-06-2014 00:45:00 15.6 C 10.64 g/m*3 15.6 C 0 km/h
2180 07-06-2014 00:50:00 15.4 C 10.38 g/m*3 15.4 C 0 km/h
2181 07-06-2014 00:55:00 15.2 C 10.38 g/m*3 15.2 C 0 km/h
2182 07-06-2014 01:00:00 15.2 C 10.38 g/m*3 15.2 C 0 km/h
2183 07-06-2014 01:05:00 15.1 C 10.45 g/m*3 15.1 C 0 km/h
2184 07-06-2014 01:10:00 15.1 C 10.45 g/m*3 15.1 C 0 km/h
2185 07-06-2014 01:15:00 14.9 C 10.32 g/m*3 14.9 C 0 km/h
2186 07-06-2014 01:20:00 14.9 C 10.32 g/m*3 14.9 C 0 km/h
2187 07-06-2014 01:25:00 14.8 C 10.39 g/m*3 14.8 C 0 km/h
2188 07-06-2014 01:30:00 14.8 C 10.39 g/m*3 14.8 C 0 km/h
2189 07-06-2014 01:35:00 14.6 C 10.26 g/m*3 14.6 C 0 km/h
2190 07-06-2014 01:40:00 14.5 C 10.32 g/m*3 14.5 C 0 km/h
2191 07-06-2014 01:45:00 14.4 C 10.26 g/m*3 14.4 C 0 km/h
2192 07-06-2014 01:50:00 14.2 C 10.01 g/m*3 14.2 C 0 km/h
2193 07-06-2014 01:55:00 14.1 C 9.95 g/m*3 14.1 C 0 km/h
2194 07-06-2014 02:00:00 14.1 C 10.07 g/m*3 14.1 C 0 km/h
2195 07-06-2014 02:05:00 14 C 10.01 g/m*3 14 C 0 km/h
2196 07-06-2014 02:10:00 14 C 10.01 g/m*3 14 C 0 km/h
2197 07-06-2014 02:15:00 14 C 10.13 g/m*3 14 C 0 km/h
2198 07-06-2014 02:20:00 14 C 10.01 g/m*3 14 C 0 km/h
2199 07-06-2014 02:25:00 14 C 10.01 g/m*3 14 C 0 km/h
2200 07-06-2014 02:30:00 14 C 10.01 g/m*3 14 C 0 km/h
Sensor: Nr:Datum:Temp:Abs-Feuchte:Windchill:Wind:
Aussen-T/F 2201 07-06-2014 02:35:00 13.9 C 9.95 g/m*3 13.9 C 0 km/h
2202 07-06-2014 02:40:00 13.8 C 10.01 g/m*3 13.8 C 0 km/h
2203 07-06-2014 02:45:00 13.7 C 9.95 g/m*3 13.7 C 0 km/h
2204 07-06-2014 02:50:00 13.7 C 9.95 g/m*3 13.7 C 0 km/h
2205 07-06-2014 02:55:00 13.6 C 10 g/m*3 13.6 C 0 km/h
2206 07-06-2014 03:00:00 13.5 C 9.94 g/m*3 13.5 C 0 km/h
2207 07-06-2014 03:05:00 13.4 C 9.88 g/m*3 13.4 C 0 km/h
2208 07-06-2014 03:10:00 13.4 C 9.88 g/m*3 13.4 C 0 km/h
2209 07-06-2014 03:15:00 13.3 C 9.94 g/m*3 13.3 C 0 km/h
2210 07-06-2014 03:20:00 13.3 C 9.94 g/m*3 13.3 C 0 km/h
2211 07-06-2014 03:25:00 13.2 C 9.87 g/m*3 13.2 C 0 km/h
2212 07-06-2014 03:30:00 13.1 C 9.81 g/m*3 13.1 C 0 km/h
2213 07-06-2014 03:35:00 12.9 C 9.81 g/m*3 12.9 C 0 km/h
2214 07-06-2014 03:40:00 12.9 C 9.81 g/m*3 12.9 C 0 km/h
2215 07-06-2014 03:45:00 12.8 C 9.74 g/m*3 12.8 C 0 km/h
2216 07-06-2014 03:50:00 12.8 C 9.74 g/m*3 12.8 C 0 km/h
2217 07-06-2014 03:55:00 12.8 C 9.74 g/m*3 12.8 C 0 km/h
2218 07-06-2014 04:00:00 12.7 C 9.68 g/m*3 12.7 C 0 km/h
2219 07-06-2014 04:05:00 12.7 C 9.68 g/m*3 12.7 C 0 km/h
2220 07-06-2014 04:10:00 12.7 C 9.8 g/m*3 12.7 C 0 km/h
2221 07-06-2014 04:15:00 12.6 C 9.74 g/m*3 12.6 C 0 km/h
2222 07-06-2014 04:20:00 12.5 C 9.68 g/m*3 12.5 C 0 km/h
2223 07-06-2014 04:25:00 12.4 C 9.72 g/m*3 12.4 C 0 km/h
2224 07-06-2014 04:30:00 12.4 C 9.72 g/m*3 12.4 C 0 km/h
2225 07-06-2014 04:35:00 12.3 C 9.77 g/m*3 12.3 C 0 km/h
Sensor: Nr:Datum:Temp:Abs-Feuchte:Windchill:Wind:
Aussen-T/F 2226 07-06-2014 04:40:00 12.3 C 9.66 g/m*3 12.3 C 0 km/h
2227 07-06-2014 04:45:00 12.3 C 9.66 g/m*3 12.3 C 0 km/h
2228 07-06-2014 04:50:00 12.2 C 9.6 g/m*3 12.2 C 0 km/h
2229 07-06-2014 04:55:00 12.2 C 9.6 g/m*3 12.2 C 0 km/h
2230 07-06-2014 05:00:00 12.2 C 9.6 g/m*3 12.2 C 0 km/h
2231 07-06-2014 05:05:00 12.2 C 9.71 g/m*3 12.2 C 0 km/h
2232 07-06-2014 05:10:00 12.1 C 9.65 g/m*3 12.1 C 0 km/h
2233 07-06-2014 05:15:00 12.1 C 9.65 g/m*3 12.1 C 0 km/h
2234 07-06-2014 05:20:00 12.1 C 9.65 g/m*3 12.1 C 0 km/h
2235 07-06-2014 05:25:00 12.1 C 9.76 g/m*3 12.1 C 0 km/h
2236 07-06-2014 05:30:00 12.1 C 9.76 g/m*3 12.1 C 0 km/h
2237 07-06-2014 05:35:00 12.1 C 9.76 g/m*3 12.1 C 0 km/h
2238 07-06-2014 05:40:00 12 C 9.7 g/m*3 12 C 0 km/h
2239 07-06-2014 05:45:00 12 C 9.7 g/m*3 12 C 0 km/h
2240 07-06-2014 05:50:00 12 C 9.7 g/m*3 12 C 0 km/h
2241 07-06-2014 05:55:00 12.1 C 9.76 g/m*3 12.1 C 0 km/h
2242 07-06-2014 06:00:00 12.1 C 9.76 g/m*3 12.1 C 0 km/h
2243 07-06-2014 06:05:00 12.1 C 9.76 g/m*3 12.1 C 0 km/h
2244 07-06-2014 06:10:00 12.2 C 9.82 g/m*3 12.2 C 0 km/h
2245 07-06-2014 06:15:00 12.2 C 9.82 g/m*3 12.2 C 0 km/h
2246 07-06-2014 06:20:00 12.2 C 9.82 g/m*3 12.2 C 0 km/h
2247 07-06-2014 06:25:00 12.2 C 9.82 g/m*3 12.2 C 0 km/h
2248 07-06-2014 06:30:00 12.2 C 9.93 g/m*3 12.2 C 0 km/h
2249 07-06-2014 06:35:00 12.2 C 9.93 g/m*3 12.2 C 0 km/h
2250 07-06-2014 06:40:00 12.2 C 9.93 g/m*3 12.2 C 0 km/h
Sensor: Nr:Datum:Temp:Abs-Feuchte:Windchill:Wind:
Aussen-T/F 2251 07-06-2014 06:45:00 12.3 C 9.99 g/m*3 12.3 C 0 km/h
2252 07-06-2014 06:50:00 12.3 C 9.99 g/m*3 12.3 C 0 km/h
2253 07-06-2014 06:55:00 12.4 C 10.05 g/m*3 12.4 C 0 km/h
2254 07-06-2014 07:00:00 12.6 C 10.18 g/m*3 12.6 C 0 km/h
2255 07-06-2014 07:05:00 12.7 C 10.24 g/m*3 12.7 C 0 km/h
2256 07-06-2014 07:10:00 12.8 C 10.19 g/m*3 12.8 C 0 km/h
2257 07-06-2014 07:15:00 12.9 C 10.26 g/m*3 12.9 C 0 km/h
2258 07-06-2014 07:20:00 13.1 C 10.38 g/m*3 13.1 C 0 km/h
2259 07-06-2014 07:25:00 13.1 C 10.27 g/m*3 13.1 C 0 km/h
2260 07-06-2014 07:30:00 13.2 C 10.33 g/m*3 13.2 C 0 km/h
2261 07-06-2014 07:35:00 13.3 C 10.4 g/m*3 13.3 C 0 km/h
2262 07-06-2014 07:40:00 13.4 C 10.46 g/m*3 13.4 C 0 km/h
2263 07-06-2014 07:45:00 13.6 C 10.71 g/m*3 13.6 C 0 km/h
2264 07-06-2014 07:50:00 13.8 C 10.72 g/m*3 13.8 C 0 km/h
2265 07-06-2014 07:55:00 14.1 C 10.68 g/m*3 14.1 C 1.6 km/h
2266 07-06-2014 08:00:00 14.4 C 10.88 g/m*3 14.4 C 0 km/h
2267 07-06-2014 08:05:00 14.6 C 10.89 g/m*3 14.6 C 0 km/h
2268 07-06-2014 08:10:00 14.9 C 11.09 g/m*3 14.9 C 0 km/h
2269 07-06-2014 08:15:00 15.2 C 11.16 g/m*3 15.2 C 0 km/h
2270 07-06-2014 08:20:00 15.6 C 11.17 g/m*3 15.6 C 0 km/h
2271 07-06-2014 08:25:00 15.8 C 11.31 g/m*3 15.8 C 0 km/h
2272 07-06-2014 08:30:00 16.1 C 11.38 g/m*3 16.1 C 0 km/h
2273 07-06-2014 08:35:00 16.3 C 11.52 g/m*3 16.3 C 0 km/h
2274 07-06-2014 08:40:00 16.4 C 11.45 g/m*3 16.4 C 0 km/h
2275 07-06-2014 08:45:00 16.7 C 11.51 g/m*3 16.7 C 0 km/h
Sensor: Nr:Datum:Temp:Abs-Feuchte:Windchill:Wind:
Aussen-T/F 2276 07-06-2014 08:50:00 16.8 C 11.58 g/m*3 16.8 C 0 km/h
2277 07-06-2014 08:55:00 17.1 C 11.65 g/m*3 17.1 C 0 km/h
2278 07-06-2014 09:00:00 17.3 C 11.93 g/m*3 17.3 C 1.6 km/h
2279 07-06-2014 09:05:00 17.5 C 11.78 g/m*3 17.5 C 0 km/h
2280 07-06-2014 09:10:00 17.7 C 11.92 g/m*3 17.7 C 0 km/h
2281 07-06-2014 09:15:00 17.4 C 11.86 g/m*3 17.4 C 0 km/h
2282 07-06-2014 09:20:00 17.4 C 11.86 g/m*3 17.4 C 0 km/h
2283 07-06-2014 09:25:00 17.4 C 12 g/m*3 17.4 C 0 km/h
2284 07-06-2014 09:30:00 17.3 C 12.08 g/m*3 17.3 C 0 km/h
2285 07-06-2014 09:35:00 17.2 C 12.01 g/m*3 17.2 C 0 km/h
2286 07-06-2014 09:40:00 17.3 C 12.08 g/m*3 17.3 C 0 km/h
2287 07-06-2014 09:45:00 17.4 C 12.3 g/m*3 17.4 C 0 km/h
2288 07-06-2014 09:50:00 17.6 C 12.45 g/m*3 17.6 C 0 km/h
2289 07-06-2014 09:55:00 18 C 12.59 g/m*3 18 C 0 km/h
2290 07-06-2014 10:00:00 18.4 C 12.74 g/m*3 18.4 C 0 km/h
2291 07-06-2014 10:05:00 18.9 C 12.96 g/m*3 18.9 C 0 km/h
2292 07-06-2014 10:10:00 19.3 C 13.1 g/m*3 19.3 C 0 km/h
2293 07-06-2014 10:15:00 19.8 C 13.32 g/m*3 19.8 C 0 km/h
2294 07-06-2014 10:20:00 20 C 13.48 g/m*3 20 C 0 km/h
2295 07-06-2014 10:25:00 20.4 C 13.44 g/m*3 20.4 C 0 km/h
2296 07-06-2014 10:30:00 20.6 C 13.42 g/m*3 20.6 C 0 km/h
2297 07-06-2014 10:35:00 20.8 C 13.76 g/m*3 20.8 C 0 km/h
2298 07-06-2014 10:40:00 21.1 C 13.82 g/m*3 21.1 C 0 km/h
2299 07-06-2014 10:45:00 21.4 C 13.87 g/m*3 21.4 C 0 km/h
2300 07-06-2014 10:50:00 21.4 C 14.25 g/m*3 21.4 C 0 km/h
Sensor: Nr:Datum:Temp:Abs-Feuchte:Windchill:Wind:
Aussen-T/F 2301 07-06-2014 10:55:00 21.6 C 14.41 g/m*3 21.6 C 0 km/h
2302 07-06-2014 11:00:00 21.8 C 14.2 g/m*3 21.8 C 1.6 km/h
2303 07-06-2014 11:05:00 21.8 C 14.58 g/m*3 21.8 C 0 km/h
2304 07-06-2014 11:10:00 22.1 C 14.64 g/m*3 22.1 C 1.6 km/h
2305 07-06-2014 11:15:00 22.9 C 14.31 g/m*3 22.9 C 3.2 km/h
2306 07-06-2014 11:20:00 23.8 C 14.84 g/m*3 23.8 C 4.8 km/h
2307 07-06-2014 11:25:00 24.2 C 15.18 g/m*3 24.2 C 1.6 km/h
2308 07-06-2014 11:30:00 24.8 C 13.88 g/m*3 24.8 C 4.8 km/h
2309 07-06-2014 11:35:00 25.4 C 13.42 g/m*3 25.4 C 6.4 km/h
2310 07-06-2014 11:40:00 26.2 C 13.05 g/m*3 26.2 C 9.7 km/h
2311 07-06-2014 11:45:00 26.9 C 14.08 g/m*3 26.9 C 8.1 km/h
2312 07-06-2014 11:50:00 27.4 C 13.16 g/m*3 27.4 C 1.6 km/h
2313 07-06-2014 11:55:00 27.7 C 13.37 g/m*3 27.7 C 3.2 km/h
2314 07-06-2014 12:00:00 27.8 C 13.99 g/m*3 27.8 C 4.8 km/h
2315 07-06-2014 12:05:00 28.1 C 13.4 g/m*3 28.1 C 8.1 km/h
2316 07-06-2014 12:10:00 28.7 C 14.69 g/m*3 28.7 C 8.1 km/h
2317 07-06-2014 12:15:00 28.8 C 12.79 g/m*3 28.8 C 4.8 km/h
2318 07-06-2014 12:20:00 28.7 C 14.13 g/m*3 28.7 C 4.8 km/h
2319 07-06-2014 12:25:00 28.5 C 13.42 g/m*3 28.5 C 4.8 km/h
2320 07-06-2014 12:30:00 28.5 C 12.58 g/m*3 28.5 C 6.4 km/h
2321 07-06-2014 12:35:00 28.6 C 12.93 g/m*3 28.6 C 6.4 km/h
2322 07-06-2014 12:40:00 28.7 C 12.72 g/m*3 28.7 C 6.4 km/h
2323 07-06-2014 12:45:00 28.9 C 14.57 g/m*3 28.9 C 6.4 km/h
2324 07-06-2014 12:50:00 29.1 C 12.71 g/m*3 29.1 C 4.8 km/h
2325 07-06-2014 12:55:00 29.2 C 13.94 g/m*3 29.2 C 6.4 km/h
Sensor: Nr:Datum:Temp:Abs-Feuchte:Windchill:Wind:
Aussen-T/F 2326 07-06-2014 13:00:00 29.2 C 12.2 g/m*3 29.2 C 6.4 km/h
2327 07-06-2014 13:05:00 29.2 C 13.36 g/m*3 29.2 C 4.8 km/h
2328 07-06-2014 13:10:00 29.3 C 14.31 g/m*3 29.3 C 3.2 km/h
2329 07-06-2014 13:15:00 29.4 C 13.8 g/m*3 29.4 C 8.1 km/h
2330 07-06-2014 13:20:00 29.6 C 12.46 g/m*3 29.6 C 8.1 km/h
2331 07-06-2014 13:25:00 29.8 C 13.2 g/m*3 29.8 C 4.8 km/h
2332 07-06-2014 13:30:00 30.1 C 12.5 g/m*3 30.1 C 4.8 km/h
2333 07-06-2014 13:35:00 30.3 C 12.94 g/m*3 30.3 C 3.2 km/h
2334 07-06-2014 13:40:00 30.2 C 15.02 g/m*3 30.2 C 8.1 km/h
2335 07-06-2014 13:45:00 30.4 C 13.94 g/m*3 30.4 C 8.1 km/h
2336 07-06-2014 13:50:00 30.3 C 12.33 g/m*3 30.3 C 8.1 km/h
2337 07-06-2014 13:55:00 30.1 C 12.81 g/m*3 30.1 C 8.1 km/h
2338 07-06-2014 14:00:00 30.2 C 12.57 g/m*3 30.2 C 6.4 km/h
2339 07-06-2014 14:05:00 30.3 C 13.25 g/m*3 30.3 C 3.2 km/h
2340 07-06-2014 14:10:00 30.4 C 12.7 g/m*3 30.4 C 9.7 km/h
2341 07-06-2014 14:15:00 30.6 C 12.53 g/m*3 30.6 C 3.2 km/h
2342 07-06-2014 14:20:00 30.6 C 13.47 g/m*3 30.6 C 11.3 km/h
2343 07-06-2014 14:25:00 30.7 C 12.91 g/m*3 30.7 C 9.7 km/h
2344 07-06-2014 14:30:00 30.7 C 11.34 g/m*3 30.7 C 6.4 km/h
2345 07-06-2014 14:35:00 30.7 C 11.34 g/m*3 30.7 C 8.1 km/h
2346 07-06-2014 14:40:00 30.9 C 11.78 g/m*3 30.9 C 9.7 km/h
2347 07-06-2014 14:45:00 30.9 C 13.37 g/m*3 30.9 C 6.4 km/h
2348 07-06-2014 14:50:00 30.7 C 15.12 g/m*3 30.7 C 4.8 km/h
2349 07-06-2014 14:55:00 30.6 C 12.53 g/m*3 30.6 C 4.8 km/h
2350 07-06-2014 15:00:00 30.8 C 13.3 g/m*3 30.8 C 8.1 km/h
Sensor: Nr:Datum:Temp:Abs-Feuchte:Windchill:Wind:
Aussen-T/F 2351 07-06-2014 15:05:00 31.1 C 12.87 g/m*3 31.1 C 6.4 km/h
2352 07-06-2014 15:10:00 31.1 C 11.26 g/m*3 31.1 C 11.3 km/h
2353 07-06-2014 15:15:00 31.1 C 12.23 g/m*3 31.1 C 4.8 km/h
2354 07-06-2014 15:20:00 31.2 C 11.97 g/m*3 31.2 C 1.6 km/h
2355 07-06-2014 15:25:00 31.3 C 12.03 g/m*3 31.3 C 4.8 km/h
2356 07-06-2014 15:30:00 31.3 C 12.68 g/m*3 31.3 C 1.6 km/h
2357 07-06-2014 15:35:00 31.1 C 14.48 g/m*3 31.1 C 1.6 km/h
2358 07-06-2014 15:40:00 30.6 C 13.78 g/m*3 30.6 C 3.2 km/h
2359 07-06-2014 15:45:00 30.5 C 12.46 g/m*3 30.5 C 3.2 km/h
2360 07-06-2014 15:50:00 30.5 C 13.4 g/m*3 30.5 C 4.8 km/h
2361 07-06-2014 15:55:00 30.1 C 15.24 g/m*3 30.1 C 4.8 km/h
2362 07-06-2014 16:00:00 29.3 C 14.6 g/m*3 29.3 C 4.8 km/h
2363 07-06-2014 16:05:00 28.8 C 15.63 g/m*3 28.8 C 3.2 km/h
2364 07-06-2014 16:10:00 28.6 C 15.46 g/m*3 28.6 C 1.6 km/h
2365 07-06-2014 16:15:00 28.2 C 15.95 g/m*3 28.2 C 0 km/h
2366 07-06-2014 16:20:00 27.8 C 16.14 g/m*3 27.8 C 1.6 km/h
2367 07-06-2014 16:25:00 27.8 C 16.41 g/m*3 27.8 C 1.6 km/h
2368 07-06-2014 16:30:00 27.8 C 16.41 g/m*3 27.8 C 1.6 km/h
2369 07-06-2014 16:35:00 27.7 C 16.58 g/m*3 27.7 C 0 km/h
2370 07-06-2014 16:40:00 27.4 C 16.31 g/m*3 27.4 C 1.6 km/h
2371 07-06-2014 16:45:00 27.2 C 16.39 g/m*3 27.2 C 1.6 km/h
2372 07-06-2014 16:50:00 26.9 C 16.64 g/m*3 26.9 C 1.6 km/h
2373 07-06-2014 16:55:00 26.7 C 16.45 g/m*3 26.7 C 0 km/h
2374 07-06-2014 17:00:00 26.4 C 16.18 g/m*3 26.4 C 0 km/h
2375 07-06-2014 17:05:00 26.3 C 16.59 g/m*3 26.3 C 0 km/h
Sensor: Nr:Datum:Temp:Abs-Feuchte:Windchill:Wind:
Aussen-T/F 2376 07-06-2014 17:10:00 26.1 C 16.65 g/m*3 26.1 C 0 km/h
2377 07-06-2014 17:15:00 25.8 C 16.37 g/m*3 25.8 C 0 km/h
2378 07-06-2014 17:20:00 25.6 C 16.43 g/m*3 25.6 C 1.6 km/h
2379 07-06-2014 17:25:00 25.4 C 16.48 g/m*3 25.4 C 1.6 km/h
2380 07-06-2014 17:30:00 25.2 C 16.3 g/m*3 25.2 C 1.6 km/h
2381 07-06-2014 17:35:00 25.1 C 15.97 g/m*3 25.1 C 0 km/h
2382 07-06-2014 17:40:00 25 C 16.34 g/m*3 25 C 0 km/h
2383 07-06-2014 17:45:00 24.9 C 16.02 g/m*3 24.9 C 0 km/h
2384 07-06-2014 17:50:00 24.9 C 16.25 g/m*3 24.9 C 0 km/h
2385 07-06-2014 17:55:00 25.1 C 16.67 g/m*3 25.1 C 0 km/h
2386 07-06-2014 18:00:00 25.5 C 17.05 g/m*3 25.5 C 0 km/h
2387 07-06-2014 18:05:00 25.9 C 17.43 g/m*3 25.9 C 1.6 km/h
2388 07-06-2014 18:10:00 26.5 C 17.52 g/m*3 26.5 C 0 km/h
2389 07-06-2014 18:15:00 26.6 C 17.12 g/m*3 26.6 C 1.6 km/h
2390 07-06-2014 18:20:00 26.4 C 17.43 g/m*3 26.4 C 3.2 km/h
2391 07-06-2014 18:25:00 26.5 C 17.52 g/m*3 26.5 C 0 km/h
2392 07-06-2014 18:30:00 26.8 C 17.82 g/m*3 26.8 C 0 km/h
2393 07-06-2014 18:35:00 27.1 C 17.6 g/m*3 27.1 C 0 km/h
2394 07-06-2014 18:40:00 26.9 C 17.4 g/m*3 26.9 C 0 km/h
2395 07-06-2014 18:45:00 26.7 C 17.21 g/m*3 26.7 C 0 km/h
2396 07-06-2014 18:50:00 26.3 C 17.08 g/m*3 26.3 C 1.6 km/h
2397 07-06-2014 18:55:00 25.8 C 16.85 g/m*3 25.8 C 1.6 km/h
2398 07-06-2014 19:00:00 25.7 C 17 g/m*3 25.7 C 0 km/h
2399 07-06-2014 19:05:00 25.6 C 16.67 g/m*3 25.6 C 0 km/h
2400 07-06-2014 19:10:00 25.2 C 16.53 g/m*3 25.2 C 1.6 km/h
Sensor: Nr:Datum:Temp:Abs-Feuchte:Windchill:Wind:
Aussen-T/F 2401 07-06-2014 19:15:00 24.9 C 16.48 g/m*3 24.9 C 0 km/h
2402 07-06-2014 19:20:00 24.6 C 16.21 g/m*3 24.6 C 0 km/h
2403 07-06-2014 19:25:00 24.4 C 16.02 g/m*3 24.4 C 0 km/h
2404 07-06-2014 19:30:00 24.4 C 16.25 g/m*3 24.4 C 1.6 km/h
2405 07-06-2014 19:35:00 24.4 C 16.25 g/m*3 24.4 C 0 km/h
2406 07-06-2014 19:40:00 24.7 C 16.3 g/m*3 24.7 C 0 km/h
2407 07-06-2014 19:45:00 24.9 C 16.25 g/m*3 24.9 C 0 km/h
2408 07-06-2014 19:50:00 25 C 16.34 g/m*3 25 C 1.6 km/h
2409 07-06-2014 19:55:00 25 C 16.57 g/m*3 25 C 1.6 km/h
2410 07-06-2014 20:00:00 24.9 C 16.02 g/m*3 24.9 C 0 km/h
2411 07-06-2014 20:05:00 24.9 C 16.02 g/m*3 24.9 C 0 km/h
2412 07-06-2014 20:10:00 24.8 C 15.93 g/m*3 24.8 C 1.6 km/h
2413 07-06-2014 20:15:00 24.7 C 15.62 g/m*3 24.7 C 0 km/h
2414 07-06-2014 20:20:00 24.6 C 15.75 g/m*3 24.6 C 1.6 km/h
2415 07-06-2014 20:25:00 24.4 C 15.58 g/m*3 24.4 C 0 km/h
2416 07-06-2014 20:30:00 24.3 C 15.49 g/m*3 24.3 C 0 km/h
2417 07-06-2014 20:35:00 24.1 C 15.32 g/m*3 24.1 C 1.6 km/h
2418 07-06-2014 20:40:00 23.9 C 15.36 g/m*3 23.9 C 1.6 km/h
2419 07-06-2014 20:45:00 23.8 C 15.27 g/m*3 23.8 C 0 km/h
2420 07-06-2014 20:50:00 23.6 C 15.1 g/m*3 23.6 C 0 km/h
2421 07-06-2014 20:55:00 23.4 C 15.14 g/m*3 23.4 C 0 km/h
2422 07-06-2014 21:00:00 23.2 C 14.97 g/m*3 23.2 C 0 km/h
2423 07-06-2014 21:05:00 23.1 C 14.88 g/m*3 23.1 C 0 km/h
2424 07-06-2014 21:10:00 23 C 14.8 g/m*3 23 C 1.6 km/h
2425 07-06-2014 21:15:00 22.8 C 14.63 g/m*3 22.8 C 1.6 km/h
Sensor: Nr:Datum:Temp:Abs-Feuchte:Windchill:Wind:
Aussen-T/F 2426 07-06-2014 21:20:00 22.7 C 14.75 g/m*3 22.7 C 1.6 km/h
2427 07-06-2014 21:25:00 22.5 C 14.58 g/m*3 22.5 C 1.6 km/h
2428 07-06-2014 21:30:00 22.3 C 14.61 g/m*3 22.3 C 1.6 km/h
2429 07-06-2014 21:35:00 22.2 C 14.53 g/m*3 22.2 C 1.6 km/h
2430 07-06-2014 21:40:00 22 C 14.56 g/m*3 22 C 1.6 km/h
2431 07-06-2014 21:45:00 21.9 C 14.47 g/m*3 21.9 C 1.6 km/h
2432 07-06-2014 21:50:00 21.8 C 14.39 g/m*3 21.8 C 1.6 km/h
2433 07-06-2014 21:55:00 21.8 C 14.39 g/m*3 21.8 C 1.6 km/h
2434 07-06-2014 22:00:00 21.7 C 14.31 g/m*3 21.7 C 1.6 km/h
2435 07-06-2014 22:05:00 21.6 C 14.22 g/m*3 21.6 C 1.6 km/h
2436 07-06-2014 22:10:00 21.6 C 14.22 g/m*3 21.6 C 0 km/h
2437 07-06-2014 22:15:00 21.4 C 14.25 g/m*3 21.4 C 0 km/h
2438 07-06-2014 22:20:00 21.2 C 14.08 g/m*3 21.2 C 0 km/h
2439 07-06-2014 22:25:00 21.1 C 14.19 g/m*3 21.1 C 1.6 km/h
2440 07-06-2014 22:30:00 21 C 13.92 g/m*3 21 C 0 km/h
2441 07-06-2014 22:35:00 20.9 C 14.02 g/m*3 20.9 C 1.6 km/h
2442 07-06-2014 22:40:00 20.9 C 13.84 g/m*3 20.9 C 1.6 km/h
2443 07-06-2014 22:45:00 20.9 C 14.02 g/m*3 20.9 C 0 km/h
2444 07-06-2014 22:50:00 20.8 C 13.94 g/m*3 20.8 C 1.6 km/h
2445 07-06-2014 22:55:00 20.8 C 13.76 g/m*3 20.8 C 1.6 km/h
2446 07-06-2014 23:00:00 20.8 C 13.94 g/m*3 20.8 C 1.6 km/h
2447 07-06-2014 23:05:00 20.7 C 13.86 g/m*3 20.7 C 0 km/h
2448 07-06-2014 23:10:00 20.7 C 13.86 g/m*3 20.7 C 1.6 km/h
2449 07-06-2014 23:15:00 20.6 C 13.78 g/m*3 20.6 C 0 km/h
2450 07-06-2014 23:20:00 20.4 C 13.62 g/m*3 20.4 C 0 km/h
Sensor: Nr:Datum:Temp:Abs-Feuchte:Windchill:Wind:
Aussen-T/F 2451 07-06-2014 23:25:00 20.3 C 13.72 g/m*3 20.3 C 0 km/h
2452 07-06-2014 23:30:00 20.1 C 13.73 g/m*3 20.1 C 0 km/h
2453 07-06-2014 23:35:00 20 C 13.65 g/m*3 20 C 1.6 km/h
2454 07-06-2014 23:40:00 19.9 C 13.74 g/m*3 19.9 C 0 km/h
2455 07-06-2014 23:45:00 19.8 C 13.66 g/m*3 19.8 C 0 km/h
2456 07-06-2014 23:50:00 19.7 C 13.58 g/m*3 19.7 C 0 km/h
2457 07-06-2014 23:55:00 19.6 C 13.51 g/m*3 19.6 C 0 km/h
2458 08-06-2014 00:00:00 19.5 C 13.43 g/m*3 19.5 C 0 km/h
2459 08-06-2014 00:05:00 19.3 C 13.44 g/m*3 19.3 C 0 km/h
2460 08-06-2014 00:10:00 19.3 C 13.44 g/m*3 19.3 C 0 km/h
2461 08-06-2014 00:15:00 19.2 C 13.52 g/m*3 19.2 C 0 km/h
2462 08-06-2014 00:20:00 19.1 C 13.44 g/m*3 19.1 C 0 km/h
2463 08-06-2014 00:25:00 18.9 C 13.45 g/m*3 18.9 C 0 km/h
2464 08-06-2014 00:30:00 18.8 C 13.37 g/m*3 18.8 C 0 km/h
2465 08-06-2014 00:35:00 18.7 C 13.29 g/m*3 18.7 C 0 km/h
2466 08-06-2014 00:40:00 18.7 C 13.29 g/m*3 18.7 C 1.6 km/h
2467 08-06-2014 00:45:00 18.7 C 13.29 g/m*3 18.7 C 0 km/h
2468 08-06-2014 00:50:00 18.7 C 13.29 g/m*3 18.7 C 0 km/h
2469 08-06-2014 00:55:00 18.7 C 13.29 g/m*3 18.7 C 0 km/h
2470 08-06-2014 01:00:00 18.6 C 13.21 g/m*3 18.6 C 0 km/h
2471 08-06-2014 01:05:00 18.4 C 13.05 g/m*3 18.4 C 1.6 km/h
2472 08-06-2014 01:10:00 18.4 C 13.21 g/m*3 18.4 C 0 km/h
2473 08-06-2014 01:15:00 18.3 C 13.13 g/m*3 18.3 C 0 km/h
2474 08-06-2014 01:20:00 18.2 C 13.21 g/m*3 18.2 C 0 km/h
2475 08-06-2014 01:25:00 18.1 C 13.13 g/m*3 18.1 C 0 km/h
Sensor: Nr:Datum:Temp:Abs-Feuchte:Windchill:Wind:
Aussen-T/F 2476 08-06-2014 01:30:00 18 C 13.21 g/m*3 18 C 0 km/h
2477 08-06-2014 01:35:00 17.9 C 13.13 g/m*3 17.9 C 0 km/h
2478 08-06-2014 01:40:00 17.9 C 13.13 g/m*3 17.9 C 0 km/h
2479 08-06-2014 01:45:00 17.8 C 13.05 g/m*3 17.8 C 0 km/h
2480 08-06-2014 01:50:00 17.8 C 13.05 g/m*3 17.8 C 0 km/h
2481 08-06-2014 01:55:00 17.7 C 12.98 g/m*3 17.7 C 1.6 km/h
2482 08-06-2014 02:00:00 17.7 C 12.98 g/m*3 17.7 C 0 km/h
2483 08-06-2014 02:05:00 17.6 C 13.05 g/m*3 17.6 C 0 km/h
2484 08-06-2014 02:10:00 17.5 C 12.97 g/m*3 17.5 C 0 km/h
2485 08-06-2014 02:15:00 17.4 C 12.89 g/m*3 17.4 C 0 km/h
2486 08-06-2014 02:20:00 17.3 C 12.82 g/m*3 17.3 C 0 km/h
2487 08-06-2014 02:25:00 17.3 C 12.82 g/m*3 17.3 C 0 km/h
2488 08-06-2014 02:30:00 17.2 C 12.74 g/m*3 17.2 C 0 km/h
2489 08-06-2014 02:35:00 17.1 C 12.81 g/m*3 17.1 C 0 km/h
2490 08-06-2014 02:40:00 17.1 C 12.81 g/m*3 17.1 C 0 km/h
2491 08-06-2014 02:45:00 17 C 12.73 g/m*3 17 C 0 km/h
2492 08-06-2014 02:50:00 16.9 C 12.66 g/m*3 16.9 C 0 km/h
2493 08-06-2014 02:55:00 16.9 C 12.66 g/m*3 16.9 C 0 km/h
2494 08-06-2014 03:00:00 16.9 C 12.66 g/m*3 16.9 C 0 km/h
2495 08-06-2014 03:05:00 16.8 C 12.58 g/m*3 16.8 C 0 km/h
2496 08-06-2014 03:10:00 16.8 C 12.58 g/m*3 16.8 C 0 km/h
2497 08-06-2014 03:15:00 16.7 C 12.51 g/m*3 16.7 C 0 km/h
2498 08-06-2014 03:20:00 16.7 C 12.65 g/m*3 16.7 C 0 km/h
2499 08-06-2014 03:25:00 16.6 C 12.57 g/m*3 16.6 C 0 km/h
2500 08-06-2014 03:30:00 16.4 C 12.42 g/m*3 16.4 C 0 km/h
Sensor: Nr:Datum:Temp:Abs-Feuchte:Windchill:Wind:
Aussen-T/F 2501 08-06-2014 03:35:00 16.4 C 12.56 g/m*3 16.4 C 0 km/h
2502 08-06-2014 03:40:00 16.3 C 12.49 g/m*3 16.3 C 0 km/h
2503 08-06-2014 03:45:00 16.3 C 12.62 g/m*3 16.3 C 0 km/h
2504 08-06-2014 03:50:00 16.3 C 12.62 g/m*3 16.3 C 0 km/h
2505 08-06-2014 03:55:00 16.3 C 12.62 g/m*3 16.3 C 0 km/h
2506 08-06-2014 04:00:00 16.3 C 12.62 g/m*3 16.3 C 0 km/h
2507 08-06-2014 04:05:00 16.3 C 12.62 g/m*3 16.3 C 0 km/h
2508 08-06-2014 04:10:00 16.3 C 12.62 g/m*3 16.3 C 0 km/h
2509 08-06-2014 04:15:00 16.2 C 12.55 g/m*3 16.2 C 0 km/h
2510 08-06-2014 04:20:00 16.2 C 12.55 g/m*3 16.2 C 0 km/h
2511 08-06-2014 04:25:00 16.2 C 12.55 g/m*3 16.2 C 0 km/h
2512 08-06-2014 04:30:00 16.2 C 12.69 g/m*3 16.2 C 0 km/h
2513 08-06-2014 04:35:00 16.2 C 12.55 g/m*3 16.2 C 0 km/h
2514 08-06-2014 04:40:00 16.2 C 12.55 g/m*3 16.2 C 0 km/h
2515 08-06-2014 04:45:00 16.2 C 12.55 g/m*3 16.2 C 0 km/h
2516 08-06-2014 04:50:00 16 C 12.4 g/m*3 16 C 0 km/h
2517 08-06-2014 04:55:00 15.9 C 12.32 g/m*3 15.9 C 0 km/h
2518 08-06-2014 05:00:00 15.8 C 12.38 g/m*3 15.8 C 0 km/h
2519 08-06-2014 05:05:00 15.8 C 12.38 g/m*3 15.8 C 0 km/h
2520 08-06-2014 05:10:00 15.8 C 12.38 g/m*3 15.8 C 1.6 km/h
2521 08-06-2014 05:15:00 15.8 C 12.38 g/m*3 15.8 C 0 km/h
2522 08-06-2014 05:20:00 15.8 C 12.38 g/m*3 15.8 C 0 km/h
2523 08-06-2014 05:25:00 15.8 C 12.38 g/m*3 15.8 C 0 km/h
2524 08-06-2014 05:30:00 15.7 C 12.31 g/m*3 15.7 C 0 km/h
2525 08-06-2014 05:35:00 15.7 C 12.31 g/m*3 15.7 C 0 km/h
Sensor: Nr:Datum:Temp:Abs-Feuchte:Windchill:Wind:
Aussen-T/F 2526 08-06-2014 05:40:00 15.6 C 12.23 g/m*3 15.6 C 0 km/h
2527 08-06-2014 05:45:00 15.6 C 12.37 g/m*3 15.6 C 0 km/h
2528 08-06-2014 05:50:00 15.6 C 12.37 g/m*3 15.6 C 0 km/h
2529 08-06-2014 05:55:00 15.6 C 12.37 g/m*3 15.6 C 0 km/h
2530 08-06-2014 06:00:00 15.5 C 12.29 g/m*3 15.5 C 0 km/h
2531 08-06-2014 06:05:00 15.6 C 12.37 g/m*3 15.6 C 0 km/h
2532 08-06-2014 06:10:00 15.6 C 12.5 g/m*3 15.6 C 0 km/h
2533 08-06-2014 06:15:00 15.7 C 12.58 g/m*3 15.7 C 0 km/h
2534 08-06-2014 06:20:00 15.8 C 12.65 g/m*3 15.8 C 0 km/h
2535 08-06-2014 06:25:00 15.9 C 12.73 g/m*3 15.9 C 0 km/h
2536 08-06-2014 06:30:00 16.1 C 12.88 g/m*3 16.1 C 0 km/h
2537 08-06-2014 06:35:00 16.2 C 12.82 g/m*3 16.2 C 0 km/h
2538 08-06-2014 06:40:00 16.4 C 12.98 g/m*3 16.4 C 0 km/h
2539 08-06-2014 06:45:00 16.5 C 13.06 g/m*3 16.5 C 0 km/h
2540 08-06-2014 06:50:00 16.6 C 13.14 g/m*3 16.6 C 0 km/h
2541 08-06-2014 06:55:00 16.8 C 13.15 g/m*3 16.8 C 0 km/h
2542 08-06-2014 07:00:00 16.9 C 13.09 g/m*3 16.9 C 0 km/h
2543 08-06-2014 07:05:00 17 C 13.02 g/m*3 17 C 0 km/h
2544 08-06-2014 07:10:00 17 C 13.02 g/m*3 17 C 0 km/h
2545 08-06-2014 07:15:00 17.1 C 13.1 g/m*3 17.1 C 0 km/h
2546 08-06-2014 07:20:00 17.1 C 13.1 g/m*3 17.1 C 0 km/h
2547 08-06-2014 07:25:00 17.1 C 13.1 g/m*3 17.1 C 0 km/h
2548 08-06-2014 07:30:00 17.2 C 13.33 g/m*3 17.2 C 0 km/h
2549 08-06-2014 07:35:00 17.2 C 13.33 g/m*3 17.2 C 0 km/h
2550 08-06-2014 07:40:00 17.2 C 13.33 g/m*3 17.2 C 0 km/h
Sensor: Nr:Datum:Temp:Abs-Feuchte:Windchill:Wind:
Aussen-T/F 2551 08-06-2014 07:45:00 17.3 C 13.26 g/m*3 17.3 C 1.6 km/h
2552 08-06-2014 07:50:00 17.5 C 13.42 g/m*3 17.5 C 0 km/h
2553 08-06-2014 07:55:00 17.7 C 13.58 g/m*3 17.7 C 0 km/h
2554 08-06-2014 08:00:00 18.1 C 13.75 g/m*3 18.1 C 0 km/h
2555 08-06-2014 08:05:00 18.3 C 13.76 g/m*3 18.3 C 0 km/h
2556 08-06-2014 08:10:00 18.6 C 13.85 g/m*3 18.6 C 0 km/h
2557 08-06-2014 08:15:00 18.8 C 14.01 g/m*3 18.8 C 0 km/h
2558 08-06-2014 08:20:00 19.1 C 13.93 g/m*3 19.1 C 0 km/h
2559 08-06-2014 08:25:00 19.2 C 14.02 g/m*3 19.2 C 0 km/h
2560 08-06-2014 08:30:00 19.4 C 14.18 g/m*3 19.4 C 0 km/h
2561 08-06-2014 08:35:00 19.7 C 14.26 g/m*3 19.7 C 0 km/h
2562 08-06-2014 08:40:00 19.9 C 14.43 g/m*3 19.9 C 0 km/h
2563 08-06-2014 08:45:00 20 C 14.17 g/m*3 20 C 0 km/h
2564 08-06-2014 08:50:00 20.1 C 14.43 g/m*3 20.1 C 0 km/h
2565 08-06-2014 08:55:00 20.1 C 14.43 g/m*3 20.1 C 0 km/h
2566 08-06-2014 09:00:00 20.4 C 14.51 g/m*3 20.4 C 0 km/h
2567 08-06-2014 09:05:00 20.6 C 14.5 g/m*3 20.6 C 0 km/h
2568 08-06-2014 09:10:00 20.6 C 14.5 g/m*3 20.6 C 0 km/h
2569 08-06-2014 09:15:00 20.6 C 14.68 g/m*3 20.6 C 0 km/h
2570 08-06-2014 09:20:00 20.4 C 14.68 g/m*3 20.4 C 0 km/h
2571 08-06-2014 09:25:00 20.3 C 14.6 g/m*3 20.3 C 0 km/h
2572 08-06-2014 09:30:00 20.3 C 14.6 g/m*3 20.3 C 0 km/h
2573 08-06-2014 09:35:00 20.3 C 14.77 g/m*3 20.3 C 0 km/h
2574 08-06-2014 09:40:00 20.4 C 14.86 g/m*3 20.4 C 0 km/h
2575 08-06-2014 09:45:00 20.5 C 14.95 g/m*3 20.5 C 0 km/h
Sensor: Nr:Datum:Temp:Abs-Feuchte:Windchill:Wind:
Aussen-T/F 2576 08-06-2014 09:50:00 20.8 C 15.21 g/m*3 20.8 C 0 km/h
2577 08-06-2014 09:55:00 21.1 C 15.29 g/m*3 21.1 C 0 km/h
2578 08-06-2014 10:00:00 21.6 C 15.55 g/m*3 21.6 C 0 km/h
2579 08-06-2014 10:05:00 21.9 C 15.63 g/m*3 21.9 C 0 km/h
2580 08-06-2014 10:10:00 22.2 C 15.71 g/m*3 22.2 C 0 km/h
2581 08-06-2014 10:15:00 22.4 C 15.89 g/m*3 22.4 C 0 km/h
2582 08-06-2014 10:20:00 22.7 C 15.96 g/m*3 22.7 C 0 km/h
2583 08-06-2014 10:25:00 22.9 C 16.14 g/m*3 22.9 C 0 km/h
2584 08-06-2014 10:30:00 22.8 C 15.85 g/m*3 22.8 C 0 km/h
2585 08-06-2014 10:35:00 22.9 C 16.14 g/m*3 22.9 C 0 km/h
2586 08-06-2014 10:40:00 23.1 C 16.33 g/m*3 23.1 C 0 km/h
2587 08-06-2014 10:45:00 23.3 C 16.52 g/m*3 23.3 C 0 km/h
2588 08-06-2014 10:50:00 23.4 C 16.4 g/m*3 23.4 C 0 km/h
2589 08-06-2014 10:55:00 23.2 C 16.22 g/m*3 23.2 C 0 km/h
2590 08-06-2014 11:00:00 23.2 C 16.22 g/m*3 23.2 C 0 km/h
2591 08-06-2014 11:05:00 23.3 C 16.1 g/m*3 23.3 C 0 km/h
2592 08-06-2014 11:10:00 23.7 C 15.4 g/m*3 23.7 C 0 km/h
2593 08-06-2014 11:15:00 24.6 C 16.43 g/m*3 24.6 C 0 km/h
2594 08-06-2014 11:20:00 25.3 C 16.86 g/m*3 25.3 C 0 km/h
2595 08-06-2014 11:25:00 25.6 C 16.19 g/m*3 25.6 C 0 km/h
2596 08-06-2014 11:30:00 25.5 C 16.1 g/m*3 25.5 C 0 km/h
2597 08-06-2014 11:35:00 25.3 C 16.62 g/m*3 25.3 C 0 km/h
2598 08-06-2014 11:40:00 25.4 C 16.24 g/m*3 25.4 C 0 km/h
2599 08-06-2014 11:45:00 25.8 C 16.61 g/m*3 25.8 C 0 km/h
2600 08-06-2014 11:50:00 25.7 C 16.28 g/m*3 25.7 C 0 km/h
Sensor: Nr:Datum:Temp:Abs-Feuchte:Windchill:Wind:
Aussen-T/F 2601 08-06-2014 11:55:00 25.5 C 15.86 g/m*3 25.5 C 1.6 km/h
2602 08-06-2014 12:00:00 26 C 16.55 g/m*3 26 C 4.8 km/h
2603 08-06-2014 12:05:00 26.9 C 15.87 g/m*3 26.9 C 4.8 km/h
2604 08-06-2014 12:10:00 27.7 C 15.25 g/m*3 27.7 C 4.8 km/h
2605 08-06-2014 12:15:00 28.3 C 15.48 g/m*3 28.3 C 8.1 km/h
2606 08-06-2014 12:20:00 28.8 C 14.77 g/m*3 28.8 C 6.4 km/h
2607 08-06-2014 12:25:00 29.2 C 16.55 g/m*3 29.2 C 3.2 km/h
2608 08-06-2014 12:30:00 29.2 C 15.97 g/m*3 29.2 C 4.8 km/h
2609 08-06-2014 12:35:00 29.1 C 14.73 g/m*3 29.1 C 6.4 km/h
2610 08-06-2014 12:40:00 29.5 C 15.64 g/m*3 29.5 C 6.4 km/h
2611 08-06-2014 12:45:00 29.7 C 14.92 g/m*3 29.7 C 1.6 km/h
2612 08-06-2014 12:50:00 29.9 C 14.78 g/m*3 29.9 C 3.2 km/h
2613 08-06-2014 12:55:00 30.1 C 14.63 g/m*3 30.1 C 4.8 km/h
2614 08-06-2014 13:00:00 30.3 C 14.49 g/m*3 30.3 C 6.4 km/h
2615 08-06-2014 13:05:00 30.6 C 14.72 g/m*3 30.6 C 6.4 km/h
2616 08-06-2014 13:10:00 30.8 C 14.88 g/m*3 30.8 C 4.8 km/h
2617 08-06-2014 13:15:00 30.8 C 14.88 g/m*3 30.8 C 6.4 km/h
2618 08-06-2014 13:20:00 30.8 C 14.56 g/m*3 30.8 C 6.4 km/h
2619 08-06-2014 13:25:00 30.9 C 16.23 g/m*3 30.9 C 6.4 km/h
2620 08-06-2014 13:30:00 31.1 C 15.44 g/m*3 31.1 C 4.8 km/h
2621 08-06-2014 13:35:00 31.2 C 14.88 g/m*3 31.2 C 8.1 km/h
2622 08-06-2014 13:40:00 31.5 C 14.79 g/m*3 31.5 C 9.7 km/h
2623 08-06-2014 13:45:00 31.6 C 14.54 g/m*3 31.6 C 9.7 km/h
2624 08-06-2014 13:50:00 31.7 C 15.95 g/m*3 31.7 C 6.4 km/h
2625 08-06-2014 13:55:00 31.9 C 15.45 g/m*3 31.9 C 4.8 km/h
Sensor: Nr:Datum:Temp:Abs-Feuchte:Windchill:Wind:
Aussen-T/F 2626 08-06-2014 14:00:00 32 C 15.53 g/m*3 32 C 8.1 km/h
2627 08-06-2014 14:05:00 32.2 C 15.35 g/m*3 32.2 C 3.2 km/h
2628 08-06-2014 14:10:00 32.2 C 16.04 g/m*3 32.2 C 6.4 km/h
2629 08-06-2014 14:15:00 32.3 C 15.78 g/m*3 32.3 C 9.7 km/h
2630 08-06-2014 14:20:00 32.4 C 15.86 g/m*3 32.4 C 9.7 km/h
2631 08-06-2014 14:25:00 32.3 C 16.12 g/m*3 32.3 C 11.3 km/h
2632 08-06-2014 14:30:00 32.3 C 15.44 g/m*3 32.3 C 8.1 km/h
2633 08-06-2014 14:35:00 32.4 C 14.83 g/m*3 32.4 C 8.1 km/h
2634 08-06-2014 14:40:00 32.7 C 14.72 g/m*3 32.7 C 6.4 km/h
2635 08-06-2014 14:45:00 32.7 C 15.77 g/m*3 32.7 C 4.8 km/h
2636 08-06-2014 14:50:00 32.8 C 14.79 g/m*3 32.8 C 4.8 km/h
2637 08-06-2014 14:55:00 32.8 C 14.09 g/m*3 32.8 C 8.1 km/h
2638 08-06-2014 15:00:00 32.5 C 14.21 g/m*3 32.5 C 4.8 km/h
2639 08-06-2014 15:05:00 32.6 C 14.64 g/m*3 32.6 C 6.4 km/h
2640 08-06-2014 15:10:00 32.8 C 14.79 g/m*3 32.8 C 6.4 km/h
2641 08-06-2014 15:15:00 33.2 C 14.75 g/m*3 33.2 C 6.4 km/h
2642 08-06-2014 15:20:00 33.6 C 14.7 g/m*3 33.6 C 4.8 km/h
2643 08-06-2014 15:25:00 33.7 C 13.67 g/m*3 33.7 C 8.1 km/h
2644 08-06-2014 15:30:00 33.6 C 14.33 g/m*3 33.6 C 8.1 km/h
2645 08-06-2014 15:35:00 33.2 C 14.39 g/m*3 33.2 C 8.1 km/h
2646 08-06-2014 15:40:00 32.8 C 15.85 g/m*3 32.8 C 0 km/h
2647 08-06-2014 15:45:00 31.7 C 16.28 g/m*3 31.7 C 1.6 km/h
2648 08-06-2014 15:50:00 30.6 C 16.91 g/m*3 30.6 C 0 km/h
2649 08-06-2014 15:55:00 29.3 C 16.93 g/m*3 29.3 C 1.6 km/h
2650 08-06-2014 16:00:00 29.2 C 16.55 g/m*3 29.2 C 6.4 km/h
Sensor: Nr:Datum:Temp:Abs-Feuchte:Windchill:Wind:
Aussen-T/F 2651 08-06-2014 16:05:00 30.5 C 16.51 g/m*3 30.5 C 6.4 km/h
2652 08-06-2014 16:10:00 31.1 C 16.09 g/m*3 31.1 C 11.3 km/h
2653 08-06-2014 16:15:00 31.8 C 16.37 g/m*3 31.8 C 14.5 km/h
2654 08-06-2014 16:20:00 32.4 C 15.86 g/m*3 32.4 C 11.3 km/h
2655 08-06-2014 16:25:00 32.7 C 17.17 g/m*3 32.7 C 8.1 km/h
2656 08-06-2014 16:30:00 32.8 C 16.55 g/m*3 32.8 C 11.3 km/h
2657 08-06-2014 16:35:00 32.7 C 15.77 g/m*3 32.7 C 8.1 km/h
2658 08-06-2014 16:40:00 32.4 C 16.21 g/m*3 32.4 C 8.1 km/h
2659 08-06-2014 16:45:00 32.5 C 15.95 g/m*3 32.5 C 8.1 km/h
2660 08-06-2014 16:50:00 32.9 C 15.58 g/m*3 32.9 C 6.4 km/h
2661 08-06-2014 16:55:00 32.9 C 16.29 g/m*3 32.9 C 9.7 km/h
2662 08-06-2014 17:00:00 33.1 C 17.18 g/m*3 33.1 C 9.7 km/h
2663 08-06-2014 17:05:00 33.6 C 16.53 g/m*3 33.6 C 4.8 km/h
2664 08-06-2014 17:10:00 33.7 C 15.51 g/m*3 33.7 C 6.4 km/h
2665 08-06-2014 17:15:00 33.6 C 16.17 g/m*3 33.6 C 6.4 km/h
2666 08-06-2014 17:20:00 33.9 C 16.05 g/m*3 33.9 C 8.1 km/h
2667 08-06-2014 17:25:00 34 C 16.51 g/m*3 34 C 4.8 km/h
2668 08-06-2014 17:30:00 33.8 C 16.71 g/m*3 33.8 C 4.8 km/h
2669 08-06-2014 17:35:00 33.6 C 16.9 g/m*3 33.6 C 6.4 km/h
2670 08-06-2014 17:40:00 33.5 C 14.98 g/m*3 33.5 C 4.8 km/h
2671 08-06-2014 17:45:00 33.4 C 14.91 g/m*3 33.4 C 3.2 km/h
2672 08-06-2014 17:50:00 33.6 C 17.64 g/m*3 33.6 C 6.4 km/h
2673 08-06-2014 17:55:00 33.7 C 15.51 g/m*3 33.7 C 6.4 km/h
2674 08-06-2014 18:00:00 33.7 C 15.88 g/m*3 33.7 C 9.7 km/h
2675 08-06-2014 18:05:00 33.6 C 15.8 g/m*3 33.6 C 6.4 km/h
Sensor: Nr:Datum:Temp:Abs-Feuchte:Windchill:Wind:
Aussen-T/F 2676 08-06-2014 18:10:00 33.4 C 16 g/m*3 33.4 C 6.4 km/h
2677 08-06-2014 18:15:00 33.5 C 16.81 g/m*3 33.5 C 8.1 km/h
2678 08-06-2014 18:20:00 33.6 C 15.8 g/m*3 33.6 C 4.8 km/h
2679 08-06-2014 18:25:00 33.6 C 16.53 g/m*3 33.6 C 6.4 km/h
2680 08-06-2014 18:30:00 33.4 C 15.63 g/m*3 33.4 C 8.1 km/h
2681 08-06-2014 18:35:00 33.4 C 15.27 g/m*3 33.4 C 3.2 km/h
2682 08-06-2014 18:40:00 33.4 C 15.63 g/m*3 33.4 C 6.4 km/h
2683 08-06-2014 18:45:00 33.4 C 16.36 g/m*3 33.4 C 9.7 km/h
2684 08-06-2014 18:50:00 33.2 C 16.91 g/m*3 33.2 C 11.3 km/h
2685 08-06-2014 18:55:00 33 C 16.02 g/m*3 33 C 8.1 km/h
2686 08-06-2014 19:00:00 32.8 C 16.2 g/m*3 32.8 C 9.7 km/h
2687 08-06-2014 19:05:00 32.5 C 16.29 g/m*3 32.5 C 8.1 km/h
2688 08-06-2014 19:10:00 32.3 C 16.81 g/m*3 32.3 C 8.1 km/h
2689 08-06-2014 19:15:00 32.1 C 16.29 g/m*3 32.1 C 9.7 km/h
2690 08-06-2014 19:20:00 31.8 C 16.7 g/m*3 31.8 C 8.1 km/h
2691 08-06-2014 19:25:00 31.6 C 16.52 g/m*3 31.6 C 4.8 km/h
2692 08-06-2014 19:30:00 31.3 C 16.59 g/m*3 31.3 C 8.1 km/h
2693 08-06-2014 19:35:00 31.1 C 16.41 g/m*3 31.1 C 6.4 km/h
2694 08-06-2014 19:40:00 30.8 C 16.15 g/m*3 30.8 C 8.1 km/h
2695 08-06-2014 19:45:00 30.6 C 16.6 g/m*3 30.6 C 8.1 km/h
2696 08-06-2014 19:50:00 30.4 C 16.42 g/m*3 30.4 C 6.4 km/h
2697 08-06-2014 19:55:00 30.4 C 16.42 g/m*3 30.4 C 6.4 km/h
2698 08-06-2014 20:00:00 30.3 C 16.64 g/m*3 30.3 C 4.8 km/h
2699 08-06-2014 20:05:00 30.2 C 16.86 g/m*3 30.2 C 6.4 km/h
2700 08-06-2014 20:10:00 30.1 C 16.46 g/m*3 30.1 C 6.4 km/h
Sensor: Nr:Datum:Temp:Abs-Feuchte:Windchill:Wind:
Aussen-T/F 2701 08-06-2014 20:15:00 29.8 C 16.2 g/m*3 29.8 C 8.1 km/h
2702 08-06-2014 20:20:00 29.6 C 16.02 g/m*3 29.6 C 9.7 km/h
2703 08-06-2014 20:25:00 29.4 C 16.15 g/m*3 29.4 C 8.1 km/h
2704 08-06-2014 20:30:00 29.2 C 16.26 g/m*3 29.2 C 8.1 km/h
2705 08-06-2014 20:35:00 28.9 C 16 g/m*3 28.9 C 6.4 km/h
2706 08-06-2014 20:40:00 28.7 C 16.11 g/m*3 28.7 C 8.1 km/h
2707 08-06-2014 20:45:00 28.5 C 16.21 g/m*3 28.5 C 8.1 km/h
2708 08-06-2014 20:50:00 28.3 C 16.03 g/m*3 28.3 C 9.7 km/h
2709 08-06-2014 20:55:00 28.1 C 16.13 g/m*3 28.1 C 6.4 km/h
2710 08-06-2014 21:00:00 27.7 C 17.12 g/m*3 27.7 C 8.1 km/h
2711 08-06-2014 21:05:00 26.9 C 16.89 g/m*3 26.9 C 1.6 km/h
2712 08-06-2014 21:10:00 26.1 C 16.89 g/m*3 26.1 C 0 km/h
2713 08-06-2014 21:15:00 25.5 C 16.81 g/m*3 25.5 C 0 km/h
2714 08-06-2014 21:20:00 25.1 C 16.67 g/m*3 25.1 C 0 km/h
2715 08-06-2014 21:25:00 24.9 C 16.71 g/m*3 24.9 C 0 km/h
2716 08-06-2014 21:30:00 24.7 C 16.75 g/m*3 24.7 C 0 km/h
2717 08-06-2014 21:35:00 24.4 C 16.69 g/m*3 24.4 C 0 km/h
2718 08-06-2014 21:40:00 24.2 C 16.72 g/m*3 24.2 C 1.6 km/h
2719 08-06-2014 21:45:00 23.9 C 16.44 g/m*3 23.9 C 1.6 km/h
2720 08-06-2014 21:50:00 23.8 C 16.56 g/m*3 23.8 C 0 km/h
2721 08-06-2014 21:55:00 23.8 C 16.78 g/m*3 23.8 C 0 km/h
2722 08-06-2014 22:00:00 23.7 C 16.68 g/m*3 23.7 C 1.6 km/h
2723 08-06-2014 22:05:00 23.5 C 16.71 g/m*3 23.5 C 0 km/h
2724 08-06-2014 22:10:00 23.4 C 16.61 g/m*3 23.4 C 0 km/h
2725 08-06-2014 22:15:00 23.3 C 16.73 g/m*3 23.3 C 0 km/h
Sensor: Nr:Datum:Temp:Abs-Feuchte:Windchill:Wind:
Aussen-T/F 2726 08-06-2014 22:20:00 23.2 C 16.63 g/m*3 23.2 C 0 km/h
2727 08-06-2014 22:25:00 23.1 C 16.54 g/m*3 23.1 C 0 km/h
2728 08-06-2014 22:30:00 23.2 C 16.63 g/m*3 23.2 C 1.6 km/h
2729 08-06-2014 22:35:00 23.1 C 16.54 g/m*3 23.1 C 0 km/h
2730 08-06-2014 22:40:00 23 C 16.65 g/m*3 23 C 1.6 km/h
2731 08-06-2014 22:45:00 22.9 C 16.55 g/m*3 22.9 C 0 km/h
2732 08-06-2014 22:50:00 22.8 C 16.66 g/m*3 22.8 C 0 km/h
2733 08-06-2014 22:55:00 22.7 C 16.57 g/m*3 22.7 C 0 km/h
2734 08-06-2014 23:00:00 22.6 C 16.47 g/m*3 22.6 C 0 km/h
2735 08-06-2014 23:05:00 22.5 C 16.38 g/m*3 22.5 C 0 km/h
2736 08-06-2014 23:10:00 22.4 C 16.28 g/m*3 22.4 C 0 km/h
2737 08-06-2014 23:15:00 22.3 C 16.39 g/m*3 22.3 C 0 km/h
2738 08-06-2014 23:20:00 22.3 C 16.39 g/m*3 22.3 C 0 km/h
2739 08-06-2014 23:25:00 22.2 C 16.3 g/m*3 22.2 C 0 km/h
2740 08-06-2014 23:30:00 22.2 C 16.3 g/m*3 22.2 C 0 km/h
2741 08-06-2014 23:35:00 22.1 C 16.4 g/m*3 22.1 C 0 km/h
2742 08-06-2014 23:40:00 21.9 C 16.21 g/m*3 21.9 C 0 km/h
2743 08-06-2014 23:45:00 21.9 C 16.21 g/m*3 21.9 C 0 km/h
2744 08-06-2014 23:50:00 21.8 C 16.12 g/m*3 21.8 C 0 km/h
2745 08-06-2014 23:55:00 21.7 C 16.21 g/m*3 21.7 C 0 km/h
2746 09-06-2014 00:00:00 21.7 C 16.21 g/m*3 21.7 C 1.6 km/h
2747 09-06-2014 00:05:00 21.6 C 16.12 g/m*3 21.6 C 0 km/h
2748 09-06-2014 00:10:00 21.5 C 16.03 g/m*3 21.5 C 0 km/h
2749 09-06-2014 00:15:00 21.4 C 16.12 g/m*3 21.4 C 0 km/h
2750 09-06-2014 00:20:00 21.4 C 16.12 g/m*3 21.4 C 0 km/h
Sensor: Nr:Datum:Temp:Abs-Feuchte:Windchill:Wind:
Aussen-T/F 2751 09-06-2014 00:25:00 21.3 C 16.03 g/m*3 21.3 C 0 km/h
2752 09-06-2014 00:30:00 21.2 C 15.94 g/m*3 21.2 C 0 km/h
2753 09-06-2014 00:35:00 21.2 C 15.94 g/m*3 21.2 C 0 km/h
2754 09-06-2014 00:40:00 21.1 C 15.85 g/m*3 21.1 C 1.6 km/h
2755 09-06-2014 00:45:00 20.9 C 15.66 g/m*3 20.9 C 0 km/h
2756 09-06-2014 00:50:00 20.8 C 15.75 g/m*3 20.8 C 0 km/h
2757 09-06-2014 00:55:00 20.7 C 15.66 g/m*3 20.7 C 0 km/h
2758 09-06-2014 01:00:00 20.7 C 15.66 g/m*3 20.7 C 0 km/h
2759 09-06-2014 01:05:00 20.6 C 15.57 g/m*3 20.6 C 0 km/h
2760 09-06-2014 01:10:00 20.5 C 15.66 g/m*3 20.5 C 0 km/h
2761 09-06-2014 01:15:00 20.4 C 15.57 g/m*3 20.4 C 0 km/h
2762 09-06-2014 01:20:00 20.3 C 15.48 g/m*3 20.3 C 0 km/h
2763 09-06-2014 01:25:00 20.3 C 15.48 g/m*3 20.3 C 0 km/h
2764 09-06-2014 01:30:00 20.3 C 15.48 g/m*3 20.3 C 0 km/h
2765 09-06-2014 01:35:00 20.3 C 15.65 g/m*3 20.3 C 0 km/h
2766 09-06-2014 01:40:00 20.2 C 15.39 g/m*3 20.2 C 0 km/h
2767 09-06-2014 01:45:00 20.1 C 15.47 g/m*3 20.1 C 0 km/h
2768 09-06-2014 01:50:00 20.1 C 15.47 g/m*3 20.1 C 0 km/h
2769 09-06-2014 01:55:00 20 C 15.38 g/m*3 20 C 0 km/h
2770 09-06-2014 02:00:00 19.9 C 15.29 g/m*3 19.9 C 0 km/h
2771 09-06-2014 02:05:00 19.8 C 15.37 g/m*3 19.8 C 0 km/h
2772 09-06-2014 02:10:00 19.8 C 15.37 g/m*3 19.8 C 0 km/h
2773 09-06-2014 02:15:00 19.7 C 15.28 g/m*3 19.7 C 0 km/h
2774 09-06-2014 02:20:00 19.7 C 15.28 g/m*3 19.7 C 0 km/h
2775 09-06-2014 02:25:00 19.7 C 15.28 g/m*3 19.7 C 1.6 km/h
Sensor: Nr:Datum:Temp:Abs-Feuchte:Windchill:Wind:
Aussen-T/F 2776 09-06-2014 02:30:00 19.7 C 15.45 g/m*3 19.7 C 1.6 km/h
2777 09-06-2014 02:35:00 19.7 C 15.45 g/m*3 19.7 C 0 km/h
2778 09-06-2014 02:40:00 19.7 C 15.45 g/m*3 19.7 C 0 km/h
2779 09-06-2014 02:45:00 19.7 C 15.28 g/m*3 19.7 C 0 km/h
2780 09-06-2014 02:50:00 19.7 C 15.45 g/m*3 19.7 C 0 km/h
2781 09-06-2014 02:55:00 19.7 C 15.45 g/m*3 19.7 C 0 km/h
2782 09-06-2014 03:00:00 19.6 C 15.36 g/m*3 19.6 C 0 km/h
2783 09-06-2014 03:05:00 19.6 C 15.36 g/m*3 19.6 C 0 km/h
2784 09-06-2014 03:10:00 19.6 C 15.53 g/m*3 19.6 C 0 km/h
2785 09-06-2014 03:15:00 19.6 C 15.53 g/m*3 19.6 C 0 km/h
2786 09-06-2014 03:20:00 19.6 C 15.53 g/m*3 19.6 C 0 km/h
2787 09-06-2014 03:25:00 19.4 C 15.35 g/m*3 19.4 C 0 km/h
2788 09-06-2014 03:30:00 19.4 C 15.35 g/m*3 19.4 C 0 km/h
2789 09-06-2014 03:35:00 19.3 C 15.26 g/m*3 19.3 C 0 km/h
2790 09-06-2014 03:40:00 19.3 C 15.26 g/m*3 19.3 C 0 km/h
2791 09-06-2014 03:45:00 19.4 C 15.35 g/m*3 19.4 C 0 km/h
2792 09-06-2014 03:50:00 19.3 C 15.26 g/m*3 19.3 C 0 km/h
2793 09-06-2014 03:55:00 19.4 C 15.35 g/m*3 19.4 C 1.6 km/h
2794 09-06-2014 04:00:00 19.4 C 15.35 g/m*3 19.4 C 1.6 km/h
2795 09-06-2014 04:05:00 19.4 C 15.35 g/m*3 19.4 C 0 km/h
2796 09-06-2014 04:10:00 19.4 C 15.35 g/m*3 19.4 C 3.2 km/h
2797 09-06-2014 04:15:00 19.4 C 15.35 g/m*3 19.4 C 0 km/h
2798 09-06-2014 04:20:00 19.5 C 15.44 g/m*3 19.5 C 1.6 km/h
2799 09-06-2014 04:25:00 19.6 C 15.53 g/m*3 19.6 C 1.6 km/h
2800 09-06-2014 04:30:00 19.6 C 15.36 g/m*3 19.6 C 0 km/h
Sensor: Nr:Datum:Temp:Abs-Feuchte:Windchill:Wind:
Aussen-T/F 2801 09-06-2014 04:35:00 19.6 C 15.19 g/m*3 19.6 C 0 km/h
2802 09-06-2014 04:40:00 19.6 C 15.19 g/m*3 19.6 C 1.6 km/h
2803 09-06-2014 04:45:00 19.5 C 15.1 g/m*3 19.5 C 1.6 km/h
2804 09-06-2014 04:50:00 19.6 C 15.19 g/m*3 19.6 C 8.1 km/h
2805 09-06-2014 04:55:00 19.8 C 15.2 g/m*3 19.8 C 8.1 km/h
2806 09-06-2014 05:00:00 19.7 C 15.11 g/m*3 19.7 C 0 km/h
2807 09-06-2014 05:05:00 19.5 C 14.94 g/m*3 19.5 C 0 km/h
2808 09-06-2014 05:10:00 19.4 C 15.02 g/m*3 19.4 C 0 km/h
2809 09-06-2014 05:15:00 19.3 C 14.93 g/m*3 19.3 C 0 km/h
2810 09-06-2014 05:20:00 19.1 C 14.75 g/m*3 19.1 C 0 km/h
2811 09-06-2014 05:25:00 19 C 14.83 g/m*3 19 C 0 km/h
2812 09-06-2014 05:30:00 18.9 C 14.74 g/m*3 18.9 C 0 km/h
2813 09-06-2014 05:35:00 18.8 C 14.66 g/m*3 18.8 C 0 km/h
2814 09-06-2014 05:40:00 18.8 C 14.82 g/m*3 18.8 C 0 km/h
2815 09-06-2014 05:45:00 18.7 C 14.73 g/m*3 18.7 C 0 km/h
2816 09-06-2014 05:50:00 18.7 C 14.73 g/m*3 18.7 C 0 km/h
2817 09-06-2014 05:55:00 18.7 C 14.73 g/m*3 18.7 C 0 km/h
2818 09-06-2014 06:00:00 18.7 C 14.73 g/m*3 18.7 C 0 km/h
2819 09-06-2014 06:05:00 18.6 C 14.64 g/m*3 18.6 C 0 km/h
2820 09-06-2014 06:10:00 18.6 C 14.64 g/m*3 18.6 C 0 km/h
2821 09-06-2014 06:15:00 18.6 C 14.64 g/m*3 18.6 C 0 km/h
2822 09-06-2014 06:20:00 18.6 C 14.64 g/m*3 18.6 C 0 km/h
2823 09-06-2014 06:25:00 18.6 C 14.64 g/m*3 18.6 C 0 km/h
2824 09-06-2014 06:30:00 18.6 C 14.8 g/m*3 18.6 C 0 km/h
2825 09-06-2014 06:35:00 18.6 C 14.8 g/m*3 18.6 C 0 km/h
Sensor: Nr:Datum:Temp:Abs-Feuchte:Windchill:Wind:
Aussen-T/F 2826 09-06-2014 06:40:00 18.6 C 14.8 g/m*3 18.6 C 0 km/h
2827 09-06-2014 06:45:00 18.6 C 14.8 g/m*3 18.6 C 0 km/h
2828 09-06-2014 06:50:00 18.7 C 14.89 g/m*3 18.7 C 1.6 km/h
2829 09-06-2014 06:55:00 18.7 C 14.89 g/m*3 18.7 C 0 km/h
2830 09-06-2014 07:00:00 18.8 C 14.98 g/m*3 18.8 C 0 km/h
2831 09-06-2014 07:05:00 18.8 C 14.98 g/m*3 18.8 C 0 km/h
2832 09-06-2014 07:10:00 18.8 C 14.98 g/m*3 18.8 C 0 km/h
2833 09-06-2014 07:15:00 18.8 C 14.98 g/m*3 18.8 C 0 km/h
2834 09-06-2014 07:20:00 18.9 C 15.07 g/m*3 18.9 C 0 km/h
2835 09-06-2014 07:25:00 19 C 15.16 g/m*3 19 C 0 km/h
2836 09-06-2014 07:30:00 19.1 C 15.25 g/m*3 19.1 C 0 km/h
2837 09-06-2014 07:35:00 19.2 C 15.34 g/m*3 19.2 C 0 km/h
2838 09-06-2014 07:40:00 19.3 C 15.43 g/m*3 19.3 C 0 km/h
2839 09-06-2014 07:45:00 19.3 C 15.43 g/m*3 19.3 C 0 km/h
2840 09-06-2014 07:50:00 19.4 C 15.52 g/m*3 19.4 C 0 km/h
2841 09-06-2014 07:55:00 19.7 C 15.79 g/m*3 19.7 C 0 km/h
2842 09-06-2014 08:00:00 19.9 C 15.81 g/m*3 19.9 C 0 km/h
2843 09-06-2014 08:05:00 20.2 C 15.91 g/m*3 20.2 C 0 km/h
2844 09-06-2014 08:10:00 20.5 C 16.01 g/m*3 20.5 C 0 km/h
2845 09-06-2014 08:15:00 20.7 C 16.02 g/m*3 20.7 C 0 km/h
2846 09-06-2014 08:20:00 20.9 C 16.03 g/m*3 20.9 C 0 km/h
2847 09-06-2014 08:25:00 21.2 C 16.31 g/m*3 21.2 C 0 km/h
2848 09-06-2014 08:30:00 21.4 C 16.5 g/m*3 21.4 C 0 km/h
2849 09-06-2014 08:35:00 21.6 C 16.31 g/m*3 21.6 C 0 km/h
2850 09-06-2014 08:40:00 21.8 C 16.5 g/m*3 21.8 C 0 km/h
Sensor: Nr:Datum:Temp:Abs-Feuchte:Windchill:Wind:
Aussen-T/F 2851 09-06-2014 08:45:00 21.9 C 16.6 g/m*3 21.9 C 0 km/h
2852 09-06-2014 08:50:00 21.9 C 16.4 g/m*3 21.9 C 0 km/h
2853 09-06-2014 08:55:00 22.1 C 16.79 g/m*3 22.1 C 0 km/h
2854 09-06-2014 09:00:00 22.4 C 17.08 g/m*3 22.4 C 0 km/h
2855 09-06-2014 09:05:00 22.7 C 16.77 g/m*3 22.7 C 4.8 km/h
2856 09-06-2014 09:10:00 23.2 C 16.84 g/m*3 23.2 C 4.8 km/h
2857 09-06-2014 09:15:00 23.6 C 17.23 g/m*3 23.6 C 3.2 km/h
2858 09-06-2014 09:20:00 23.7 C 16.9 g/m*3 23.7 C 1.6 km/h
2859 09-06-2014 09:25:00 23.7 C 17.11 g/m*3 23.7 C 3.2 km/h
2860 09-06-2014 09:30:00 23.4 C 16.82 g/m*3 23.4 C 9.7 km/h
2861 09-06-2014 09:35:00 23.6 C 16.8 g/m*3 23.6 C 9.7 km/h
2862 09-06-2014 09:40:00 23.9 C 16.66 g/m*3 23.9 C 1.6 km/h
2863 09-06-2014 09:45:00 24.2 C 16.72 g/m*3 24.2 C 6.4 km/h
2864 09-06-2014 09:50:00 24.4 C 16.91 g/m*3 24.4 C 4.8 km/h
2865 09-06-2014 09:55:00 24.8 C 17.07 g/m*3 24.8 C 8.1 km/h
2866 09-06-2014 10:00:00 25.2 C 16.76 g/m*3 25.2 C 4.8 km/h
2867 09-06-2014 10:05:00 25.6 C 16.9 g/m*3 25.6 C 3.2 km/h
2868 09-06-2014 10:10:00 25.9 C 16.95 g/m*3 25.9 C 9.7 km/h
2869 09-06-2014 10:15:00 26.3 C 17.08 g/m*3 26.3 C 8.1 km/h
2870 09-06-2014 10:20:00 26.5 C 17.02 g/m*3 26.5 C 6.4 km/h
2871 09-06-2014 10:25:00 26.7 C 16.96 g/m*3 26.7 C 8.1 km/h
2872 09-06-2014 10:30:00 26.7 C 16.71 g/m*3 26.7 C 6.4 km/h
2873 09-06-2014 10:35:00 26.8 C 17.05 g/m*3 26.8 C 8.1 km/h
2874 09-06-2014 10:40:00 26.9 C 16.89 g/m*3 26.9 C 6.4 km/h
2875 09-06-2014 10:45:00 27.1 C 17.08 g/m*3 27.1 C 6.4 km/h
Sensor: Nr:Datum:Temp:Abs-Feuchte:Windchill:Wind:
Aussen-T/F 2876 09-06-2014 10:50:00 27.1 C 16.82 g/m*3 27.1 C 12.9 km/h
2877 09-06-2014 10:55:00 27.2 C 16.39 g/m*3 27.2 C 6.4 km/h
2878 09-06-2014 11:00:00 27.4 C 16.84 g/m*3 27.4 C 6.4 km/h
2879 09-06-2014 11:05:00 27.6 C 16.76 g/m*3 27.6 C 6.4 km/h
2880 09-06-2014 11:10:00 27.8 C 17.21 g/m*3 27.8 C 9.7 km/h
2881 09-06-2014 11:15:00 28.1 C 17.23 g/m*3 28.1 C 6.4 km/h
2882 09-06-2014 11:20:00 28.2 C 17.32 g/m*3 28.2 C 9.7 km/h
2883 09-06-2014 11:25:00 28.4 C 17.51 g/m*3 28.4 C 4.8 km/h
2884 09-06-2014 11:30:00 28.4 C 17.51 g/m*3 28.4 C 4.8 km/h
2885 09-06-2014 11:35:00 28.6 C 17.99 g/m*3 28.6 C 4.8 km/h
2886 09-06-2014 11:40:00 28.9 C 17.43 g/m*3 28.9 C 6.4 km/h
2887 09-06-2014 11:45:00 29.2 C 17.42 g/m*3 29.2 C 8.1 km/h
2888 09-06-2014 11:50:00 29.3 C 17.81 g/m*3 29.3 C 8.1 km/h
2889 09-06-2014 11:55:00 29.6 C 18.1 g/m*3 29.6 C 6.4 km/h
2890 09-06-2014 12:00:00 29.8 C 18 g/m*3 29.8 C 6.4 km/h
2891 09-06-2014 12:05:00 30 C 17.89 g/m*3 30 C 11.3 km/h
2892 09-06-2014 12:10:00 30.2 C 17.47 g/m*3 30.2 C 8.1 km/h
2893 09-06-2014 12:15:00 30.2 C 18.09 g/m*3 30.2 C 8.1 km/h
2894 09-06-2014 12:20:00 30.2 C 17.78 g/m*3 30.2 C 9.7 km/h
2895 09-06-2014 12:25:00 30.2 C 18.39 g/m*3 30.2 C 9.7 km/h
2896 09-06-2014 12:30:00 30.3 C 17.88 g/m*3 30.3 C 9.7 km/h
2897 09-06-2014 12:35:00 30.4 C 17.66 g/m*3 30.4 C 8.1 km/h
2898 09-06-2014 12:40:00 30.5 C 18.07 g/m*3 30.5 C 11.3 km/h
2899 09-06-2014 12:45:00 30.7 C 17.95 g/m*3 30.7 C 8.1 km/h
2900 09-06-2014 12:50:00 30.8 C 17.73 g/m*3 30.8 C 9.7 km/h
Sensor: Nr:Datum:Temp:Abs-Feuchte:Windchill:Wind:
Aussen-T/F 2901 09-06-2014 12:55:00 31 C 17.92 g/m*3 31 C 9.7 km/h
2902 09-06-2014 13:00:00 31.2 C 17.79 g/m*3 31.2 C 8.1 km/h
2903 09-06-2014 13:05:00 31.5 C 17.75 g/m*3 31.5 C 12.9 km/h
2904 09-06-2014 13:10:00 31.5 C 18.08 g/m*3 31.5 C 12.9 km/h
2905 09-06-2014 13:15:00 31.7 C 17.28 g/m*3 31.7 C 12.9 km/h
2906 09-06-2014 13:20:00 32 C 17.89 g/m*3 32 C 11.3 km/h
2907 09-06-2014 13:25:00 32.2 C 17.4 g/m*3 32.2 C 8.1 km/h
2908 09-06-2014 13:30:00 32.5 C 18.37 g/m*3 32.5 C 6.4 km/h
2909 09-06-2014 13:35:00 32.7 C 17.52 g/m*3 32.7 C 11.3 km/h
2910 09-06-2014 13:40:00 32.9 C 17.35 g/m*3 32.9 C 8.1 km/h
2911 09-06-2014 13:45:00 33 C 17.44 g/m*3 33 C 4.8 km/h
2912 09-06-2014 13:50:00 33.1 C 17.54 g/m*3 33.1 C 6.4 km/h
2913 09-06-2014 13:55:00 33.3 C 17.36 g/m*3 33.3 C 9.7 km/h
2914 09-06-2014 14:00:00 33.3 C 17.72 g/m*3 33.3 C 12.9 km/h
2915 09-06-2014 14:05:00 33 C 17.09 g/m*3 33 C 9.7 km/h
2916 09-06-2014 14:10:00 33.3 C 17.72 g/m*3 33.3 C 6.4 km/h
2917 09-06-2014 14:15:00 33.5 C 17.91 g/m*3 33.5 C 9.7 km/h
2918 09-06-2014 14:20:00 33.6 C 16.9 g/m*3 33.6 C 8.1 km/h
2919 09-06-2014 14:25:00 33.7 C 17.73 g/m*3 33.7 C 8.1 km/h
2920 09-06-2014 14:30:00 33.8 C 17.82 g/m*3 33.8 C 6.4 km/h
2921 09-06-2014 14:35:00 33.8 C 17.82 g/m*3 33.8 C 9.7 km/h
2922 09-06-2014 14:40:00 33.8 C 17.82 g/m*3 33.8 C 8.1 km/h
2923 09-06-2014 14:45:00 33.9 C 17.54 g/m*3 33.9 C 9.7 km/h
2924 09-06-2014 14:50:00 34.2 C 17.44 g/m*3 34.2 C 9.7 km/h
2925 09-06-2014 14:55:00 34.2 C 16.68 g/m*3 34.2 C 9.7 km/h
Sensor: Nr:Datum:Temp:Abs-Feuchte:Windchill:Wind:
Aussen-T/F 2926 09-06-2014 15:00:00 34.2 C 17.06 g/m*3 34.2 C 6.4 km/h
2927 09-06-2014 15:05:00 34.2 C 17.44 g/m*3 34.2 C 11.3 km/h
2928 09-06-2014 15:10:00 34.3 C 17.15 g/m*3 34.3 C 11.3 km/h
2929 09-06-2014 15:15:00 34.2 C 17.06 g/m*3 34.2 C 14.5 km/h
2930 09-06-2014 15:20:00 34.1 C 16.6 g/m*3 34.1 C 9.7 km/h
2931 09-06-2014 15:25:00 34.2 C 17.44 g/m*3 34.2 C 9.7 km/h
2932 09-06-2014 15:30:00 34.4 C 17.62 g/m*3 34.4 C 9.7 km/h
2933 09-06-2014 15:35:00 34.4 C 17.24 g/m*3 34.4 C 8.1 km/h
2934 09-06-2014 15:40:00 34.4 C 16.09 g/m*3 34.4 C 6.4 km/h
2935 09-06-2014 15:45:00 34.6 C 15.87 g/m*3 34.6 C 11.3 km/h
2936 09-06-2014 15:50:00 34.6 C 16.26 g/m*3 34.6 C 8.1 km/h
2937 09-06-2014 15:55:00 34.7 C 16.35 g/m*3 34.7 C 4.8 km/h
2938 09-06-2014 16:00:00 34.8 C 16.04 g/m*3 34.8 C 11.3 km/h
2939 09-06-2014 16:05:00 34.8 C 16.04 g/m*3 34.8 C 8.1 km/h
2940 09-06-2014 16:10:00 34.9 C 16.52 g/m*3 34.9 C 6.4 km/h
2941 09-06-2014 16:15:00 34.8 C 15.65 g/m*3 34.8 C 8.1 km/h
2942 09-06-2014 16:20:00 34.7 C 15.18 g/m*3 34.7 C 8.1 km/h
2943 09-06-2014 16:25:00 34.8 C 15.65 g/m*3 34.8 C 4.8 km/h
2944 09-06-2014 16:30:00 34.8 C 15.26 g/m*3 34.8 C 4.8 km/h
2945 09-06-2014 16:35:00 34.8 C 15.26 g/m*3 34.8 C 6.4 km/h
2946 09-06-2014 16:40:00 34.9 C 16.91 g/m*3 34.9 C 4.8 km/h
2947 09-06-2014 16:45:00 35.1 C 16.29 g/m*3 35.1 C 4.8 km/h
2948 09-06-2014 16:50:00 35.1 C 16.69 g/m*3 35.1 C 6.4 km/h
2949 09-06-2014 16:55:00 34.8 C 16.82 g/m*3 34.8 C 3.2 km/h
2950 09-06-2014 17:00:00 34.7 C 17.51 g/m*3 34.7 C 8.1 km/h
Sensor: Nr:Datum:Temp:Abs-Feuchte:Windchill:Wind:
Aussen-T/F 2951 09-06-2014 17:05:00 35 C 17.39 g/m*3 35 C 8.1 km/h
2952 09-06-2014 17:10:00 35.3 C 17.67 g/m*3 35.3 C 9.7 km/h
2953 09-06-2014 17:15:00 35 C 16.6 g/m*3 35 C 6.4 km/h
2954 09-06-2014 17:20:00 35.2 C 16.38 g/m*3 35.2 C 8.1 km/h
2955 09-06-2014 17:25:00 35.2 C 16.78 g/m*3 35.2 C 6.4 km/h
2956 09-06-2014 17:30:00 35.2 C 17.18 g/m*3 35.2 C 6.4 km/h
2957 09-06-2014 17:35:00 35.1 C 17.48 g/m*3 35.1 C 3.2 km/h
2958 09-06-2014 17:40:00 35.1 C 17.09 g/m*3 35.1 C 6.4 km/h
2959 09-06-2014 17:45:00 35.2 C 17.18 g/m*3 35.2 C 12.9 km/h
2960 09-06-2014 17:50:00 35.2 C 17.18 g/m*3 35.2 C 8.1 km/h
2961 09-06-2014 17:55:00 35.3 C 16.46 g/m*3 35.3 C 4.8 km/h
2962 09-06-2014 18:00:00 35.4 C 17.36 g/m*3 35.4 C 8.1 km/h
2963 09-06-2014 18:05:00 35.3 C 16.46 g/m*3 35.3 C 6.4 km/h
2964 09-06-2014 18:10:00 35.2 C 16.38 g/m*3 35.2 C 8.1 km/h
2965 09-06-2014 18:15:00 35.2 C 16.38 g/m*3 35.2 C 11.3 km/h
2966 09-06-2014 18:20:00 35 C 16.6 g/m*3 35 C 16.1 km/h
2967 09-06-2014 18:25:00 34.8 C 16.43 g/m*3 34.8 C 16.1 km/h
2968 09-06-2014 18:30:00 34.8 C 16.43 g/m*3 34.8 C 9.7 km/h
2969 09-06-2014 18:35:00 34.8 C 16.43 g/m*3 34.8 C 9.7 km/h
2970 09-06-2014 18:40:00 34.8 C 16.43 g/m*3 34.8 C 9.7 km/h
2971 09-06-2014 18:45:00 34.6 C 17.42 g/m*3 34.6 C 11.3 km/h
2972 09-06-2014 18:50:00 34.2 C 18.2 g/m*3 34.2 C 11.3 km/h
2973 09-06-2014 18:55:00 33.9 C 17.54 g/m*3 33.9 C 9.7 km/h
2974 09-06-2014 19:00:00 33.5 C 17.54 g/m*3 33.5 C 12.9 km/h
2975 09-06-2014 19:05:00 33.4 C 17.45 g/m*3 33.4 C 11.3 km/h
Sensor: Nr:Datum:Temp:Abs-Feuchte:Windchill:Wind:
Aussen-T/F 2976 09-06-2014 19:10:00 33.3 C 17.72 g/m*3 33.3 C 9.7 km/h
2977 09-06-2014 19:15:00 33.1 C 18.25 g/m*3 33.1 C 4.8 km/h
2978 09-06-2014 19:20:00 32.9 C 17.7 g/m*3 32.9 C 6.4 km/h
2979 09-06-2014 19:25:00 32.7 C 18.57 g/m*3 32.7 C 3.2 km/h
2980 09-06-2014 19:30:00 32.4 C 17.93 g/m*3 32.4 C 3.2 km/h
2981 09-06-2014 19:35:00 32.2 C 19.11 g/m*3 32.2 C 3.2 km/h
2982 09-06-2014 19:40:00 31.2 C 18.76 g/m*3 31.2 C 1.6 km/h
2983 09-06-2014 19:45:00 30.2 C 19.01 g/m*3 30.2 C 0 km/h
2984 09-06-2014 19:50:00 29.1 C 19.06 g/m*3 29.1 C 1.6 km/h
2985 09-06-2014 19:55:00 28.2 C 18.97 g/m*3 28.2 C 1.6 km/h
2986 09-06-2014 20:00:00 27.6 C 18.89 g/m*3 27.6 C 1.6 km/h
2987 09-06-2014 20:05:00 27.2 C 18.74 g/m*3 27.2 C 0 km/h
2988 09-06-2014 20:10:00 26.8 C 18.58 g/m*3 26.8 C 1.6 km/h
2989 09-06-2014 20:15:00 26.7 C 18.48 g/m*3 26.7 C 0 km/h
2990 09-06-2014 20:20:00 26.5 C 18.52 g/m*3 26.5 C 0 km/h
2991 09-06-2014 20:25:00 26.3 C 18.32 g/m*3 26.3 C 1.6 km/h
2992 09-06-2014 20:30:00 26.1 C 17.38 g/m*3 26.1 C 1.6 km/h
2993 09-06-2014 20:35:00 25.9 C 17.19 g/m*3 25.9 C 1.6 km/h
2994 09-06-2014 20:40:00 25.7 C 16.76 g/m*3 25.7 C 0 km/h
2995 09-06-2014 20:45:00 25.4 C 16.72 g/m*3 25.4 C 1.6 km/h
2996 09-06-2014 20:50:00 25.3 C 16.62 g/m*3 25.3 C 1.6 km/h
2997 09-06-2014 20:55:00 25.2 C 16.76 g/m*3 25.2 C 1.6 km/h
2998 09-06-2014 21:00:00 25.1 C 16.67 g/m*3 25.1 C 0 km/h
2999 09-06-2014 21:05:00 25.1 C 16.67 g/m*3 25.1 C 1.6 km/h
3000 09-06-2014 21:10:00 25.2 C 16.3 g/m*3 25.2 C 1.6 km/h
Sensor: Nr:Datum:Temp:Abs-Feuchte:Windchill:Wind:
Aussen-T/F 3001 09-06-2014 21:15:00 25.1 C 16.2 g/m*3 25.1 C 1.6 km/h
3002 09-06-2014 21:20:00 25.3 C 16.86 g/m*3 25.3 C 11.3 km/h
3003 09-06-2014 21:25:00 26.3 C 15.84 g/m*3 26.3 C 14.5 km/h
3004 09-06-2014 21:30:00 26.8 C 15.27 g/m*3 26.8 C 20.9 km/h
3005 09-06-2014 21:35:00 26.8 C 14.76 g/m*3 26.8 C 11.3 km/h
3006 09-06-2014 21:40:00 26.3 C 13.62 g/m*3 26.3 C 19.3 km/h
3007 09-06-2014 21:45:00 25.8 C 13 g/m*3 25.8 C 11.3 km/h
3008 09-06-2014 21:50:00 25.2 C 12.8 g/m*3 25.2 C 14.5 km/h
3009 09-06-2014 21:55:00 24.8 C 12.29 g/m*3 24.8 C 11.3 km/h
3010 09-06-2014 22:00:00 24.4 C 12.24 g/m*3 24.4 C 19.3 km/h
3011 09-06-2014 22:05:00 23.9 C 12.33 g/m*3 23.9 C 14.5 km/h
3012 09-06-2014 22:10:00 23.1 C 12.4 g/m*3 23.1 C 9.7 km/h
3013 09-06-2014 22:15:00 22.3 C 12.44 g/m*3 22.3 C 16.1 km/h
3014 09-06-2014 22:20:00 21.8 C 12.47 g/m*3 21.8 C 6.4 km/h
3015 09-06-2014 22:25:00 21.6 C 12.52 g/m*3 21.6 C 6.4 km/h
3016 09-06-2014 22:30:00 21.4 C 12.75 g/m*3 21.4 C 12.9 km/h
3017 09-06-2014 22:35:00 21.2 C 12.79 g/m*3 21.2 C 9.7 km/h
3018 09-06-2014 22:40:00 21.2 C 12.79 g/m*3 21.2 C 8.1 km/h
3019 09-06-2014 22:45:00 21.1 C 12.9 g/m*3 21.1 C 4.8 km/h
3020 09-06-2014 22:50:00 20.9 C 12.75 g/m*3 20.9 C 3.2 km/h
3021 09-06-2014 22:55:00 20.8 C 12.86 g/m*3 20.8 C 3.2 km/h
3022 09-06-2014 23:00:00 20.7 C 12.78 g/m*3 20.7 C 3.2 km/h
3023 09-06-2014 23:05:00 20.6 C 12.71 g/m*3 20.6 C 4.8 km/h
3024 09-06-2014 23:10:00 20.6 C 12.89 g/m*3 20.6 C 3.2 km/h
3025 09-06-2014 23:15:00 20.5 C 12.99 g/m*3 20.5 C 0 km/h
Sensor: Nr:Datum:Temp:Abs-Feuchte:Windchill:Wind:
Aussen-T/F 3026 09-06-2014 23:20:00 20.2 C 12.94 g/m*3 20.2 C 0 km/h
3027 09-06-2014 23:25:00 19.9 C 12.89 g/m*3 19.9 C 0 km/h
3028 09-06-2014 23:30:00 19.7 C 12.91 g/m*3 19.7 C 0 km/h
3029 09-06-2014 23:35:00 19.6 C 13 g/m*3 19.6 C 0 km/h
3030 09-06-2014 23:40:00 19.4 C 12.85 g/m*3 19.4 C 0 km/h
3031 09-06-2014 23:45:00 19.3 C 12.94 g/m*3 19.3 C 0 km/h
3032 09-06-2014 23:50:00 19.2 C 12.86 g/m*3 19.2 C 0 km/h
3033 09-06-2014 23:55:00 18.9 C 12.8 g/m*3 18.9 C 0 km/h
3034 10-06-2014 00:00:00 18.8 C 12.88 g/m*3 18.8 C 0 km/h
3035 10-06-2014 00:05:00 18.7 C 12.81 g/m*3 18.7 C 0 km/h
3036 10-06-2014 00:10:00 18.6 C 12.89 g/m*3 18.6 C 0 km/h
3037 10-06-2014 00:15:00 18.6 C 12.89 g/m*3 18.6 C 0 km/h
3038 10-06-2014 00:20:00 18.6 C 12.89 g/m*3 18.6 C 0 km/h
3039 10-06-2014 00:25:00 18.5 C 12.82 g/m*3 18.5 C 0 km/h
3040 10-06-2014 00:30:00 18.4 C 12.9 g/m*3 18.4 C 0 km/h
3041 10-06-2014 00:35:00 18.4 C 12.9 g/m*3 18.4 C 0 km/h
3042 10-06-2014 00:40:00 18.3 C 12.82 g/m*3 18.3 C 0 km/h
3043 10-06-2014 00:45:00 18.3 C 12.82 g/m*3 18.3 C 0 km/h
3044 10-06-2014 00:50:00 18.2 C 12.75 g/m*3 18.2 C 0 km/h
3045 10-06-2014 00:55:00 18.2 C 12.75 g/m*3 18.2 C 0 km/h
3046 10-06-2014 01:00:00 18.1 C 12.82 g/m*3 18.1 C 0 km/h
3047 10-06-2014 01:05:00 18 C 12.75 g/m*3 18 C 0 km/h
3048 10-06-2014 01:10:00 17.9 C 12.67 g/m*3 17.9 C 0 km/h
3049 10-06-2014 01:15:00 17.9 C 12.67 g/m*3 17.9 C 0 km/h
3050 10-06-2014 01:20:00 17.8 C 12.6 g/m*3 17.8 C 0 km/h
Sensor: Nr:Datum:Temp:Abs-Feuchte:Windchill:Wind:
Aussen-T/F 3051 10-06-2014 01:25:00 17.8 C 12.75 g/m*3 17.8 C 0 km/h
3052 10-06-2014 01:30:00 17.7 C 12.67 g/m*3 17.7 C 0 km/h
3053 10-06-2014 01:35:00 17.6 C 12.6 g/m*3 17.6 C 0 km/h
3054 10-06-2014 01:40:00 17.6 C 12.75 g/m*3 17.6 C 1.6 km/h
3055 10-06-2014 01:45:00 17.6 C 12.75 g/m*3 17.6 C 0 km/h
3056 10-06-2014 01:50:00 17.5 C 12.67 g/m*3 17.5 C 0 km/h
3057 10-06-2014 01:55:00 17.5 C 12.67 g/m*3 17.5 C 0 km/h
3058 10-06-2014 02:00:00 17.4 C 12.75 g/m*3 17.4 C 0 km/h
3059 10-06-2014 02:05:00 17.4 C 12.75 g/m*3 17.4 C 1.6 km/h
3060 10-06-2014 02:10:00 17.4 C 12.75 g/m*3 17.4 C 1.6 km/h
3061 10-06-2014 02:15:00 17.3 C 12.67 g/m*3 17.3 C 0 km/h
3062 10-06-2014 02:20:00 17.3 C 12.67 g/m*3 17.3 C 0 km/h
3063 10-06-2014 02:25:00 17.2 C 12.59 g/m*3 17.2 C 0 km/h
3064 10-06-2014 02:30:00 17.1 C 12.66 g/m*3 17.1 C 0 km/h
3065 10-06-2014 02:35:00 17 C 12.59 g/m*3 17 C 0 km/h
3066 10-06-2014 02:40:00 17 C 12.59 g/m*3 17 C 0 km/h
3067 10-06-2014 02:45:00 16.9 C 12.51 g/m*3 16.9 C 0 km/h
3068 10-06-2014 02:50:00 16.9 C 12.51 g/m*3 16.9 C 0 km/h
3069 10-06-2014 02:55:00 16.8 C 12.58 g/m*3 16.8 C 0 km/h
3070 10-06-2014 03:00:00 16.8 C 12.58 g/m*3 16.8 C 0 km/h
3071 10-06-2014 03:05:00 16.7 C 12.51 g/m*3 16.7 C 0 km/h
3072 10-06-2014 03:10:00 16.6 C 12.43 g/m*3 16.6 C 0 km/h
3073 10-06-2014 03:15:00 16.6 C 12.57 g/m*3 16.6 C 0 km/h
3074 10-06-2014 03:20:00 16.6 C 12.57 g/m*3 16.6 C 0 km/h
3075 10-06-2014 03:25:00 16.6 C 12.57 g/m*3 16.6 C 0 km/h
Sensor: Nr:Datum:Temp:Abs-Feuchte:Windchill:Wind:
Aussen-T/F 3076 10-06-2014 03:30:00 16.6 C 12.57 g/m*3 16.6 C 3.2 km/h
3077 10-06-2014 03:35:00 16.6 C 12.57 g/m*3 16.6 C 0 km/h
3078 10-06-2014 03:40:00 16.6 C 12.57 g/m*3 16.6 C 0 km/h
3079 10-06-2014 03:45:00 16.6 C 12.57 g/m*3 16.6 C 0 km/h
3080 10-06-2014 03:50:00 16.6 C 12.57 g/m*3 16.6 C 1.6 km/h
3081 10-06-2014 03:55:00 16.6 C 12.57 g/m*3 16.6 C 0 km/h
3082 10-06-2014 04:00:00 16.6 C 12.57 g/m*3 16.6 C 1.6 km/h
3083 10-06-2014 04:05:00 16.6 C 12.57 g/m*3 16.6 C 0 km/h
3084 10-06-2014 04:10:00 16.6 C 12.57 g/m*3 16.6 C 0 km/h
3085 10-06-2014 04:15:00 16.4 C 12.42 g/m*3 16.4 C 0 km/h
3086 10-06-2014 04:20:00 16.3 C 12.35 g/m*3 16.3 C 0 km/h
3087 10-06-2014 04:25:00 16.3 C 12.35 g/m*3 16.3 C 0 km/h
3088 10-06-2014 04:30:00 16.3 C 12.35 g/m*3 16.3 C 0 km/h
3089 10-06-2014 04:35:00 16.3 C 12.35 g/m*3 16.3 C 0 km/h
3090 10-06-2014 04:40:00 16.2 C 12.27 g/m*3 16.2 C 0 km/h
3091 10-06-2014 04:45:00 16.2 C 12.41 g/m*3 16.2 C 4.8 km/h
3092 10-06-2014 04:50:00 16.2 C 12.27 g/m*3 16.2 C 4.8 km/h
3093 10-06-2014 04:55:00 16.2 C 12.41 g/m*3 16.2 C 0 km/h
3094 10-06-2014 05:00:00 16.1 C 12.2 g/m*3 16.1 C 0 km/h
3095 10-06-2014 05:05:00 16.1 C 12.2 g/m*3 16.1 C 0 km/h
3096 10-06-2014 05:10:00 16 C 12.26 g/m*3 16 C 0 km/h
3097 10-06-2014 05:15:00 16 C 12.4 g/m*3 16 C 0 km/h
3098 10-06-2014 05:20:00 15.9 C 12.32 g/m*3 15.9 C 0 km/h
3099 10-06-2014 05:25:00 15.9 C 12.32 g/m*3 15.9 C 0 km/h
3100 10-06-2014 05:30:00 15.9 C 12.32 g/m*3 15.9 C 0 km/h
Sensor: Nr:Datum:Temp:Abs-Feuchte:Windchill:Wind:
Aussen-T/F 3101 10-06-2014 05:35:00 15.9 C 12.32 g/m*3 15.9 C 0 km/h
3102 10-06-2014 05:40:00 16 C 12.4 g/m*3 16 C 0 km/h
3103 10-06-2014 05:45:00 16.1 C 12.61 g/m*3 16.1 C 0 km/h
3104 10-06-2014 05:50:00 16.1 C 12.47 g/m*3 16.1 C 1.6 km/h
3105 10-06-2014 05:55:00 16.3 C 12.62 g/m*3 16.3 C 6.4 km/h
3106 10-06-2014 06:00:00 16.4 C 12.56 g/m*3 16.4 C 6.4 km/h
3107 10-06-2014 06:05:00 16.5 C 12.64 g/m*3 16.5 C 1.6 km/h
3108 10-06-2014 06:10:00 16.6 C 12.71 g/m*3 16.6 C 6.4 km/h
3109 10-06-2014 06:15:00 16.7 C 12.79 g/m*3 16.7 C 1.6 km/h
3110 10-06-2014 06:20:00 16.6 C 12.71 g/m*3 16.6 C 0 km/h
3111 10-06-2014 06:25:00 16.7 C 12.79 g/m*3 16.7 C 0 km/h
3112 10-06-2014 06:30:00 16.6 C 12.71 g/m*3 16.6 C 0 km/h
3113 10-06-2014 06:35:00 16.7 C 12.65 g/m*3 16.7 C 1.6 km/h
3114 10-06-2014 06:40:00 16.7 C 12.65 g/m*3 16.7 C 1.6 km/h
3115 10-06-2014 06:45:00 16.8 C 12.72 g/m*3 16.8 C 4.8 km/h
3116 10-06-2014 06:50:00 16.8 C 12.87 g/m*3 16.8 C 0 km/h
3117 10-06-2014 06:55:00 16.8 C 12.87 g/m*3 16.8 C 0 km/h
3118 10-06-2014 07:00:00 16.8 C 12.87 g/m*3 16.8 C 4.8 km/h
3119 10-06-2014 07:05:00 16.8 C 12.87 g/m*3 16.8 C 4.8 km/h
3120 10-06-2014 07:10:00 17.3 C 13.11 g/m*3 17.3 C 1.6 km/h
3121 10-06-2014 07:15:00 17.6 C 13.35 g/m*3 17.6 C 4.8 km/h
3122 10-06-2014 07:20:00 17.7 C 13.28 g/m*3 17.7 C 3.2 km/h
3123 10-06-2014 07:25:00 18 C 13.36 g/m*3 18 C 4.8 km/h
3124 10-06-2014 07:30:00 18.3 C 13.6 g/m*3 18.3 C 0 km/h
3125 10-06-2014 07:35:00 18.4 C 13.68 g/m*3 18.4 C 0 km/h
Sensor: Nr:Datum:Temp:Abs-Feuchte:Windchill:Wind:
Aussen-T/F 3126 10-06-2014 07:40:00 18.6 C 13.69 g/m*3 18.6 C 1.6 km/h
3127 10-06-2014 07:45:00 18.7 C 13.77 g/m*3 18.7 C 0 km/h
3128 10-06-2014 07:50:00 18.8 C 13.53 g/m*3 18.8 C 0 km/h
3129 10-06-2014 07:55:00 18.9 C 13.93 g/m*3 18.9 C 0 km/h
3130 10-06-2014 08:00:00 18.9 C 13.61 g/m*3 18.9 C 0 km/h
3131 10-06-2014 08:05:00 19.1 C 13.93 g/m*3 19.1 C 0 km/h
3132 10-06-2014 08:10:00 19.2 C 14.02 g/m*3 19.2 C 0 km/h
3133 10-06-2014 08:15:00 19.4 C 14.01 g/m*3 19.4 C 0 km/h
3134 10-06-2014 08:20:00 19.6 C 14.18 g/m*3 19.6 C 0 km/h
3135 10-06-2014 08:25:00 19.8 C 14.35 g/m*3 19.8 C 0 km/h
3136 10-06-2014 08:30:00 19.9 C 14.43 g/m*3 19.9 C 1.6 km/h
3137 10-06-2014 08:35:00 20.1 C 14.25 g/m*3 20.1 C 0 km/h
3138 10-06-2014 08:40:00 20.4 C 14.51 g/m*3 20.4 C 0 km/h
3139 10-06-2014 08:45:00 20.7 C 14.58 g/m*3 20.7 C 0 km/h
3140 10-06-2014 08:50:00 21 C 14.65 g/m*3 21 C 0 km/h
3141 10-06-2014 08:55:00 21.2 C 14.83 g/m*3 21.2 C 0 km/h
3142 10-06-2014 09:00:00 21.2 C 14.64 g/m*3 21.2 C 0 km/h
3143 10-06-2014 09:05:00 21.3 C 14.35 g/m*3 21.3 C 0 km/h
3144 10-06-2014 09:10:00 21.3 C 14.73 g/m*3 21.3 C 0 km/h
3145 10-06-2014 09:15:00 21.3 C 14.54 g/m*3 21.3 C 0 km/h
3146 10-06-2014 09:20:00 21.1 C 14.56 g/m*3 21.1 C 0 km/h
3147 10-06-2014 09:25:00 20.8 C 14.67 g/m*3 20.8 C 0 km/h
3148 10-06-2014 09:30:00 20.8 C 14.67 g/m*3 20.8 C 0 km/h
3149 10-06-2014 09:35:00 21 C 14.65 g/m*3 21 C 3.2 km/h
3150 10-06-2014 09:40:00 21.4 C 13.87 g/m*3 21.4 C 3.2 km/h
Sensor: Nr:Datum:Temp:Abs-Feuchte:Windchill:Wind:
Aussen-T/F 3151 10-06-2014 09:45:00 21.8 C 14.01 g/m*3 21.8 C 1.6 km/h
3152 10-06-2014 09:50:00 21.8 C 14.58 g/m*3 21.8 C 0 km/h
3153 10-06-2014 09:55:00 21.6 C 14.79 g/m*3 21.6 C 0 km/h
3154 10-06-2014 10:00:00 21.4 C 15 g/m*3 21.4 C 0 km/h
3155 10-06-2014 10:05:00 21.7 C 15.26 g/m*3 21.7 C 0 km/h
3156 10-06-2014 10:10:00 22.2 C 14.53 g/m*3 22.2 C 0 km/h
3157 10-06-2014 10:15:00 22.6 C 15.27 g/m*3 22.6 C 1.6 km/h
3158 10-06-2014 10:20:00 23.1 C 14.06 g/m*3 23.1 C 1.6 km/h
3159 10-06-2014 10:25:00 23.7 C 14.33 g/m*3 23.7 C 1.6 km/h
3160 10-06-2014 10:30:00 24.2 C 14.3 g/m*3 24.2 C 3.2 km/h
3161 10-06-2014 10:35:00 24.6 C 14.4 g/m*3 24.6 C 4.8 km/h
3162 10-06-2014 10:40:00 25 C 14.27 g/m*3 25 C 6.4 km/h
3163 10-06-2014 10:45:00 25.4 C 14.36 g/m*3 25.4 C 8.1 km/h
3164 10-06-2014 10:50:00 25.7 C 14.36 g/m*3 25.7 C 11.3 km/h
3165 10-06-2014 10:55:00 25.9 C 14.04 g/m*3 25.9 C 6.4 km/h
3166 10-06-2014 11:00:00 26 C 14.12 g/m*3 26 C 4.8 km/h
3167 10-06-2014 11:05:00 25.9 C 14.04 g/m*3 25.9 C 3.2 km/h
3168 10-06-2014 11:10:00 25.9 C 14.28 g/m*3 25.9 C 1.6 km/h
3169 10-06-2014 11:15:00 25.8 C 14.69 g/m*3 25.8 C 1.6 km/h
3170 10-06-2014 11:20:00 25.6 C 15.24 g/m*3 25.6 C 0 km/h
3171 10-06-2014 11:25:00 25.2 C 15.83 g/m*3 25.2 C 0 km/h
3172 10-06-2014 11:30:00 24.7 C 16.07 g/m*3 24.7 C 0 km/h
3173 10-06-2014 11:35:00 24.3 C 15.93 g/m*3 24.3 C 0 km/h
3174 10-06-2014 11:40:00 24.2 C 16.06 g/m*3 24.2 C 0 km/h
3175 10-06-2014 11:45:00 24.4 C 15.58 g/m*3 24.4 C 0 km/h
Sensor: Nr:Datum:Temp:Abs-Feuchte:Windchill:Wind:
Aussen-T/F 3176 10-06-2014 11:50:00 24.8 C 15.25 g/m*3 24.8 C 0 km/h
3177 10-06-2014 11:55:00 25.2 C 16.06 g/m*3 25.2 C 1.6 km/h
3178 10-06-2014 12:00:00 25 C 15.88 g/m*3 25 C 0 km/h
3179 10-06-2014 12:05:00 25.1 C 16.2 g/m*3 25.1 C 3.2 km/h
3180 10-06-2014 12:10:00 25.8 C 16.37 g/m*3 25.8 C 6.4 km/h
3181 10-06-2014 12:15:00 26.7 C 15.69 g/m*3 26.7 C 11.3 km/h
3182 10-06-2014 12:20:00 27.2 C 15.61 g/m*3 27.2 C 9.7 km/h
3183 10-06-2014 12:25:00 27.6 C 16.49 g/m*3 27.6 C 9.7 km/h
3184 10-06-2014 12:30:00 27.9 C 16.5 g/m*3 27.9 C 9.7 km/h
3185 10-06-2014 12:35:00 28.1 C 16.13 g/m*3 28.1 C 11.3 km/h
3186 10-06-2014 12:40:00 28.4 C 15.84 g/m*3 28.4 C 9.7 km/h
3187 10-06-2014 12:45:00 28.7 C 16.11 g/m*3 28.7 C 11.3 km/h
3188 10-06-2014 12:50:00 28.7 C 15.82 g/m*3 28.7 C 11.3 km/h
3189 10-06-2014 12:55:00 28.9 C 16.85 g/m*3 28.9 C 11.3 km/h
3190 10-06-2014 13:00:00 29.2 C 15.97 g/m*3 29.2 C 8.1 km/h
3191 10-06-2014 13:05:00 29.4 C 16.44 g/m*3 29.4 C 8.1 km/h
3192 10-06-2014 13:10:00 29.8 C 16.2 g/m*3 29.8 C 6.4 km/h
3193 10-06-2014 13:15:00 30.2 C 16.86 g/m*3 30.2 C 6.4 km/h
3194 10-06-2014 13:20:00 30.3 C 16.33 g/m*3 30.3 C 4.8 km/h
3195 10-06-2014 13:25:00 30.7 C 16.69 g/m*3 30.7 C 6.4 km/h
3196 10-06-2014 13:30:00 30.7 C 17.01 g/m*3 30.7 C 4.8 km/h
3197 10-06-2014 13:35:00 30.6 C 16.6 g/m*3 30.6 C 3.2 km/h
3198 10-06-2014 13:40:00 30.5 C 15.89 g/m*3 30.5 C 8.1 km/h
3199 10-06-2014 13:45:00 30.6 C 16.29 g/m*3 30.6 C 4.8 km/h
3200 10-06-2014 13:50:00 30.6 C 16.6 g/m*3 30.6 C 8.1 km/h
Sensor: Nr:Datum:Temp:Abs-Feuchte:Windchill:Wind:
Aussen-T/F 3201 10-06-2014 13:55:00 30.7 C 16.06 g/m*3 30.7 C 8.1 km/h
3202 10-06-2014 14:00:00 31.1 C 16.73 g/m*3 31.1 C 3.2 km/h
3203 10-06-2014 14:05:00 31.3 C 16.91 g/m*3 31.3 C 4.8 km/h
3204 10-06-2014 14:10:00 31.4 C 16.67 g/m*3 31.4 C 4.8 km/h
3205 10-06-2014 14:15:00 31.4 C 16.35 g/m*3 31.4 C 6.4 km/h
3206 10-06-2014 14:20:00 31.6 C 16.19 g/m*3 31.6 C 1.6 km/h
3207 10-06-2014 14:25:00 31.7 C 15.95 g/m*3 31.7 C 4.8 km/h
3208 10-06-2014 14:30:00 31.8 C 16.7 g/m*3 31.8 C 3.2 km/h
3209 10-06-2014 14:35:00 32.2 C 16.04 g/m*3 32.2 C 3.2 km/h
3210 10-06-2014 14:40:00 32.4 C 16.21 g/m*3 32.4 C 3.2 km/h
3211 10-06-2014 14:45:00 32.2 C 15.7 g/m*3 32.2 C 4.8 km/h
3212 10-06-2014 14:50:00 32.1 C 16.97 g/m*3 32.1 C 4.8 km/h
3213 10-06-2014 14:55:00 32.3 C 15.78 g/m*3 32.3 C 6.4 km/h
3214 10-06-2014 15:00:00 32.4 C 16.21 g/m*3 32.4 C 3.2 km/h
3215 10-06-2014 15:05:00 32.7 C 15.42 g/m*3 32.7 C 4.8 km/h